     2              OBSERVATION DATA    GPS                 RINEX VERSION / TYPE
FIC2RX 9.60 97/08/04                                        PGM / RUN BY / DATE
                                                            COMMENT
Operator input collection int (sec) 30.0000                 COMMENT
Operator input collection int (sec) 30.0000                 COMMENT
Operator input collection int (sec) 30.0000                 COMMENT
Operator input collection int (sec) 30.0000                 COMMENT
Operator input collection int (sec) 30.0000                 COMMENT
Original Marker Name: O21755480                             COMMENT
Campaign Name: STRC 1988 University                         COMMENT
4-Character Station Name: O217                              COMMENT
6-Character Antenna Code: TI4100                            COMMENT
Vertical Measurement Point: PAE                             COMMENT
Vertical Offset to Rinex Ref. Point: 0.0000                 COMMENT
Radial Measurement Point: PAE                               COMMENT
Radial Offset to Rinex Ref. Point: 0.0842                   COMMENT
Antenna Height from Field Measurement: 0.9290 m             COMMENT
Original XYZ: 0.0000 0.0000 0.0000                          COMMENT
New XYZ position is based on association with SCEC monument COMMENT
E1C8V3Z3+0011. Position of that monument is believed to be  COMMENT
valid to within 1 m horizontally; vertical accuracy         COMMENT
should be no worse than 3-times this value.                 COMMENT
                                                            COMMENT
Revised Rinex header created by UCSD GPS archive for        COMMENT
GSAC on 10-Apr-1999 (1999:100) 05:03:39 GMT                 COMMENT
For assistance contact dagnew@ucsd.edu or hjohnson@ucsd.edu COMMENT
                                                            COMMENT
OFFSET 217 1934                                             MARKER NAME
RR MASS INST. OF TECHNOLOGY                                 OBSERVER / AGENCY
UN01 TI 4100 GES 1.50                                       REC # / TYPE / VERS
UN01 TI 4100                                                ANT # / TYPE
 -2297658.0000 -4857842.0000  3423964.0000                  APPROX POSITION XYZ
        0.9252        0.0000        0.0000                  ANTENNA: DELTA H/E/N
     1     1     0                                          WAVELENGTH FACT L1/2
     4    L1    L2    P1    P2                              # / TYPES OF OBSERV
    30                                                      INTERVAL
  1988     3     2     4    35   59.000000                  TIME OF FIRST OBS
  1988     3     2    11    47   59.000000                  TIME OF LAST OBS
     7                                                      # OF SATELLITES
           6   385   385   385   385                        PRN / # OF OBS
           8   289   289   289   289                        PRN / # OF OBS
          11   560   560   560   560                        PRN / # OF OBS
           9   632   632   632   632                        PRN / # OF OBS
          13   576   576   576   576                        PRN / # OF OBS
           3   480   480   480   480                        PRN / # OF OBS
                                                            END OF HEADER
 88  3  2  4 35 59.0800000  0  2  6  8
         -.030 7          .177 7  21772500.127 0  21772500.709 0
         -.214 7         -.192 6  20354065.952 0  20354066.428 0
 88  3  2  4 36 29.0800000  0  2  6  8
    -58695.716 7    -45736.712 7  21761328.876 0  21761331.091 0
    -35138.499 7    -27380.651 6  20347379.895 0  20347380.484 0
 88  3  2  4 36 59.0800000  0  2  6  8
   -117264.169 7    -91374.449 7  21750184.296 0  21750185.495 0
    -69597.410 6    -54231.738 6  20340822.179 0  20340823.753 0
 88  3  2  4 37 29.0800000  0  2  6  8
   -175703.236 8   -136911.371 6  21739064.184 0  21739065.306 0
   -103375.307 8    -80552.170 6  20334393.848 0  20334396.431 0
 88  3  2  4 37 59.0800000  0  2  6  8
   -234011.293 7   -182346.205 6  21727968.536 0  21727969.398 0
   -136471.679 7   -106341.532 6  20328097.177 0  20328098.565 0
 88  3  2  4 38 29.0800000  0  2  6  8
   -292186.325 7   -227677.396 7  21716898.536 0  21716898.204 0
   -168885.249 7   -131598.844 6  20321927.779 0  20321930.022 0
 88  3  2  4 38 59.0800000  0  2  6  8
   -350226.493 7   -272903.487 7  21705853.957 0  21705854.169 0
   -200615.169 7   -156323.441 7  20315889.725 0  20315891.585 0
 88  3  2  4 39 29.0800000  0  2  6  8
   -408129.994 7   -318023.083 6  21694834.891 0  21694835.169 0
   -231660.639 7   -180514.700 6  20309981.561 0  20309984.815 0
 88  3  2  4 39 59.0800000  0  2  6  8
   -465894.759 7   -363034.584 6  21683843.111 0  21683843.060 0
   -262020.831 7   -204171.959 6  20304204.585 0  20304208.781 0
 88  3  2  4 40 29.0800000  0  2  6  8
   -523518.120 7   -407935.894 6  21672877.284 0  21672879.190 0
   -291694.069 7   -227293.958 6  20298558.768 0  20298560.281 0
 88  3  2  4 40 59.0800000  0  2  6  8
   -580998.918 7   -452726.126 7  21661939.278 0  21661939.315 0
   -320680.370 7   -249880.672 6  20293043.145 0  20293043.582 0
 88  3  2  4 41 29.0800000  0  2  6  8
   -638335.490 7   -497403.967 7  21651028.098 0  21651029.821 0
   -348979.258 7   -271931.727 7  20287657.509 0  20287658.865 0
 88  3  2  4 41 59.0800000  0  2  6  8
   -695526.311 7   -541968.249 6  21640144.998 0  21640146.432 0
   -376590.514 7   -293446.992 6  20282403.991 0  20282405.463 0
 88  3  2  4 42 29.0800000  0  2  6  8
   -752569.041 7   -586417.099 7  21629289.722 0  21629291.983 0
   -403513.004 7   -314425.525 6  20277280.145 0  20277282.412 0
 88  3  2  4 42 59.0800000  0  2  6  8
   -809461.056 7   -630748.534 7  21618463.200 0  21618465.951 0
   -429745.123 7   -334866.116 6  20272287.312 0  20272289.745 0
 88  3  2  4 43 29.0800000  0  2  6  8
   -866201.097 8   -674961.554 6  21607666.701 0  21607668.704 0
   -455286.977 7   -354768.842 6  20267427.419 0  20267429.289 0
 88  3  2  4 43 59.0800000  0  2  6  8
   -922786.495 7   -719054.078 7  21596899.566 0  21596900.750 0
   -480137.463 7   -374132.848 6  20262699.275 0  20262700.133 0
 88  3  2  4 44 29.0800000  0  4  6  8 11  9
   -979215.800 7   -763024.932 6  21586161.765 0  21586161.920 0
   -504296.818 7   -392958.307 6  20258101.410 0  20258102.824 0
         -.099 8          .000 1  22373288.626 0          .000 0
         -.310 3          .000 1          .000 0          .000 0
 88  3  2  4 44 59.0800000  0  4  6  8 11  9
  -1035486.966 8   -806872.596 6  21575453.212 0  21575453.384 0
   -527764.257 7   -411244.596 7  20253637.413 0  20253636.958 0
    -93231.493 7    126241.103 6  22355577.677 0  22355580.355 0
    -89880.289 6    227999.500 1  23955046.893 0          .000 0
 88  3  2  4 45 29.0800000  0  4  6  8 11  9
  -1091597.842 7   -850595.353 6  21564775.609 0  21564777.501 0
   -550538.964 6   -428991.112 6  20249302.568 0  20249302.298 0
   -186115.505 7     53864.488 6  22337901.842 0  22337903.395 0
   -179819.520 6    193764.826 6  23937931.621 0  23937931.790 0
 88  3  2  4 45 59.0800000  0  4  6  8 11  9
  -1147546.495 8   -894191.683 7  21554129.287 0  21554130.140 0
   -572620.853 7   -446197.766 6  20245100.618 0  20245100.000 0
   -278650.906 7    -18240.991 6  22320292.189 0  22320294.488 0
   -269811.306 6    123641.399 6  23920807.375 0  23920808.117 0
 88  3  2  4 46 29.0800000  0  4  6  8 11  9
  -1203330.738 7   -937659.923 6  21543514.104 0  21543513.899 0
   -594009.345 7   -462864.104 6  20241030.617 0  20241031.918 0
   -370835.154 7    -90072.841 6  22302749.994 0  22302753.210 0
   -359854.800 6     53477.666 6  23903672.335 0  23903673.111 0
 88  3  2  4 46 59.0800000  0  4  6  8 11  9
  -1258948.709 7   -980998.594 6  21532929.276 0  21532929.688 0
   -614703.852 7   -478989.700 6  20237091.841 0  20237092.909 0
   -462665.774 8   -161629.135 6  22285275.363 0  22285278.019 0
   -449948.734 6    -16725.392 6  23886526.789 0  23886529.285 0
 88  3  2  4 47 29.0800000  0  4  6  8 11  9
  -1314398.289 8  -1024206.054 7  21522377.913 0  21522378.964 0
   -634703.716 7   -494573.980 6  20233284.758 0  20233287.017 0
   -554140.069 7   -232907.785 6  22267869.044 0  22267871.496 0
   -540092.167 6    -86966.990 5  23869375.302 0  23869375.746 0
 88  3  2  4 47 59.0800000  0  4  6  8 11  9
  -1369677.386 7  -1067280.660 7  21511858.251 0  21511859.609 0
   -654009.098 7   -509617.120 6  20229611.722 0  20229612.898 0
   -645255.629 7   -303906.899 6  22250531.331 0  22250532.934 0
   -630283.676 7   -157246.069 6  23852212.227 0  23852213.942 0
 88  3  2  4 48 29.0800000  0  4  6  8 11  9
  -1424783.953 8  -1110220.840 6  21501373.165 0  21501372.677 0
   -672619.691 7   -524118.874 6  20226070.064 0  20226070.816 0
   -736009.795 7   -374624.426 6  22233260.830 0  22233263.224 0
   -720522.346 6   -227561.877 6  23835040.041 0  23835040.931 0
 88  3  2  4 48 59.0800000  0  4  6  8 11  9
  -1479715.934 7  -1153024.965 7  21490919.529 0  21490919.438 0
   -690535.190 7   -538078.981 6  20222661.674 0  20222661.409 0
   -826400.387 8   -445058.612 6  22216059.423 0  22216062.188 0
   -810806.779 6   -297913.369 6  23817859.354 0  23817860.633 0
 88  3  2  4 49 29.0800000  0  4  6  8 11  9
  -1534471.186 8  -1195691.387 7  21480499.689 0  21480500.522 0
   -707755.614 7   -551497.470 6  20219384.936 0  20219384.319 0
   -916424.847 8   -515207.518 6  22198929.202 0  22198931.217 0
   -901135.936 7   -368299.700 6  23800670.400 0  23800671.338 0
 88  3  2  4 49 59.0800000  0  4  6  8 11  9
  -1589047.730 7  -1238218.546 7  21470114.567 0  21470115.153 0
   -724280.295 7   -564373.866 6  20216239.414 0  20216240.839 0
  -1006080.469 7   -585069.018 6  22181868.224 0  22181869.383 0
   -991508.545 7   -438719.880 6  23783471.775 0  23783473.246 0
 88  3  2  4 50 29.0800000  0  4  6  8 11  9
  -1643443.242 8  -1280604.649 7  21459763.190 0  21459763.209 0
   -740109.906 7   -576708.600 6  20213226.215 0  20213228.154 0
  -1095365.300 7   -654641.601 6  22164876.349 0  22164878.855 0
  -1081923.246 7   -509172.909 6  23766265.976 0  23766268.475 0
 88  3  2  4 50 59.0800000  0  4  6  8 11  9
  -1697655.766 7  -1322848.180 7  21449447.239 0  21449447.323 0
   -755243.998 6   -588501.386 6  20210347.931 0  20210348.435 0
  -1184276.868 7   -723923.315 6  22147957.297 0  22147960.461 0
  -1172378.849 7   -579657.803 6  23749053.257 0  23749054.745 0
 88  3  2  4 51 29.0800000  0  4  6  8 11  9
  -1751683.063 7  -1364947.352 7  21439164.912 0  21439167.045 0
   -769682.240 7   -599751.942 6  20207599.051 0  20207600.819 0
  -1272812.384 8   -792912.018 6  22131109.536 0  22131112.737 0
  -1262874.313 7   -650173.726 6  23731832.373 0  23731834.331 0
 88  3  2  4 51 59.0800000  0  4  6  8 11  9
  -1805523.139 8  -1406900.656 7  21428920.615 0  21428920.675 0
   -783424.585 7   -610460.264 6  20204984.800 0  20204985.671 0
  -1360969.846 7   -861606.107 6  22114333.905 0  22114335.235 0
  -1353408.209 7   -720719.613 6  23714605.809 0  23714605.703 0
 88  3  2  4 52 29.0800000  0  4  6  8 11  9
  -1859173.856 7  -1448706.411 7  21418709.728 0  21418711.865 0
   -796470.880 7   -620626.187 5  20202502.768 0  20202503.635 0
  -1448747.080 8   -930003.935 6  22097631.431 0  22097632.564 0
  -1443979.343 7   -791294.518 6  23697369.683 0  23697371.775 0
 88  3  2  4 52 59.0800000  0  4  6  8 11  9
  -1912633.074 7  -1490362.933 6  21408537.582 0  21408538.615 0
   -808821.396 7   -630249.948 6  20200152.312 0  20200154.189 0
  -1536141.214 8   -998103.233 6  22081001.184 0  22081002.247 0
  -1534586.443 8   -861897.448 6  23680127.968 0  23680129.656 0
 88  3  2  4 53 29.0800000  0  4  6  8 11  9
  -1965898.535 7  -1531868.467 7  21398400.810 0  21398403.126 0
   -820476.055 7   -639331.491 5  20197934.637 0  20197935.368 0
  -1623149.984 8  -1065902.262 6  22064442.439 0  22064445.321 0
  -1625228.146 7   -932527.329 6  23662879.593 0  23662879.977 0
 88  3  2  4 53 59.0800000  0  4  6  8 11  9
  -2018968.091 7  -1573221.354 7  21388302.132 0  21388303.786 0
   -831434.831 8   -647870.796 6  20195849.559 0  20195850.274 0
  -1709771.316 8  -1133399.363 6  22047958.531 0  22047959.912 0
  -1715903.059 7  -1003183.102 7  23645624.499 0  23645626.651 0
 88  3  2  4 54 29.0800000  0  4  6  8 11  9
  -2071839.697 7  -1614420.006 7  21378242.047 0  21378242.580 0
   -841697.818 7   -655867.914 6  20193896.450 0  20193895.686 0
  -1796002.676 7  -1200592.639 6  22031549.357 0  22031552.510 0
  -1806609.948 7  -1073863.780 7  23628363.106 0  23628365.026 0
 88  3  2  4 54 59.0800000  0  4  6  8 11  9
  -2124511.031 7  -1655462.594 7  21368217.717 0  21368219.857 0
   -851265.249 7   -663323.043 6  20192074.740 0  20192075.128 0
  -1881841.529 7  -1267480.033 6  22015215.165 0  22015217.625 0
  -1897347.566 7  -1144568.390 7  23611097.248 0  23611097.877 0
 88  3  2  4 55 29.0800000  0  4  6  8 11  9
  -2176979.980 7  -1696347.481 7  21358232.536 0  21358234.491 0
   -860137.492 7   -670236.459 6  20190387.152 0  20190387.622 0
  -1967285.715 8  -1334059.900 6  21998955.944 0  21998957.933 0
  -1988114.145 6  -1215295.574 6  23593824.339 0  23593826.374 0
 88  3  2  4 55 59.0800000  0  4  6  8 11  9
  -2229244.288 7  -1737072.907 7  21348289.857 0  21348289.010 0
   -868314.973 7   -676608.494 6  20188832.269 0  20188832.863 0
  -2052332.896 8  -1400330.406 6  21982770.947 0  21982774.083 0
  -2078908.777 7  -1286044.607 7  23576545.511 0  23576547.360 0
 88  3  2  4 56 29.0800000  0  4  6  8 11  9
  -2281301.831 7  -1777637.228 7  21338381.574 0  21338383.914 0
   -875797.608 7   -682439.128 6  20187405.739 0  20187407.116 0
  -2136980.932 8  -1466289.894 6  21966664.279 0  21966665.336 0
  -2169729.682 7  -1356814.132 7  23559264.374 0  23559265.622 0
 88  3  2  4 56 59.0800000  0  4  6  8 11  9
  -2333150.448 7  -1818038.722 7  21328516.162 0  21328517.542 0
   -882585.603 7   -687728.457 6  20186117.064 0  20186115.808 0
  -2221227.998 7  -1531936.928 6  21950631.422 0  21950633.218 0
  -2260576.003 7  -1427603.439 7  23541975.740 0  23541977.937 0
 88  3  2  4 57 29.0800000  0  4  6  8 11  9
  -2384787.777 8  -1858275.592 7  21318688.531 0  21318690.709 0
   -888679.661 7   -692477.069 5  20184955.913 0  20184956.082 0
  -2305071.592 7  -1597269.580 6  21934677.858 0  21934679.882 0
  -2351445.983 7  -1498411.159 6  23524684.600 0  23524686.068 0
 88  3  2  4 57 59.0800000  0  4  6  8 11  9
  -2436211.713 7  -1898346.173 7  21308903.333 0  21308905.850 0
   -894079.985 7   -696685.101 6  20183927.454 0  20183929.251 0
  -2388509.326 7  -1662285.993 6  21918799.764 0  21918801.966 0
  -2442338.292 7  -1569236.312 7  23507388.058 0  23507389.786 0
 88  3  2  4 58 29.0800000  0  4  6  8 11  9
  -2487420.012 8  -1938248.732 7  21299159.882 0  21299160.603 0
   -898786.922 7   -700352.818 7  20183030.832 0  20183033.463 0
  -2471538.862 8  -1726984.321 6  21902999.843 0  21903001.836 0
  -2533251.586 6  -1640077.799 7  23490088.462 0  23490089.092 0
 88  3  2  4 58 59.0800000  0  4  6  8 11  9
  -2538410.445 8  -1977981.537 6  21289455.566 0  21289456.978 0
   -902800.763 6   -703480.509 6  20182268.048 0  20182269.311 0
  -2554158.265 7  -1791363.050 6  21887277.376 0  21887279.529 0
  -2624184.167 7  -1710934.310 6  23472784.513 0  23472785.060 0
 88  3  2  4 59 29.0800000  0  4  6  8 11  9
  -2589180.768 8  -2017542.839 7  21279794.891 0  21279797.311 0
   -906122.348 7   -706068.738 6  20181635.812 0  20181637.409 0
  -2636365.136 7  -1855420.315 6  21871634.298 0  21871635.018 0
  -2715134.525 6  -1781804.675 7  23455477.611 0  23455477.634 0
 88  3  2  4 59 59.0800000  0  4  6  8 11  9
  -2639728.774 8  -2056930.861 6  21270175.655 0  21270175.953 0
   -908751.737 7   -708117.579 6  20181136.489 0  20181135.995 0
  -2718157.458 8  -1919154.585 6  21856069.301 0  21856071.573 0
  -2806101.667 7  -1852688.117 7  23438166.419 0  23438166.047 0
 88  3  2  5  0 29.0800000  0  4  6  8 11  9
  -2690052.149 7  -2096143.883 6  21260599.316 0  21260600.042 0
   -910689.763 7   -709627.726 6  20180767.209 0  20180768.537 0
  -2799533.113 8  -1982564.176 6  21840584.457 0  21840586.308 0
  -2897083.639 7  -1923583.117 7  23420851.243 0  23420853.458 0
 88  3  2  5  0 59.0800000  0  4  6  8 11  9
  -2740148.641 7  -2135180.118 7  21251065.817 0  21251068.447 0
   -911937.067 7   -710599.645 6  20180529.457 0  20180530.027 0
  -2880489.871 7  -2045647.339 6  21825178.836 0  21825180.730 0
  -2988078.954 6  -1994488.512 6  23403538.265 0  23403537.773 0
 88  3  2  5  1 29.0800000  0  4  6  8 11  9
  -2790016.109 7  -2174037.868 7  21241576.163 0  21241579.254 0
   -912494.111 7   -711033.696 6  20180423.170 0  20180424.551 0
  -2961025.662 7  -2108402.472 6  21809852.816 0  21809855.671 0
  -3079086.507 7  -2065403.439 7  23386219.870 0  23386220.308 0
 88  3  2  5  1 59.0800000  0  4  6  8 11  9
  -2839651.899 8  -2212715.113 7  21232132.363 0  21232132.791 0
   -912361.585 7   -710930.426 6  20180449.204 0  20180448.480 0
  -3041138.114 8  -2170827.741 6  21794607.814 0  21794611.488 0
  -3170104.146 8  -2136326.243 6  23368899.483 0  23368899.415 0
 88  3  2  5  2 29.0800000  0  4  6  8 11  9
  -2889054.139 8  -2251210.380 7  21222731.078 0  21222733.013 0
   -911540.117 7   -710290.309 6  20180603.955 0  20180606.575 0
  -3120825.278 8  -2232921.617 7  21779445.078 0  21779446.736 0
  -3261130.977 7  -2207256.206 7  23351576.292 0  23351577.989 0
 88  3  2  5  2 59.0800000  0  4  6  8 11  9
  -2938220.508 7  -2289521.814 7  21213374.355 0  21213375.816 0
   -910030.428 7   -709113.921 6  20180892.829 0  20180895.008 0
  -3200085.414 7  -2294682.748 7  21764361.451 0  21764364.702 0
  -3352164.994 7  -2278191.777 6  23334254.056 0  23334255.200 0
 88  3  2  5  3 29.0800000  0  4  6  8 11  9
  -2987148.639 8  -2327647.626 7  21204063.857 0  21204064.471 0
   -907833.265 7   -707401.838 6  20181310.343 0  20181313.037 0
  -3278915.862 7  -2356109.053 6  21749361.154 0  21749362.247 0
  -3443204.968 7  -2349131.998 6  23316929.613 0  23316930.409 0
 88  3  2  5  3 59.0800000  0  4  6  8 11  9
  -3035836.369 8  -2365586.120 7  21194800.406 0  21194799.087 0
   -904949.233 7   -705154.515 6  20181859.923 0  20181859.515 0
  -3357314.880 7  -2417199.163 6  21734441.669 0  21734444.458 0
  -3534249.333 7  -2420075.611 6  23299604.461 0  23299606.699 0
 88  3  2  5  4 29.0800000  0  4  6  8 11  9
  -3084281.193 8  -2403335.335 7  21185580.389 0  21185581.662 0
   -901379.203 6   -702372.664 6  20182538.332 0  20182540.395 0
  -3435280.435 8  -2477951.529 6  21719604.135 0  21719606.608 0
  -3625296.250 8  -2491021.258 7  23282279.083 0  23282279.246 0
 88  3  2  5  4 59.0800000  0  4  6  8 11  9
  -3132480.995 7  -2440893.602 7  21176408.060 0  21176408.255 0
   -897124.264 7   -699057.127 6  20183349.436 0  20183350.526 0
  -3512810.471 7  -2538364.550 6  21704851.680 0  21704854.658 0
  -3716344.016 8  -2561967.546 6  23264952.140 0  23264952.675 0
 88  3  2  5  5 29.0800000  0  4  6  8 11  9
  -3180433.382 7  -2478259.105 6  21167283.554 0  21167283.845 0
   -892185.233 7   -695208.518 6  20184288.654 0  20184288.782 0
  -3589903.082 8  -2598436.679 6  21690182.044 0  21690184.086 0
  -3807391.466 8  -2632913.580 7  23247626.246 0  23247628.472 0
 88  3  2  5  5 59.0800000  0  4  6  8 11  9
  -3228136.094 8  -2515430.043 7  21158205.602 0  21158206.735 0
   -886562.494 7   -690827.145 5  20185358.686 0  20185358.960 0
  -3666556.355 7  -2658166.503 6  21675595.077 0  21675597.923 0
  -3898436.507 7  -2703857.741 7  23230301.561 0  23230302.686 0
 88  3  2  5  6 29.0800000  0  4  6  8 11  9
  -3275586.768 7  -2552404.576 7  21149175.734 0  21149176.700 0
   -880257.376 7   -685914.073 6  20186556.987 0  20186558.230 0
  -3742768.389 8  -2717552.478 6  21661092.269 0  21661094.361 0
  -3989477.806 7  -2774798.986 7  23212976.955 0  23212978.941 0
 88  3  2  5  6 59.0800000  0  4  6  8 11  9
  -3322783.213 8  -2589181.032 7  21140195.860 0  21140195.343 0
   -873270.780 7   -680469.962 6  20187888.001 0  20187888.219 0
  -3818537.125 8  -2776593.050 6  21646673.557 0  21646676.135 0
  -4080513.599 7  -2845735.957 7  23195652.370 0  23195654.315 0
 88  3  2  5  7 29.0800000  0  4  6  8 11  9
  -3369722.952 7  -2625757.450 7  21131262.375 0  21131263.644 0
   -865603.484 7   -674495.432 6  20189346.433 0  20189347.241 0
  -3893860.389 8  -2835286.489 7  21632339.924 0  21632343.469 0
  -4171542.106 7  -2916667.229 7  23178330.844 0  23178333.685 0
 88  3  2  5  7 59.0800000  0  4  6  8 11  9
  -3416403.722 7  -2662132.065 7  21122379.117 0  21122379.127 0
   -857257.089 7   -667991.748 6  20190934.201 0  20190935.697 0
  -3968736.188 7  -2893631.244 6  21618092.097 0  21618094.851 0
  -4262561.814 7  -2987591.642 6  23161010.085 0  23161011.292 0
 88  3  2  5  8 29.0800000  0  4  6  8 11  9
  -3462823.513 8  -2698303.320 6  21113546.546 0  21113547.038 0
   -848232.690 7   -660959.733 6  20192651.286 0  20192653.812 0
  -4043163.288 8  -2951626.369 6  21603928.964 0  21603931.714 0
  -4353571.259 7  -3058508.086 7  23143690.848 0  23143692.791 0
 88  3  2  5  8 59.0800000  0  4  6  8 11  9
  -3508980.313 7  -2734269.654 7  21104763.131 0  21104763.518 0
   -838531.534 7   -653400.379 6  20194498.289 0  20194498.607 0
  -4117140.178 7  -3009270.687 6  21589851.414 0  21589853.732 0
  -4444569.021 7  -3129415.386 6  23126375.380 0  23126376.877 0
 88  3  2  5  9 29.0800000  0  4  6  8 11  9
  -3554871.006 7  -2770028.623 7  21096030.154 0  21096030.124 0
   -828154.036 7   -645314.017 6  20196473.874 0  20196474.281 0
  -4190663.993 7  -3066561.943 6  21575860.481 0  21575861.592 0
  -4535552.638 7  -3200311.683 7  23109061.859 0  23109062.520 0
 88  3  2  5  9 59.0800000  0  4  6  8 11  9
  -3600493.411 7  -2805578.567 7  21087348.455 0  21087350.197 0
   -817101.596 7   -636701.703 6  20198577.070 0  20198576.677 0
  -4263732.988 7  -3123498.823 6  21561956.161 0  21561957.768 0
  -4626520.517 7  -3271195.704 7  23091751.900 0  23091752.536 0
 88  3  2  5 10 29.0800000  0  4  6  8 11  9
  -3645845.055 7  -2840917.494 7  21078718.471 0  21078719.381 0
   -805375.130 7   -627564.195 6  20200807.644 0  20200808.210 0
  -4336345.518 7  -3180079.989 6  21548138.321 0  21548139.588 0
  -4717470.808 7  -3342066.025 7  23074444.036 0  23074444.417 0
 88  3  2  5 10 59.0800000  0  4  6  8 11  9
  -3690923.003 7  -2876043.163 6  21070139.880 0  21070140.422 0
   -792975.055 7   -617901.789 6  20203167.737 0  20203168.078 0
  -4408499.239 7  -3236303.643 6  21534408.263 0  21534408.060 0
  -4808401.097 7  -3412920.769 7  23057140.706 0  23057141.003 0
 88  3  2  5 11 29.0800000  0  4  6  8 11  9
  -3735725.662 8  -2910954.321 7  21061613.494 0  21061616.392 0
   -779903.698 7   -607716.323 6  20205654.647 0  20205655.866 0
  -4480192.801 7  -3292168.739 6  21520765.252 0  21520766.804 0
  -4899310.346 7  -3483759.124 7  23039842.083 0  23039842.632 0
 88  3  2  5 11 59.0800000  0  4  6  8 11  9
  -3780250.557 8  -2945649.020 7  21053142.744 0  21053142.413 0
   -766162.263 8   -597008.699 6  20208268.966 0  20208270.681 0
  -4551424.302 7  -3347673.801 6  21507208.331 0  21507212.370 0
  -4990196.886 7  -3554579.804 7  23022546.436 0  23022546.213 0
 88  3  2  5 12 29.0800000  0  4  6  8 11  9
  -3824495.339 7  -2980125.497 7  21044721.675 0  21044722.198 0
   -751752.112 7   -585779.983 6  20211012.221 0  20211013.702 0
  -4622192.244 7  -3402817.644 7  21493743.601 0  21493744.801 0
  -5081058.678 8  -3625381.181 7  23005255.755 0  23005256.931 0
 88  3  2  5 12 59.0800000  0  4  6  8 11  9
  -3868457.777 7  -3014381.923 7  21036357.208 0  21036357.326 0
   -736674.798 7   -574031.410 6  20213880.414 0  20213881.561 0
  -4692494.934 7  -3457598.940 6  21480365.261 0  21480368.354 0
  -5171894.170 7  -3696162.059 6  22987970.566 0  22987971.765 0
 88  3  2  5 13 29.0800000  0  4  6  8 11  9
  -3912135.540 8  -3048416.553 7  21028044.435 0  21028045.147 0
   -720931.628 7   -561763.989 6  20216876.455 0  20216876.900 0
  -4762330.270 7  -3512016.057 6  21467076.048 0  21467077.688 0
  -5262701.439 7  -3766920.943 7  22970689.592 0  22970691.074 0
 88  3  2  5 13 59.0800000  0  4  6  8 11  9
  -3955526.185 7  -3082227.434 7  21019788.236 0  21019788.616 0
   -704523.822 7   -548978.676 6  20219998.873 0  20220000.249 0
  -4831696.600 7  -3566067.705 6  21453876.289 0  21453879.074 0
  -5353478.669 7  -3837656.419 6  22953414.943 0  22953417.675 0
 88  3  2  5 14 29.0800000  0  4  6  8 11  9
  -3998627.357 8  -3115812.741 7  21011585.372 0  21011586.012 0
   -687452.279 7   -535676.173 6  20223246.488 0  20223248.080 0
  -4900592.575 7  -3619752.865 6  21440765.159 0  21440766.797 0
  -5444223.870 7  -3908366.961 7  22936147.067 0  22936147.471 0
 88  3  2  5 14 59.0800000  0  4  6  8 11  9
  -4041436.750 8  -3149170.726 7  21003439.443 0  21003439.064 0
   -669718.875 7   -521857.937 7  20226622.342 0  20226623.157 0
  -4969016.335 7  -3673070.061 6  21427744.447 0  21427748.072 0
  -5534935.315 8  -3979051.193 6  22918885.104 0  22918886.779 0
 88  3  2  5 15 29.0800000  0  4  6  8 11  9
  -4083952.002 8  -3182299.503 7  20995349.031 0  20995350.600 0
   -651325.204 7   -507525.219 6  20230122.735 0  20230123.157 0
  -5036966.453 7  -3726018.208 6  21414814.329 0  21414817.370 0
  -5625611.074 7  -4049707.638 6  22901631.146 0  22901631.821 0
 88  3  2  5 15 59.0800000  0  4  6  8 11  9
  -4126170.676 7  -3215197.138 7  20987315.276 0  20987314.850 0
   -632272.698 7   -492679.093 6  20233747.149 0  20233748.960 0
  -5104441.320 7  -3778595.995 6  21401975.819 0  21401976.361 0
  -5716249.238 7  -4120334.749 7  22884383.418 0  22884383.630 0
 88  3  2  5 16 29.0800000  0  4  6  8 11  9
  -4168090.441 8  -3247861.919 7  20979338.077 0  20979339.822 0
   -612562.969 7   -477320.861 6  20237497.924 0  20237498.379 0
  -5171438.974 8  -3830801.940 6  21389225.290 0  21389226.661 0
  -5806847.939 7  -4190931.141 6  22867142.310 0  22867142.336 0
 88  3  2  5 16 59.0800000  0  4  6  8 11  9
  -4209708.929 8  -3280291.893 7  20971418.168 0  20971419.044 0
   -592197.924 7   -461451.969 7  20241374.342 0  20241374.526 0
  -5237958.020 7  -3882634.953 6  21376567.381 0  21376568.625 0
  -5897405.413 8  -4261495.375 6  22849910.102 0  22849911.241 0
 88  3  2  5 17 29.0800000  0  4  6  8 11  9
  -4251023.535 7  -3312485.099 7  20963555.820 0  20963556.632 0
   -571178.313 7   -445073.065 6  20245373.580 0  20245375.097 0
  -5303996.898 8  -3934093.784 6  21363999.960 0  21364002.402 0
  -5987919.339 7  -4332025.694 6  22832686.036 0  22832686.820 0
 88  3  2  5 17 59.0800000  0  4  6  8 11  9
  -4292032.141 7  -3344439.841 6  20955753.339 0  20955754.035 0
   -549506.083 7   -428185.585 6  20249499.829 0  20249498.635 0
  -5369553.761 8  -3985177.043 5  21351524.319 0  21351527.294 0
  -6078388.108 7  -4402520.823 6  22815470.833 0  22815470.520 0
 88  3  2  5 18 29.0800000  0  4  6  8 11  9
  -4332732.295 7  -3376154.256 7  20948007.515 0  20948006.981 0
   -527183.004 7   -410790.955 7  20253746.225 0  20253745.636 0
  -5434627.096 7  -4035883.534 6  21339142.173 0  21339143.625 0
  -6168809.436 7  -4472978.979 6  22798262.541 0  22798264.610 0
 88  3  2  5 18 59.0800000  0  4  6  8 11  9
  -4373121.642 8  -3407626.466 7  20940322.570 0  20940322.181 0
   -504210.768 7   -392890.511 7  20258118.123 0  20258117.964 0
  -5499215.685 8  -4086212.283 6  21326850.549 0  21326853.907 0
  -6259181.738 7  -4543398.925 6  22781065.253 0  22781067.170 0
 88  3  2  5 19 29.0800000  0  4  6  8 11  9
  -4413197.799 7  -3438854.627 7  20932694.768 0  20932695.845 0
   -480590.997 7   -374485.487 6  20262611.230 0  20262612.072 0
  -5563318.273 8  -4136162.330 6  21314652.400 0  21314656.437 0
  -6349502.805 7  -4613778.942 7  22763876.430 0  22763879.380 0
 88  3  2  5 19 59.0800000  0  4  6  8 11  9
  -4452958.641 8  -3469837.103 6  20925128.704 0  20925129.459 0
   -456325.811 7   -355577.550 7  20267230.201 0  20267231.753 0
  -5626932.961 7  -4185732.202 6  21302547.549 0  21302549.663 0
  -6439770.936 7  -4684117.710 6  22746700.809 0  22746702.597 0
 88  3  2  5 20 29.0800000  0  4  6  8 11  9
  -4492401.367 7  -3500571.709 7  20917622.653 0  20917624.493 0
   -431416.653 7   -336167.817 7  20271968.995 0  20271970.440 0
  -5690058.357 8  -4234920.810 6  21290535.386 0  21290537.492 0
  -6529983.692 6  -4754413.301 7  22729534.057 0  22729535.179 0
 88  3  2  5 20 59.0800000  0  4  6  8 11  9
  -4531523.858 7  -3531056.752 7  20910179.761 0  20910179.795 0
   -405864.960 7   -316257.400 6  20276831.613 0  20276832.345 0
  -5752693.238 7  -4283727.189 6  21278617.060 0  21278618.103 0
  -6620139.143 7  -4824664.256 6  22712377.707 0  22712379.093 0
 88  3  2  5 21 29.0800000  0  4  6  8 11  9
  -4570323.690 8  -3561290.405 7  20902794.064 0  20902796.388 0
   -379673.111 7   -295848.185 6  20281814.933 0  20281816.825 0
  -5814835.827 7  -4332149.964 6  21266790.945 0  21266792.352 0
  -6710235.369 7  -4894869.076 7  22695233.286 0  22695234.562 0
 88  3  2  5 21 59.0800000  0  4  6  8 11  9
  -4608798.405 7  -3591270.675 7  20895472.832 0  20895473.911 0
   -352842.921 7   -274941.534 6  20286921.437 0  20286922.980 0
  -5876485.018 7  -4380188.268 6  21255059.185 0  21255061.588 0
  -6800270.310 7  -4965026.137 7  22678100.012 0  22678101.148 0
 88  3  2  5 22 29.0800000  0  4  6  8 11  9
  -4646945.620 7  -3620995.790 6  20888213.953 0  20888214.481 0
   -325376.225 7   -253538.915 7  20292147.421 0  20292151.145 0
  -5937639.198 7  -4427840.850 6  21243422.095 0  21243424.354 0
  -6890241.696 7  -5035133.675 7  22660979.301 0  22660980.840 0
 88  3  2  5 22 59.0800000  0  4  6  8 11  9
  -4684763.023 7  -3650463.895 7  20881018.699 0  20881019.900 0
   -297275.098 7   -231641.925 6  20297497.028 0  20297498.229 0
  -5998297.191 7  -4475106.803 6  21231879.102 0  21231882.777 0
  -6980147.805 7  -5105190.345 6  22643871.276 0  22643871.105 0
 88  3  2  5 23 29.0800000  0  4  6  8 11  9
  -4722248.701 7  -3679673.489 7  20873884.853 0  20873885.142 0
   -268541.697 7   -209252.242 6  20302964.390 0  20302964.102 0
  -6058458.191 7  -4521985.483 6  21220430.921 0  21220432.412 0
  -7069986.778 7  -5175194.727 7  22626774.719 0  22626775.415 0
 88  3  2  5 23 59.0800000  0  4  6  8 11  9
  -4759400.425 7  -3708622.896 6  20866815.429 0  20866815.878 0
   -239177.866 7   -186371.334 7  20308551.206 0  20308552.888 0
  -6118121.070 7  -4568476.006 6  21209077.269 0  21209079.056 0
  -7159756.785 8  -5245145.351 7  22609692.323 0  22609692.740 0
 88  3  2  5 24 29.0800000  0  4  6  8 11  9
  -4796215.114 7  -3737309.652 7  20859809.889 0  20859811.685 0
   -209185.211 7   -163000.433 6  20314259.182 0  20314259.605 0
  -6177283.811 7  -4614576.840 6  21197819.268 0  21197821.953 0
  -7249454.783 8  -5315039.861 6  22592624.472 0  22592625.193 0
 88  3  2  5 24 59.0800000  0  4  6  8 11  9
  -4832690.449 7  -3765731.996 7  20852869.847 0  20852869.799 0
   -178565.473 7   -139140.898 6  20320085.160 0  20320086.212 0
  -6235945.097 8  -4660286.897 6  21186654.390 0  21186658.421 0
  -7339079.063 7  -5384876.936 7  22575568.706 0  22575568.517 0
 88  3  2  5 25 29.0800000  0  4  6  8 11  9
  -4868824.094 7  -3793888.069 6  20845992.363 0  20845994.734 0
   -147320.817 7   -114794.400 7  20326031.824 0  20326031.670 0
  -6294103.693 7  -4705605.277 6  21175588.473 0  21175590.516 0
  -7428627.342 7  -5454654.797 6  22558527.290 0  22558528.707 0
 88  3  2  5 25 59.0800000  0  4  6  8 11  9
  -4904613.936 7  -3821776.238 7  20839182.621 0  20839182.300 0
   -115453.406 7    -89962.651 6  20332095.631 0  20332097.655 0
  -6351758.427 7  -4750531.034 6  21164617.419 0  21164619.694 0
  -7518097.449 7  -5524371.734 6  22541501.386 0  22541502.731 0
 88  3  2  5 26 29.0800000  0  4  6  8 11  9
  -4940057.310 7  -3849394.466 7  20832437.557 0  20832438.245 0
    -82965.337 6    -64647.268 6  20338277.508 0  20338276.920 0
  -6408908.220 7  -4795063.334 6  21153741.856 0  21153744.855 0
  -7607487.444 8  -5594026.257 6  22524491.216 0  22524491.838 0
 88  3  2  5 26 59.0800000  0  4  6  8 11  9
  -4975151.902 7  -3876740.887 6  20825759.350 0  20825760.213 0
    -49858.540 7    -38849.757 6  20344577.312 0  20344579.017 0
  -6465551.716 7  -4839201.103 6  21142963.300 0  21142965.952 0
  -7696794.986 7  -5663616.567 6  22507497.342 0  22507498.103 0
 88  3  2  5 27 29.0800000  0  4  6  8 11  9
  -5009895.381 7  -3903813.717 6  20819147.534 0  20819148.807 0
    -16135.259 7    -12571.874 6  20350994.890 0  20350996.820 0
  -6521687.750 7  -4882943.435 6  21132280.057 0  21132282.775 0
  -7786017.812 7  -5733140.829 6  22490519.203 0  22490517.918 0
 88  3  2  5 27 59.0800000  0  4  6  8 11  9
  -5044285.563 7  -3930611.252 7  20812603.744 0  20812604.714 0
     18202.542 7     14184.853 7  20357529.346 0  20357531.568 0
  -6577315.142 7  -4926289.446 6  21121695.224 0  21121699.329 0
  -7875153.883 7  -5802597.483 6  22473557.103 0  22473556.528 0
 88  3  2  5 28 29.0800000  0  4  6  8 11  9
  -5078319.851 7  -3957131.479 7  20806127.751 0  20806128.166 0
     53152.580 7     41418.642 6  20364179.440 0  20364180.878 0
  -6632432.815 7  -4969238.257 6  21111206.819 0  21111209.046 0
  -7964200.958 7  -5871984.793 7  22456611.456 0  22456613.247 0
 88  3  2  5 28 59.0800000  0  4  6  8 11  9
  -5111995.998 8  -3983372.630 7  20799718.611 0  20799719.550 0
     88712.420 7     69127.624 7  20370946.333 0  20370947.572 0
  -6687039.663 8  -5011789.033 6  21100815.532 0  21100816.276 0
  -8053156.915 7  -5941301.080 6  22439683.493 0  22439684.420 0
 88  3  2  5 29 29.0800000  0  4  6  8 11  9
  -5145311.713 7  -4009332.918 6  20793380.157 0  20793379.878 0
    124879.826 7     97310.024 7  20377828.931 0  20377830.094 0
  -6741134.470 7  -5053940.802 6  21090521.780 0  21090522.912 0
  -8142019.315 7  -6010544.499 6  22422774.881 0  22422775.054 0
 88  3  2  5 29 59.0800000  0  4  6  8 11  9
  -5178264.791 7  -4035010.658 6  20787108.528 0  20787109.088 0
    161652.351 7    125963.943 6  20384826.690 0  20384826.965 0
  -6794716.633 8  -5095693.108 6  21080324.971 0  21080327.641 0
  -8230786.151 7  -6079713.429 6  22405882.027 0  22405882.554 0
 88  3  2  5 30 29.0800000  0  4  6  8 11  9
  -5210852.338 8  -4060403.541 6  20780906.932 0  20780905.250 0
    199028.330 7    155088.069 7  20391937.892 0  20391940.090 0
  -6847784.704 7  -5137044.826 6  21070226.813 0  21070229.127 0
  -8319454.779 7  -6148805.855 6  22389009.120 0  22389009.710 0
 88  3  2  5 30 59.0800000  0  4  6  8 11  9
  -5243072.237 7  -4085509.972 7  20774775.390 0  20774776.436 0
    237005.495 7    184680.680 6  20399165.236 0  20399167.230 0
  -6900337.619 7  -5177995.151 6  21060226.315 0  21060227.895 0
  -8408022.879 7  -6217819.947 7  22372155.253 0  22372156.818 0
 88  3  2  5 31 29.0800000  0  4  6  8 11  9
  -5274922.389 7  -4110328.264 6  20768715.162 0  20768716.147 0
    275580.997 7    214739.504 6  20406507.123 0  20406506.586 0
  -6952375.047 7  -5218543.765 6  21050323.985 0  21050325.650 0
  -8496488.682 7  -6286754.312 7  22355320.663 0  22355322.156 0
 88  3  2  5 31 59.0800000  0  4  6  8 11  9
  -5306400.431 8  -4134856.608 6  20762724.908 0  20762725.333 0
    314752.464 7    245262.734 7  20413959.216 0  20413961.037 0
  -7003895.529 7  -5258689.584 6  21040520.426 0  21040522.337 0
  -8584849.712 8  -6355607.028 7  22338505.853 0  22338507.044 0
 88  3  2  5 32 29.0800000  0  4  6  8 11  9
  -5337503.907 8  -4159093.087 6  20756805.750 0  20756807.889 0
    354517.585 7    276248.525 7  20421528.411 0  20421529.294 0
  -7054897.965 7  -5298431.734 6  21030813.122 0  21030816.601 0
  -8673103.550 7  -6424376.240 6  22321710.963 0  22321711.772 0
 88  3  2  5 32 59.0800000  0  4  6  8 11  9
  -5368230.692 7  -4183036.033 7  20750959.331 0  20750959.231 0
    394874.637 7    307695.577 6  20429207.616 0  20429208.311 0
  -7105381.997 7  -5337769.920 6  21021207.614 0  21021210.033 0
  -8761248.197 7  -6493060.382 6  22304938.539 0  22304938.357 0
 88  3  2  5 33 29.0800000  0  4  6  8 11  9
  -5398578.353 7  -4206683.578 7  20745183.804 0  20745184.728 0
    435820.911 7    339601.768 6  20436999.658 0  20437000.675 0
  -7155346.473 7  -5376703.249 6  21011698.680 0  21011701.856 0
  -8849280.973 8  -6561657.343 7  22288186.510 0  22288187.902 0
 88  3  2  5 33 59.0800000  0  4  6  8 11  9
  -5428544.815 8  -4230034.067 7  20739481.247 0  20739482.307 0
    477353.514 7    371964.835 7  20444902.476 0  20444903.785 0
  -7204790.249 7  -5415230.856 6  21002290.885 0  21002292.569 0
  -8937199.672 7  -6630165.393 6  22271455.182 0  22271456.250 0
 88  3  2  5 34 29.0800000  0  4  6  8 11  9
  -5458127.573 7  -4253085.552 6  20733852.793 0  20733853.290 0
    519470.023 7    404782.917 6  20452917.872 0  20452918.767 0
  -7253712.616 7  -5453352.161 5  20992981.815 0  20992982.740 0
  -9025002.251 8  -6698582.961 7  22254746.926 0  22254748.141 0
 88  3  2  5 34 59.0800000  0  4  6  8 11  9
  -5487324.347 8  -4275836.293 6  20728297.084 0  20728297.353 0
    562168.492 7    438054.451 6  20461042.305 0  20461042.522 0
  -7302112.746 8  -5491066.534 5  20983770.827 0  20983772.303 0
  -9112686.224 8  -6766908.115 6  22238061.435 0  22238063.137 0
 88  3  2  5 35 29.0800000  0  4  6  8 11  9
  -5516132.915 8  -4298284.536 7  20722813.975 0  20722814.480 0
    605446.448 7    471777.541 6  20469277.697 0  20469279.156 0
  -7349990.058 8  -5528373.532 6  20974660.708 0  20974661.779 0
  -9200249.405 8  -6835139.144 7  22221399.005 0  22221399.977 0
 88  3  2  5 35 59.0800000  0  4  6  8 11  9
  -5544551.009 7  -4320428.499 6  20717406.790 0  20717407.892 0
    649301.194 8    505950.069 6  20477622.125 0  20477623.423 0
  -7397343.977 7  -5565272.669 6  20965649.685 0  20965651.243 0
  -9287688.706 7  -6903273.660 6  22204760.119 0  22204760.896 0
 88  3  2  5 36 29.0800000  0  4  6  8 11  9
  -5572576.209 7  -4342266.326 7  20712073.077 0  20712073.464 0
    693730.025 7    540569.934 6  20486077.489 0  20486077.780 0
  -7444173.387 7  -5601763.095 6  20956736.288 0  20956740.128 0
  -9375002.234 7  -6971310.146 7  22188144.839 0  22188145.118 0
 88  3  2  5 36 59.0800000  0  4  6  8 11  9
  -5600206.315 7  -4363796.275 6  20706815.422 0  20706816.780 0
    738730.680 7    575635.398 6  20494640.338 0  20494640.941 0
  -7490477.465 7  -5637844.185 6  20947925.688 0  20947927.409 0
  -9462187.589 8  -7039246.749 6  22171553.350 0  22171553.850 0
 88  3  2  5 37 29.0800000  0  4  6  8 11  9
  -5627439.162 8  -4385016.685 7  20701633.755 0  20701633.712 0
    784300.264 7    611144.164 6  20503312.785 0  20503313.376 0
  -7536255.571 7  -5673515.414 6  20939212.629 0  20939216.424 0
  -9549242.253 8  -7107081.553 7  22154987.011 0  22154987.382 0
 88  3  2  5 37 59.0800000  0  4  6  8 11  9
  -5654272.338 8  -4405925.653 7  20696526.952 0  20696528.533 0
    830436.404 7    647094.424 6  20512091.319 0  20512091.914 0
  -7581506.893 7  -5708776.155 6  20930603.294 0  20930605.264 0
  -9636164.002 7  -7174812.767 6  22138445.996 0  22138447.568 0
 88  3  2  5 38 29.0800000  0  4  6  8 11  9
  -5680703.728 8  -4426521.548 7  20691496.988 0  20691496.607 0
    877136.557 7    683484.141 6  20520978.718 0  20520979.358 0
  -7626231.021 7  -5743626.108 6  20922092.537 0  20922093.708 0
  -9722950.318 7  -7242438.466 6  22121932.010 0  22121932.892 0
 88  3  2  5 38 59.0800000  0  4  6  8 11  9
  -5706730.994 7  -4446802.538 6  20686545.131 0  20686545.625 0
    924398.096 8    720311.323 7  20529972.418 0  20529972.127 0
  -7670427.177 7  -5778064.656 6  20913682.791 0  20913683.537 0
  -9809598.572 7  -7309956.568 7  22105442.874 0  22105445.698 0
 88  3  2  5 39 29.0800000  0  4  6  8 11  9
  -5732351.925 7  -4466766.904 6  20681668.099 0  20681670.075 0
    972218.620 8    757574.077 6  20539073.704 0  20539072.988 0
  -7714094.615 7  -5812091.226 5  20905373.529 0  20905374.960 0
  -9896106.660 7  -7377365.427 6  22088980.388 0  22088983.573 0
 88  3  2  5 39 59.0800000  0  4  6  8 11  9
  -5757564.209 7  -4486412.835 7  20676871.577 0  20676871.890 0
   1020595.252 7    795270.150 6  20548277.645 0  20548277.879 0
  -7757232.479 7  -5845705.140 6  20897164.642 0  20897166.518 0
  -9982471.468 8  -7444662.668 5  22072546.257 0  22072546.557 0
 88  3  2  5 40 29.0800000  0  4  6  8 11  9
  -5782365.749 8  -4505738.716 7  20672150.927 0  20672151.720 0
   1069524.967 7    833397.196 7  20557589.169 0  20557588.902 0
  -7799840.919 7  -5878906.492 5  20889056.179 0  20889057.791 0
 -10068691.179 8  -7511846.852 6  22056140.187 0  22056140.056 0
 88  3  2  5 40 59.0800000  0  4  6  8 11  9
  -5806754.237 7  -4524742.731 6  20667511.205 0  20667511.869 0
   1119005.513 7    871953.470 7  20567005.018 0  20567006.324 0
  -7841919.154 6  -5911694.726 6  20881048.170 0  20881051.160 0
 -10154763.376 8  -7578916.095 6  22039760.468 0  22039761.259 0
 88  3  2  5 41 29.0800000  0  4  6  8 11  9
  -5830727.524 7  -4543423.212 6  20662948.320 0  20662948.938 0
   1169034.147 8    910936.825 6  20576524.780 0  20576524.298 0
  -7883466.537 6  -5944069.264 6  20873142.306 0  20873145.091 0
 -10240685.008 8  -7645867.984 6  22023410.157 0  22023411.500 0
 88  3  2  5 41 59.0800000  0  4  6  8 11  9
  -5854283.409 7  -4561778.461 7  20658466.236 0  20658467.136 0
   1219608.166 7    950345.154 6  20586149.216 0  20586149.605 0
  -7924482.413 7  -5976029.685 6  20865336.609 0  20865338.502 0
 -10326454.037 7  -7712700.992 6  22007089.912 0  22007091.065 0
 88  3  2  5 42 29.0800000  0  4  6  8 11  9
  -5877419.685 7  -4579806.723 6  20654063.327 0  20654063.428 0
   1270724.975 7    990176.442 6  20595876.336 0  20595876.976 0
  -7964966.251 7  -6007575.518 6  20857634.420 0  20857636.362 0
 -10412067.549 7  -7779412.789 7  21990797.080 0  21990798.104 0
 88  3  2  5 42 59.0800000  0  4  6  8 11  9
  -5900134.208 7  -4597506.355 6  20649740.666 0  20649742.319 0
   1322381.735 7   1030428.466 7  20605705.789 0  20605706.449 0
  -8004917.955 7  -6038706.693 7  20850031.709 0  20850033.397 0
 -10497523.297 7  -7846001.690 7  21974535.427 0  21974537.625 0
 88  3  2  5 43 29.0800000  0  4  6  8 11  9
  -5922424.805 6  -4614875.650 7  20645498.885 0  20645499.709 0
   1374575.310 7   1071098.788 7  20615638.200 0  20615638.743 0
  -8044336.921 7  -6069422.745 6  20842529.390 0  20842531.790 0
 -10582818.468 7  -7912465.436 7  21958304.535 0  21958305.287 0
 88  3  2  5 43 59.0800000  0  4  6  8 11  9
  -5944289.218 6  -4631912.857 6  20641338.145 0  20641338.201 0
   1427303.405 7   1112185.622 7  20625671.530 0  20625673.269 0
  -8083222.879 7  -6099723.474 6  20835130.179 0  20835131.857 0
 -10667951.095 7  -7978802.520 7  21942104.479 0  21942105.193 0
 88  3  2  5 44 29.0800000  0  4  6  8 11  9
  -5965725.388 7  -4648616.361 7  20637257.657 0  20637259.384 0
   1480563.056 7   1153686.645 7  20635806.817 0  20635808.264 0
  -8121574.965 6  -6129608.212 6  20827831.338 0  20827834.204 0
 -10752918.154 8  -8045010.613 6  21925936.642 0  21925937.410 0
 88  3  2  5 44 59.0800000  0  4  6  8 11  9
  -5986731.225 6  -4664984.550 6  20633262.684 0  20633263.985 0
   1534351.659 7   1195599.829 6  20646042.371 0  20646042.822 0
  -8159393.197 7  -6159076.958 6  20820635.964 0  20820638.239 0
 -10837717.109 7  -8111087.698 6  21909799.141 0  21909800.389 0
 88  3  2  5 45 29.0800000  0  4  6  8 11  9
  -6007304.510 7  -4681015.682 7  20629346.776 0  20629347.578 0
   1588666.301 7   1237922.933 6  20656378.324 0  20656378.883 0
  -8196677.062 7  -6188129.295 5  20813541.601 0  20813543.387 0
 -10922345.737 7  -8177032.075 7  21893695.667 0  21893695.900 0
 88  3  2  5 45 59.0800000  0  4  6  8 11  9
  -6027443.127 7  -4696708.114 6  20625515.017 0  20625515.297 0
   1643503.803 7   1280653.450 6  20666813.369 0  20666813.381 0
  -8233426.375 7  -6216765.099 6  20806547.120 0  20806548.856 0
 -11006800.920 7  -8242841.292 7  21877623.526 0  21877623.972 0
 88  3  2  5 46 29.0800000  0  4  6  8 11  9
  -6047144.921 7  -4712060.148 6  20621765.659 0  20621766.840 0
   1698861.447 8   1323789.288 7  20677347.377 0  20677348.948 0
  -8269640.629 6  -6244983.993 6  20799655.391 0  20799658.631 0
 -11091080.334 8  -8308513.548 7  21861585.872 0  21861587.208 0
 88  3  2  5 46 59.0800000  0  4  6  8 11  9
  -6066407.723 7  -4727070.118 6  20618099.596 0  20618101.539 0
   1754736.401 7   1367328.209 7  20687981.048 0  20687982.308 0
  -8305319.666 6  -6272785.819 6  20792866.413 0  20792867.855 0
 -11175181.560 7  -8374046.950 6  21845580.581 0  21845581.516 0
 88  3  2  5 47 29.0800000  0  4  6  8 11  9
  -6085229.503 7  -4741736.469 7  20614517.918 0  20614520.463 0
   1811125.977 8   1411268.143 7  20698710.290 0  20698711.524 0
  -8340463.280 6  -6300170.428 6  20786178.652 0  20786180.581 0
 -11259101.569 8  -8439439.155 6  21829612.843 0  21829612.456 0
 88  3  2  5 47 59.0800000  0  4  6  8 11  9
  -6103608.192 7  -4756057.491 6  20611022.195 0  20611021.243 0
   1868027.213 7   1455606.766 7  20709538.356 0  20709540.091 0
  -8375071.170 7  -6327137.576 6  20779593.969 0  20779594.109 0
 -11342837.925 7  -8504688.256 6  21813678.155 0  21813677.854 0
 88  3  2  5 48 29.0800000  0  4  6  8 11  9
  -6121541.766 7  -4770031.714 6  20607607.927 0  20607609.570 0
   1925436.993 8   1500341.665 7  20720463.637 0  20720463.850 0
  -8409143.200 7  -6353687.208 6  20773109.050 0  20773112.029 0
 -11426388.126 7  -8569792.303 7  21797777.695 0  21797780.030 0
 88  3  2  5 48 59.0800000  0  4  6  8 11  9
  -6139028.044 7  -4783657.387 7  20604281.091 0  20604281.775 0
   1983352.681 7   1545470.767 6  20731484.644 0  20731486.490 0
  -8442679.086 8  -6379819.043 5  20766727.552 0  20766729.573 0
 -11509749.606 7  -8634749.271 7  21781915.069 0  21781914.845 0
 88  3  2  5 49 29.0800000  0  4  6  8 11  9
  -6156065.094 7  -4796933.011 7  20601038.860 0  20601040.865 0
   2041771.535 7   1590991.958 7  20742600.172 0  20742602.798 0
  -8475678.746 7  -6405533.053 6  20760449.154 0  20760450.746 0
 -11592919.166 8  -8699556.722 6  21766089.078 0  21766088.424 0
 88  3  2  5 49 59.0800000  0  4  6  8 11  9
  -6172650.766 7  -4809856.911 8  20597882.914 0  20597883.798 0
   2100690.216 7   1636902.610 7  20753813.055 0  20753814.406 0
  -8508142.131 7  -6430829.191 6  20754271.459 0  20754272.996 0
 -11675894.941 8  -8764213.163 7  21750298.858 0  21750299.576 0
 88  3  2  5 50 29.0800000  0  4  6  8 11  9
  -6188783.059 6  -4822427.537 6  20594812.652 0  20594814.713 0
   2160105.867 7   1683200.532 7  20765120.091 0  20765120.810 0
  -8540068.849 7  -6455707.150 6  20748196.052 0  20748197.396 0
 -11758673.970 7  -8828716.296 6  21734546.869 0  21734547.645 0
 88  3  2  5 50 59.0800000  0  4  6  8 11  9
  -6204460.069 7  -4834643.387 7  20591829.584 0  20591831.170 0
   2220015.411 7   1729883.286 7  20776519.290 0  20776522.255 0
  -8571459.001 7  -6480166.990 6  20742221.279 0  20742223.101 0
 -11841253.201 7  -8893063.711 6  21718831.630 0  21718832.872 0
 88  3  2  5 51 29.0800000  0  4  6  8 11  9
  -6219679.691 7  -4846502.830 7  20588933.902 0  20588934.177 0
   2280415.889 7   1776948.607 7  20788013.473 0  20788014.338 0
  -8602312.001 7  -6504208.254 6  20736350.407 0  20736352.754 0
 -11923630.378 7  -8957253.707 7  21703155.882 0  21703156.961 0
 88  3  2  5 51 59.0800000  0  4  6  8 11  9
  -6234439.925 7  -4858004.307 7  20586125.642 0  20586125.902 0
   2341304.495 7   1824394.270 7  20799600.664 0  20799601.395 0
  -8632628.523 6  -6527831.490 6  20730581.226 0  20730583.693 0
 -12005802.689 7  -9021284.069 7  21687519.087 0  21687520.118 0
 88  3  2  5 52 29.0800000  0  4  6  8 11  9
  -6248738.813 7  -4869146.302 7  20583403.133 0  20583404.684 0
   2402678.385 8   1872218.075 7  20811279.789 0  20811281.771 0
  -8662408.283 7  -6551036.513 6  20724914.692 0  20724917.292 0
 -12087767.422 7  -9085152.655 7  21671922.812 0  21671922.648 0
 88  3  2  5 52 59.0800000  0  4  6  8 11  9
  -6262574.515 7  -4879927.365 7  20580770.264 0  20580772.574 0
   2464534.473 8   1920417.622 7  20823049.752 0  20823050.350 0
  -8691651.597 7  -6573823.489 6  20719349.877 0  20719352.634 0
 -12169522.048 7  -9148857.536 6  21656365.346 0  21656364.737 0
 88  3  2  5 53 29.0800000  0  4  6  8 11  9
  -6275945.453 7  -4890346.290 7  20578227.117 0  20578227.550 0
   2526869.091 7   1968990.059 7  20834911.698 0  20834912.694 0
  -8720358.496 7  -6596192.480 6  20713885.940 0  20713889.134 0
 -12251064.180 8  -9212396.858 6  21640848.259 0  21640847.492 0
 88  3  2  5 53 59.0800000  0  4  6  8 11  9
  -6288849.540 7  -4900401.435 6  20575770.048 0  20575771.613 0
   2589679.307 7   2017933.085 7  20846865.212 0  20846866.891 0
  -8748529.256 7  -6618143.723 6  20708527.802 0  20708529.130 0
 -12332390.961 7  -9275768.370 6  21625371.957 0  21625372.427 0
 88  3  2  5 54 29.0800000  0  4  6  8 11  9
  -6301284.500 7  -4910091.004 7  20573403.497 0  20573406.026 0
   2652962.456 8   2067244.639 7  20858907.953 0  20858906.428 0
  -8776163.310 7  -6639676.735 6  20703267.783 0  20703269.739 0
 -12413499.340 7  -9338969.694 7  21609937.317 0  21609936.906 0
 88  3  2  5 54 59.0800000  0  4  6  8 11  9
  -6313248.349 7  -4919413.493 7  20571127.372 0  20571129.576 0
   2716715.628 7   2116922.433 6  20871039.483 0  20871040.598 0
  -8803260.812 6  -6660791.658 5  20698110.201 0  20698113.910 0
 -12494386.541 7  -9401998.672 6  21594543.977 0  21594546.783 0
 88  3  2  5 55 29.0800000  0  4  6  8 11  9
  -6324739.249 7  -4928367.446 7  20568942.980 0  20568942.653 0
   2780935.625 7   2166963.995 7  20883259.754 0  20883260.236 0
  -8829822.158 7  -6681488.805 6  20693057.323 0  20693058.431 0
 -12575049.598 7  -9464852.970 6  21579195.251 0  21579195.381 0
 88  3  2  5 55 59.0800000  0  4  6  8 11  9
  -6335755.383 7  -4936951.442 7  20566844.704 0  20566846.195 0
   2845619.197 7   2217366.798 6  20895568.480 0  20895569.199 0
  -8855847.017 6  -6701767.884 5  20688104.215 0  20688106.635 0
 -12655486.328 8  -9527530.936 7  21563888.510 0  21563889.288 0
 88  3  2  5 56 29.0800000  0  4  6  8 11  9
  -6346294.683 7  -4945163.902 7  20564838.287 0  20564840.921 0
   2910763.561 8   2268128.626 7  20907966.041 0  20907966.171 0
  -8881335.619 7  -6721629.140 6  20683254.087 0  20683256.897 0
 -12735693.661 8  -9590030.151 7  21548625.898 0  21548626.690 0
 88  3  2  5 56 59.0800000  0  4  6  8 11  9
  -6356355.374 7  -4953003.409 6  20562925.804 0  20562927.152 0
   2976365.506 8   2319247.031 7  20920449.024 0  20920448.562 0
  -8906288.050 7  -6741072.572 6  20678504.335 0  20678507.426 0
 -12815668.629 7  -9652348.288 6  21533405.872 0  21533407.574 0
 88  3  2  5 57 29.0800000  0  4  6  8 11  9
  -6365935.709 7  -4960468.596 7  20561101.639 0  20561103.853 0
   3042422.136 8   2370719.734 6  20933019.046 0  20933019.685 0
  -8930704.850 7  -6760098.635 5  20673860.785 0  20673861.306 0
 -12895408.659 8  -9714483.354 6  21518232.176 0  21518233.721 0
 88  3  2  5 57 59.0800000  0  4  6  8 11  9
  -6375033.794 7  -4967558.024 6  20559370.312 0  20559371.562 0
   3108930.412 7   2422544.354 6  20945675.976 0  20945676.181 0
  -8954586.066 6  -6778707.374 6  20669315.197 0  20669318.496 0
 -12974910.801 7  -9776433.084 6  21503103.842 0  21503105.006 0
 88  3  2  5 58 29.0800000  0  4  6  8 11  9
  -6383647.707 7  -4974270.173 7  20557732.208 0  20557731.471 0
   3175887.124 8   2474718.419 7  20958415.660 0  20958417.867 0
  -8977932.316 7  -6796899.243 6  20664871.517 0  20664874.985 0
 -13054172.613 8  -9838195.526 6  21488021.153 0  21488021.886 0
 88  3  2  5 58 59.0800000  0  4  6  8 11  9
  -6391775.618 7  -4980603.612 7  20556184.616 0  20556186.687 0
   3243289.136 8   2527239.469 7  20971242.789 0  20971242.680 0
  -9000743.609 7  -6814674.261 6  20660531.782 0  20660534.111 0
 -13133190.936 7  -9899768.218 6  21472984.971 0  21472984.232 0
 88  3  2  5 59 29.0800000  0  4  6  8 11  9
  -6399415.885 7  -4986557.065 6  20554731.578 0  20554732.118 0
   3311133.279 7   2580105.032 7  20984152.084 0  20984153.733 0
  -9023020.406 7  -6832032.793 6  20656291.828 0  20656293.956 0
 -13211963.528 7  -9961149.452 7  21457995.120 0  21457995.094 0
 88  3  2  5 59 59.0800000  0  4  6  8 11  9
  -6406566.792 7  -4992129.205 7  20553371.463 0  20553369.835 0
   3379416.358 7   2633312.619 7  20997145.926 0  20997146.696 0
  -9044762.472 7  -6848974.644 6  20652154.541 0  20652156.284 0
 -13290486.673 7 -10022336.323 7  21443051.831 0  21443051.526 0
 88  3  2  6  0 29.0800000  0  4  6  8 11  9
  -6413226.364 7  -4997318.489 6  20552103.997 0  20552104.061 0
   3448135.273 7   2686859.835 7  21010223.291 0  21010224.672 0
  -9065970.482 6  -6865500.349 6  20648119.190 0  20648120.481 0
 -13368758.638 7 -10083327.459 6  21428156.969 0  21428158.055 0
 88  3  2  6  0 59.0800000  0  4  6  8 11  9
  -6419392.985 7  -5002123.645 6  20550930.395 0  20550930.238 0
   3517287.356 8   2740744.565 6  21023381.768 0  21023383.572 0
  -9086644.646 7  -6881610.091 6  20644184.901 0  20644186.381 0
 -13446775.840 7 -10144120.076 6  21413311.410 0  21413310.995 0
 88  3  2  6  1 29.0800000  0  4  6  8 11  9
  -6425064.942 7  -5006543.356 6  20549849.692 0  20549850.944 0
   3586869.182 8   2794964.172 7  21036622.989 0  21036624.145 0
  -9106785.582 7  -6897304.311 6  20640352.116 0  20640354.816 0
 -13524535.525 7 -10204712.016 6  21398513.994 0  21398513.619 0
 88  3  2  6  1 59.0800000  0  4  6  8 11  9
  -6430240.557 7  -5010576.306 7  20548864.993 0  20548865.173 0
   3656877.526 7   2849516.142 7  21049946.026 0  21049946.011 0
  -9126393.677 6  -6912583.331 6  20636622.616 0  20636622.170 0
 -13602035.476 8 -10265101.590 5  21383765.794 0  21383766.289 0
 88  3  2  6  2 29.0800000  0  4  6  8 11  9
  -6434918.080 7  -5014221.137 6  20547975.528 0  20547976.008 0
   3727309.430 8   2904398.123 7  21063348.214 0  21063349.320 0
  -9145469.225 7  -6927447.376 6  20632990.886 0  20632993.731 0
 -13679272.284 7 -10325286.105 6  21369069.456 0  21369069.075 0
 88  3  2  6  2 59.0800000  0  4  6  8 11  9
  -6439095.911 8  -5017476.597 7  20547179.951 0  20547180.653 0
   3798161.490 7   2959607.535 7  21076830.424 0  21076831.568 0
  -9164012.668 7  -6941896.794 6  20629461.491 0  20629464.532 0
 -13756243.147 8 -10385263.404 7  21354422.428 0  21354422.726 0
 88  3  2  6  3 29.0800000  0  4  6  8 11  9
  -6442772.256 7  -5020341.276 6  20546480.995 0  20546482.001 0
   3869430.790 8   3015142.044 7  21090392.610 0  21090394.494 0
  -9182024.459 7  -6955931.928 6  20626035.138 0  20626037.173 0
 -13832945.391 7 -10445031.373 7  21339825.741 0  21339825.018 0
 88  3  2  6  3 59.0800000  0  4  6  8 11  9
  -6445945.624 7  -5022814.048 7  20545877.106 0  20545876.682 0
   3941114.022 8   3070999.104 7  21104034.315 0  21104035.263 0
  -9199505.155 6  -6969553.241 6  20622707.782 0  20622709.749 0
 -13909376.165 7 -10504587.802 6  21325281.134 0  21325281.115 0
 88  3  2  6  4 29.0800000  0  4  6  8 11  9
  -6448614.348 7  -5024893.583 7  20545368.632 0  20545369.392 0
   4013207.942 8   3127176.185 7  21117752.683 0  21117753.885 0
  -9216455.404 7  -6982761.219 6  20619482.005 0  20619483.323 0
 -13985532.714 7 -10563930.558 6  21310789.815 0  21310789.344 0
 88  3  2  6  4 59.0800000  0  4  6  8 11  9
  -6450776.682 7  -5026578.519 6  20544957.127 0  20544958.640 0
   4085709.622 8   3183671.004 6  21131550.449 0  21131550.870 0
  -9232875.643 7  -6995556.206 6  20616358.597 0  20616359.600 0
 -14061411.905 7 -10623057.199 7  21296350.041 0  21296351.042 0
 88  3  2  6  5 29.0800000  0  4  6  8 11  9
  -6452431.147 7  -5027867.715 7  20544642.094 0  20544643.752 0
   4158615.698 7   3240480.937 6  21145423.561 0  21145424.498 0
  -9248766.813 7  -7007938.915 6  20613332.495 0  20613336.894 0
 -14137010.959 8 -10681965.529 6  21281963.409 0  21281965.612 0
 88  3  2  6  5 59.0800000  0  4  6  8 11  9
  -6453576.110 7  -5028759.908 6  20544424.512 0  20544425.906 0
   4231922.954 7   3297603.471 7  21159373.387 0  21159374.607 0
  -9264128.965 6  -7019909.407 6  20610410.794 0  20610413.363 0
 -14212326.837 8 -10740653.226 6  21267632.352 0  21267632.763 0
 88  3  2  6  6 29.0800000  0  4  6  8 11  9
  -6454210.080 7  -5029253.900 6  20544304.009 0  20544305.919 0
   4305627.873 8   3355035.867 7  21173399.019 0  21173399.119 0
  -9278962.747 7  -7031468.199 6  20607588.752 0  20607589.862 0
 -14287357.166 7 -10799118.399 7  21253354.103 0  21253354.816 0
 88  3  2  6  6 59.0800000  0  4  6  8 11  9
  -6454331.297 7  -5029348.364 7  20544280.746 0  20544282.508 0
   4379727.197 7   3412775.611 6  21187500.203 0  21187499.364 0
  -9293269.521 7  -7042616.320 6  20604864.746 0  20604867.567 0
 -14362098.928 7 -10857358.700 6  21239131.220 0  21239130.805 0
 88  3  2  6  7 29.0800000  0  4  6  8 11  9
  -6453938.798 7  -5029042.524 7  20544355.134 0  20544356.544 0
   4454218.188 7   3470820.537 6  21201675.093 0  21201675.860 0
  -9307049.364 7  -7053353.846 6  20602243.091 0  20602244.203 0
 -14436549.043 7 -10915371.771 6  21224962.520 0  21224963.383 0
 88  3  2  6  7 59.0800000  0  4  6  8 11  9
  -6453030.545 7  -5028334.803 7  20544528.759 0  20544529.462 0
   4529097.758 7   3529168.248 7  21215925.059 0  21215924.954 0
  -9320302.825 7  -7063681.219 6  20599720.417 0  20599722.909 0
 -14510704.603 7 -10973155.329 6  21210852.773 0  21210852.703 0
 88  3  2  6  8 29.0800000  0  4  6  8 11  9
  -6451605.335 7  -5027224.239 6  20544799.989 0  20544800.697 0
   4604362.410 7   3587816.027 7  21230246.596 0  21230247.605 0
  -9333030.575 7  -7073598.937 6  20597298.843 0  20597300.875 0
 -14584562.699 8 -11030707.077 7  21196797.170 0  21196797.857 0
 88  3  2  6  8 59.0800000  0  4  6  8 11  9
  -6449661.566 6  -5025709.636 6  20545169.919 0  20545170.140 0
   4680009.156 8   3646761.547 7  21244640.756 0  21244642.529 0
  -9345233.247 7  -7083107.505 6  20594977.545 0  20594979.383 0
 -14658120.669 7 -11088024.950 7  21182800.461 0  21182800.183 0
 88  3  2  6  9 29.0800000  0  4  6  8 11  9
  -6447197.928 8  -5023789.909 7  20545638.563 0  20545639.147 0
   4756034.764 7   3706002.275 7  21259109.315 0  21259109.175 0
  -9356911.905 6  -7092207.746 6  20592753.439 0  20592757.241 0
 -14731375.812 8 -11145106.873 6  21168859.627 0  21168860.998 0
 88  3  2  6  9 59.0800000  0  4  6  8 11  9
  -6444212.810 7  -5021463.846 7  20546205.216 0  20546207.975 0
   4832435.983 8   3765535.710 7  21273647.064 0  21273647.286 0
  -9368067.266 6  -7100900.200 6  20590632.682 0  20590633.523 0
 -14804325.031 8 -11201950.415 6  21154978.854 0  21154979.813 0
 88  3  2  6 10 29.0800000  0  4  6  8 11  9
  -6440704.958 7  -5018730.464 6  20546872.985 0  20546874.829 0
   4909209.680 7   3825359.346 6  21288256.714 0  21288257.531 0
  -9378699.996 7  -7109185.437 6  20588609.494 0  20588611.472 0
 -14876965.064 7 -11258553.021 6  21141156.060 0  21141156.000 0
 88  3  2  6 10 59.0800000  0  4  6  8 11  9
  -6436672.898 6  -5015588.621 7  20547642.103 0  20547641.314 0
   4986352.658 7   3885470.770 7  21302936.865 0  21302937.085 0
  -9388811.080 7  -7117064.219 6  20586684.547 0  20586686.068 0
 -14949293.374 8 -11314912.731 6  21127391.562 0  21127392.492 0
 88  3  2  6 11 29.0800000  0  4  6  8 11  9
  -6432115.318 7  -5012037.260 7  20548508.532 0  20548510.337 0
   5063861.578 7   3945867.322 7  21317685.820 0  21317686.820 0
  -9398401.110 7  -7124536.957 6  20584858.141 0  20584862.242 0
 -15021307.176 7 -11371027.372 6  21113688.168 0  21113687.311 0
 88  3  2  6 11 59.0800000  0  4  6  8 11  9
  -6427030.783 7  -5008075.287 6  20549475.952 0  20549476.989 0
   5141733.089 7   4006546.423 7  21332504.041 0  21332504.675 0
  -9407471.212 6  -7131604.547 6  20583133.116 0  20583136.087 0
 -15093003.263 8 -11426894.454 6  21100044.585 0  21100045.000 0
 88  3  2  6 12 29.0800000  0  4  6  8 11  9
  -6421418.088 8  -5003701.766 7  20550544.415 0  20550545.131 0
   5219964.329 7   4067505.816 7  21347390.725 0  21347392.760 0
  -9416022.103 7  -7138267.566 6  20581506.095 0  20581508.136 0
 -15164379.032 8 -11482511.934 7  21086461.988 0  21086463.247 0
 88  3  2  6 12 59.0800000  0  4  6  8 11  9
  -6415275.723 6  -4998915.533 7  20551712.506 0  20551714.210 0
   5298552.090 7   4128743.050 7  21362345.650 0  21362346.376 0
  -9424054.508 7  -7144526.572 6  20579977.323 0  20579980.197 0
 -15235431.147 7 -11537877.224 7  21072941.658 0  21072941.780 0
 88  3  2  6 13 29.0800000  0  4  6  8 11  9
  -6408602.594 7  -4993715.689 6  20552981.814 0  20552983.435 0
   5377493.228 7   4190255.613 7  21377367.697 0  21377368.672 0
  -9431569.286 7  -7150382.236 6  20578548.215 0  20578550.056 0
 -15306157.101 7 -11592988.367 7  21059483.186 0  21059483.675 0
 88  3  2  6 13 59.0800000  0  4  6  8 11  9
  -6401397.368 7  -4988101.225 6  20554353.755 0  20554355.036 0
   5456784.361 7   4252040.925 7  21392455.364 0  21392457.132 0
  -9438567.526 7  -7155835.393 6  20577216.649 0  20577217.134 0
 -15376553.856 7 -11647842.963 7  21046087.004 0  21046086.721 0
 88  3  2  6 14 29.0800000  0  4  6  8 11  9
  -6393658.825 7  -4982071.200 7  20555826.676 0  20555827.117 0
   5536421.960 7   4314096.202 7  21407611.025 0  21407612.091 0
  -9445050.101 7  -7160886.740 6  20575982.412 0  20575983.189 0
 -15446618.556 7 -11702438.820 7  21032754.418 0  21032753.617 0
 88  3  2  6 14 59.0800000  0  4  6  8 11  9
  -6385385.671 7  -4975624.588 7  20557401.396 0  20557401.222 0
   5616403.120 7   4376419.180 7  21422831.910 0  21422831.343 0
  -9451018.088 7  -7165537.101 6  20574848.164 0  20574847.705 0
 -15516348.135 7 -11756773.566 6  21019483.759 0  21019485.034 0
 88  3  2  6 15 29.0800000  0  4  6  8 11  9
  -6376576.806 7  -4968760.539 6  20559077.599 0  20559079.153 0
   5696724.739 7   4439007.459 7  21438115.619 0  21438116.561 0
  -9456472.257 7  -7169787.089 6  20573808.333 0  20573810.164 0
 -15585739.815 7 -11810844.981 6  21006279.157 0  21006281.621 0
 88  3  2  6 15 59.0800000  0  4  6  8 11  9
  -6367230.867 7  -4961478.008 7  20560856.377 0  20560856.899 0
   5777383.481 8   4501858.421 6  21453464.276 0  21453465.985 0
  -9461414.033 7  -7173637.824 6  20572867.333 0  20572870.216 0
 -15654790.856 7 -11864650.988 6  20993139.970 0  20993140.145 0
 88  3  2  6 16 29.0800000  0  4  6  8 11  9
  -6357346.848 7  -4953776.193 7  20562735.629 0  20562737.478 0
   5858376.239 8   4564969.664 7  21468876.968 0  21468878.204 0
  -9465843.991 7  -7177089.722 6  20572024.052 0  20572027.602 0
 -15723497.916 7 -11918188.950 6  20980066.183 0  20980067.219 0
 88  3  2  6 16 59.0800000  0  4  6  8 11  9
  -6346923.531 7  -4945654.112 7  20564719.552 0  20564720.998 0
   5939699.565 7   4628338.478 7  21484351.867 0  21484353.329 0
  -9469763.177 6  -7180143.618 6  20571279.353 0  20571280.961 0
 -15791858.231 7 -11971456.731 7  20967056.379 0  20967058.017 0
 88  3  2  6 17 29.0800000  0  4  6  8 11  9
  -6335959.778 7  -4937110.945 6  20566807.176 0  20566807.478 0
   6021350.386 7   4691962.488 7  21499890.553 0  21499891.047 0
  -9473172.822 6  -7182800.504 7  20570629.708 0  20570633.865 0
 -15859869.092 7 -12024452.199 7  20954115.782 0  20954115.553 0
 88  3  2  6 17 59.0800000  0  4  6  8 11  9
  -6324454.669 6  -4928145.939 7  20568996.386 0  20568997.002 0
   6103325.455 7   4755839.175 6  21515488.718 0  21515490.028 0
  -9476074.319 7  -7185061.398 6  20570078.006 0  20570079.868 0
 -15927527.517 7 -12077173.042 7  20941239.655 0  20941240.247 0
 88  3  2  6 18 29.0800000  0  4  6  8 11  9
  -6312407.003 7  -4918758.153 7  20571288.045 0  20571288.532 0
   6185621.983 8   4819966.322 7  21531150.453 0  21531150.753 0
  -9478468.618 7  -7186927.065 6  20569622.986 0  20569623.444 0
 -15994830.755 7 -12129617.124 6  20928431.904 0  20928432.358 0
 88  3  2  6 18 59.0800000  0  4  6  8 11  9
  -6299815.706 7  -4908946.752 7  20573685.437 0  20573685.931 0
   6268236.115 7   4884340.976 7  21546871.578 0  21546871.044 0
  -9480356.768 6  -7188398.338 6  20569263.156 0  20569266.033 0
 -16061775.726 8 -12181782.013 7  20915692.891 0  20915693.792 0
 88  3  2  6 19 29.0800000  0  4  6  8 11  9
  -6286679.746 7  -4898710.973 7  20576183.745 0  20576185.707 0
   6351164.733 7   4948960.677 7  21562652.067 0  21562651.069 0
  -9481739.792 7  -7189476.004 6  20569000.000 0  20569003.540 0
 -16128359.544 7 -12233665.500 7  20903022.903 0  20903023.342 0
 88  3  2  6 19 59.0800000  0  4  6  8 11  9
  -6272998.064 7  -4888049.913 6  20578787.144 0  20578789.034 0
   6434404.980 8   5013823.212 7  21578491.666 0  21578491.398 0
  -9482618.696 7  -7190160.855 6  20568833.584 0  20568834.801 0
 -16194578.992 7 -12285265.064 6  20890422.349 0  20890423.037 0
 88  3  2  6 20 29.0800000  0  4  6  8 11  9
  -6258769.275 8  -4876962.570 7  20581495.629 0  20581496.075 0
   6517953.965 7   5078926.312 6  21594389.812 0  21594391.065 0
  -9482994.576 7  -7190453.747 6  20568761.661 0  20568764.561 0
 -16260431.233 7 -12336578.500 7  20877891.047 0  20877891.506 0
 88  3  2  6 20 59.0800000  0  4  6  8 11  9
  -6243992.846 7  -4865448.473 6  20584307.236 0  20584307.887 0
   6601807.890 7   5144267.046 7  21610346.448 0  21610346.828 0
  -9482868.831 6  -7190355.751 6  20568785.942 0  20568786.803 0
 -16325913.620 7 -12387603.728 7  20865429.457 0  20865430.468 0
 88  3  2  6 21 29.0800000  0  4  6  8 11  9
  -6228667.928 7  -4853506.984 7  20587223.306 0  20587224.338 0
   6685963.684 7   5209842.984 7  21626360.529 0  21626361.867 0
  -9482242.621 6  -7189867.806 7  20568905.414 0  20568905.571 0
 -16391022.896 8 -12438338.222 6  20853039.824 0  20853039.061 0
 88  3  2  6 21 59.0800000  0  4  6  8 11  9
  -6212793.437 7  -4841137.265 6  20590243.998 0  20590245.121 0
   6770418.410 7   5275651.863 7  21642432.716 0  21642432.129 0
  -9481117.479 7  -7188991.061 6  20569119.211 0  20569120.963 0
 -16455756.445 7 -12488779.953 7  20840720.728 0  20840721.553 0
 88  3  2  6 22 29.0800000  0  4  6  8 11  9
  -6196368.467 7  -4828338.586 6  20593369.907 0  20593371.011 0
   6855168.813 8   5341691.140 7  21658559.656 0  21658561.879 0
  -9479494.164 7  -7187726.136 6  20569427.151 0  20569429.695 0
 -16520111.255 8 -12538926.542 6  20828475.352 0  20828476.527 0
 88  3  2  6 22 59.0800000  0  4  6  8 11  9
  -6179392.118 6  -4815110.280 7  20596600.044 0  20596600.823 0
   6940211.648 7   5407958.274 7  21674743.111 0  21674744.275 0
  -9477374.308 7  -7186074.275 6  20569831.955 0  20569832.709 0
 -16584084.667 7 -12588775.955 6  20816301.551 0  20816301.684 0
 88  3  2  6 23 29.0800000  0  4  6  8 11  9
  -6161863.543 7  -4801451.658 7  20599935.982 0  20599936.685 0
   7025543.588 7   5474450.704 7  21690981.278 0  21690982.252 0
  -9474759.058 7  -7184036.412 6  20570328.907 0  20570330.625 0
 -16647673.780 8 -12638325.911 7  20804200.810 0  20804201.436 0
 88  3  2  6 23 59.0800000  0  4  6  8 11  9
  -6143781.878 7  -4787362.059 7  20603376.036 0  20603377.660 0
   7111161.636 7   5541166.064 7  21707274.946 0  21707274.988 0
  -9471649.644 7  -7181613.476 6  20570920.541 0  20570922.340 0
 -16710875.224 8 -12687573.779 6  20792173.885 0  20792174.945 0
 88  3  2  6 24 29.0800000  0  4  6  8 11  9
  -6125146.416 6  -4772840.941 7  20606922.446 0  20606924.480 0
   7197062.742 7   5608101.986 6  21723620.434 0  21723621.020 0
  -9468047.610 6  -7178806.684 7  20571605.006 0  20571608.360 0
 -16773686.467 7 -12736517.590 7  20780221.763 0  20780221.948 0
 88  3  2  6 24 59.0800000  0  4  6  8 11  9
  -6105956.331 7  -4757887.630 7  20610574.896 0  20610577.102 0
   7283243.428 7   5675255.782 7  21740020.120 0  21740021.230 0
  -9463954.418 7  -7175617.173 6  20572384.330 0  20572387.274 0
 -16836104.488 7 -12785155.020 7  20768343.364 0  20768344.224 0
 88  3  2  6 25 29.0800000  0  4  6  8 11  9
  -6086210.775 7  -4742501.487 7  20614331.852 0  20614332.334 0
   7369700.599 7   5742624.990 7  21756471.819 0  21756473.453 0
  -9459371.297 6  -7172045.914 6  20573258.365 0  20573259.442 0
 -16898126.549 7 -12833483.900 6  20756541.371 0  20756541.127 0
 88  3  2  6 25 59.0800000  0  4  6  8 11  9
  -6065909.070 7  -4726681.989 7  20618194.382 0  20618196.601 0
   7456431.066 7   5810207.176 7  21772976.534 0  21772977.753 0
  -9454299.210 7  -7168093.623 6  20574222.509 0  20574224.247 0
 -16959749.722 7 -12881501.959 7  20744815.907 0  20744815.045 0
 88  3  2  6 26 29.0800000  0  4  6  8 11  9
  -6045050.504 7  -4710428.564 7  20622164.550 0  20622165.238 0
   7543432.023 7   5878000.123 7  21789531.946 0  21789533.451 0
  -9448739.669 6  -7163761.508 6  20575280.650 0  20575282.784 0
 -17020970.760 7 -12929206.651 6  20733165.684 0  20733165.401 0
 88  3  2  6 26 59.0800000  0  4  6  8 11  9
  -6023634.114 7  -4693740.484 7  20626240.336 0  20626240.596 0
   7630700.491 7   5946001.522 7  21806137.980 0  21806140.225 0
  -9442693.884 7  -7159050.488 7  20576431.176 0  20576432.326 0
 -17081787.367 7 -12976596.215 7  20721593.043 0  20721593.145 0
 88  3  2  6 27 29.0800000  0  4  6  8 11  9
  -6001659.506 7  -4676617.420 7  20630420.975 0  20630423.076 0
   7718232.831 7   6014208.535 7  21822794.684 0  21822796.725 0
  -9436163.745 7  -7153962.058 7  20577673.621 0  20577674.804 0
 -17142196.397 7 -13023668.185 7  20710095.725 0  20710096.483 0
 88  3  2  6 27 59.0800000  0  4  6  8 11  9
  -5979126.045 7  -4659058.890 6  20634710.280 0  20634711.118 0
   7806025.898 7   6082618.713 8  21839502.927 0  21839502.846 0
  -9429150.857 6  -7148497.490 6  20579008.107 0  20579009.387 0
 -17202195.033 7 -13070420.362 7  20698676.932 0  20698679.608 0
 88  3  2  6 28 29.0800000  0  4  6  8 11  9
  -5956033.197 7  -4641064.479 7  20639103.883 0  20639104.882 0
   7894076.587 7   6151229.626 7  21856257.339 0  21856258.902 0
  -9421656.774 7  -7142657.922 6  20580433.292 0  20580435.823 0
 -17261780.559 7 -13116850.668 6  20687338.904 0  20687340.535 0
 88  3  2  6 28 59.0800000  0  4  6  8 11  9
  -5932380.237 7  -4622633.610 7  20643606.205 0  20643605.960 0
   7982381.912 7   6220038.970 8  21873061.907 0  21873062.795 0
  -9413682.335 7  -7136444.069 6  20581951.333 0  20581952.087 0
 -17320949.972 6 -13162956.709 7  20676079.951 0  20676081.513 0
 88  3  2  6 29 29.0800000  0  4  6  8 11  9
  -5908166.405 7  -4603765.691 7  20648212.440 0  20648213.973 0
   8070939.189 7   6289044.645 7  21889913.268 0  21889913.987 0
  -9405228.986 7  -7129857.019 6  20583559.572 0  20583561.429 0
 -17379700.382 7 -13208736.224 7  20664901.302 0  20664899.512 0
 88  3  2  6 29 59.0800000  0  4  6  8 11  9
  -5883391.214 7  -4584460.371 7  20652926.661 0  20652928.440 0
   8159744.550 7   6358243.601 7  21906812.860 0  21906814.675 0
  -9396298.498 7  -7122898.200 7  20585259.644 0  20585260.871 0
 -17438028.842 7 -13254186.993 7  20653801.315 0  20653801.740 0
 88  3  2  6 30 29.0800000  0  4  6  8 11  9
  -5858054.047 7  -4564717.132 7  20657749.576 0  20657749.472 0
   8248795.299 7   6427633.789 7  21923758.820 0  21923759.861 0
  -9386892.427 7  -7115568.782 7  20587048.703 0  20587051.089 0
 -17495932.533 7 -13299306.749 6  20642781.468 0  20642782.690 0
 88  3  2  6 30 59.0800000  0  4  6  8 11  9
  -5832154.700 7  -4544535.839 7  20662677.076 0  20662679.362 0
   8338088.347 7   6497212.782 7  21940750.413 0  21940750.825 0
  -9377012.699 6  -7107870.296 6  20588928.443 0  20588931.012 0
 -17553408.675 6 -13344093.341 6  20631843.412 0  20631846.274 0
 88  3  2  6 31 29.0800000  0  4  6  8 11  9
  -5805692.502 7  -4523915.972 7  20667712.031 0  20667714.362 0
   8427620.393 7   6566978.001 7  21957787.822 0  21957790.199 0
  -9366660.406 6  -7099803.552 6  20590899.086 0  20590900.831 0
 -17610454.609 6 -13388544.693 6  20620988.574 0  20620989.193 0
 88  3  2  6 31 59.0800000  0  4  6  8 11  9
  -5778667.169 7  -4502857.277 7  20672855.217 0  20672857.618 0
   8517388.412 7   6636927.098 7  21974869.917 0  21974870.987 0
  -9355837.138 6  -7091369.827 6  20592957.833 0  20592961.120 0
 -17667067.325 7 -13432658.516 7  20610216.307 0  20610215.751 0
 88  3  2  6 32 29.0800000  0  4  6  8 11  9
  -5751078.155 7  -4481359.345 7  20678105.819 0  20678106.941 0
   8607389.554 7   6707057.853 7  21991996.583 0  21991997.978 0
  -9344544.470 6  -7082570.348 7  20595106.643 0  20595108.965 0
 -17723244.126 7 -13476432.641 6  20599526.169 0  20599526.738 0
 88  3  2  6 32 59.0800000  0  4  6  8 11  9
  -5722924.934 7  -4459421.789 7  20683461.812 0  20683465.058 0
   8697620.410 8   6777367.604 7  22009167.566 0  22009168.878 0
  -9332784.002 6  -7073406.321 6  20597346.240 0  20597347.504 0
 -17778982.146 7 -13519864.842 6  20588918.764 0  20588919.586 0
 88  3  2  6 33 29.0800000  0  4  6  8 11  9
  -5694207.338 7  -4437044.454 7  20688927.855 0  20688929.448 0
   8788077.792 7   6847853.869 7  22026381.181 0  22026382.145 0
  -9320557.571 6  -7063879.228 7  20599671.656 0  20599674.021 0
 -17834278.424 7 -13562952.861 6  20578397.566 0  20578396.492 0
 88  3  2  6 33 59.0800000  0  4  6  8 11  9
  -5664924.754 7  -4414226.861 7  20694499.922 0  20694502.038 0
   8878758.731 8   6918514.331 7  22043636.155 0  22043637.853 0
  -9307866.738 7  -7053990.256 5  20602087.308 0  20602088.885 0
 -17889130.554 8 -13605694.774 6  20567958.930 0  20567959.206 0
 88  3  2  6 34 29.0800000  0  4  6  8 11  9
  -5635077.013 7  -4390968.891 7  20700179.859 0  20700181.192 0
   8969660.427 8   6989346.825 7  22060934.856 0  22060934.923 0
  -9294712.966 7  -7043740.553 6  20604590.789 0  20604591.426 0
 -17943535.443 7 -13648088.171 6  20557606.847 0  20557605.407 0
 88  3  2  6 34 59.0800000  0  4  6  8 11  9
  -5604663.648 7  -4367270.161 7  20705968.513 0  20705968.598 0
   9060780.049 8   7060349.137 6  22078275.305 0  22078275.586 0
  -9281097.974 7  -7033131.467 6  20607180.399 0  20607183.717 0
 -17997490.302 7 -13690130.924 6  20547338.423 0  20547338.972 0
 88  3  2  6 35 29.0800000  0  4  6  8 11  9
  -5573684.533 7  -4343130.610 7  20711862.292 0  20711864.604 0
   9152114.131 7   7131518.532 7  22095654.251 0  22095656.324 0
  -9267023.396 7  -7022164.247 6  20609859.086 0  20609861.367 0
 -18050992.267 7 -13731820.771 6  20537156.973 0  20537158.973 0
 88  3  2  6 35 59.0800000  0  4  6  8 11  9
  -5542139.411 7  -4318549.994 6  20717865.695 0  20717866.268 0
   9243659.631 7   7202852.692 7  22113075.334 0  22113075.672 0
  -9252490.992 7  -7010840.301 6  20612623.846 0  20612626.966 0
 -18104038.717 7 -13773155.667 6  20527064.251 0  20527062.358 0
 88  3  2  6 36 29.0800000  0  4  6  8 11  9
  -5510028.073 7  -4293528.184 7  20723976.774 0  20723977.366 0
   9335413.566 7   7274349.251 7  22130535.302 0  22130535.839 0
  -9237502.464 7  -6999160.924 6  20615476.838 0  20615479.852 0
 -18156626.976 7 -13814133.522 7  20517055.809 0  20517057.036 0
 88  3  2  6 36 59.0800000  0  4  6  8 11  9
  -5477350.056 7  -4268064.802 7  20730194.364 0  20730195.798 0
   9427373.370 8   7346006.231 7  22148034.475 0  22148036.242 0
  -9222059.634 7  -6987127.564 6  20618415.352 0  20618419.108 0
 -18208754.184 7 -13854752.115 5  20507136.810 0  20507137.853 0
 88  3  2  6 37 29.0800000  0  4  6  8 11  9
  -5444105.056 7  -4242159.647 6  20736521.717 0  20736522.116 0
   9519535.807 8   7417821.106 7  22165572.079 0  22165573.878 0
  -9206164.039 7  -6974741.367 6  20621440.932 0  20621443.104 0
 -18260417.738 7 -13895009.432 7  20497304.958 0  20497306.181 0
 88  3  2  6 37 59.0800000  0  4  6  8 11  9
  -5410293.488 7  -4215812.965 7  20742955.065 0  20742956.108 0
   9611897.690 7   7489791.389 7  22183148.727 0  22183148.796 0
  -9189817.458 7  -6962003.754 6  20624551.970 0  20624552.607 0
 -18311614.853 7 -13934903.285 6  20487562.309 0  20487563.297 0
 88  3  2  6 38 29.0800000  0  4  6  8 11  9
  -5375914.872 7  -4189024.448 6  20749496.509 0  20749497.517 0
   9704456.030 7   7561914.771 7  22200760.869 0  22200762.014 0
  -9173021.495 7  -6948915.995 6  20627748.162 0  20627748.827 0
 -18362342.837 7 -13974431.591 6  20477909.237 0  20477910.955 0
 88  3  2  6 38 59.0800000  0  4  6  8 11  9
  -5340969.229 7  -4161794.075 6  20756147.952 0  20756147.106 0
   9797207.631 7   7634188.732 7  22218411.554 0  22218412.949 0
  -9155778.090 7  -6935479.570 6  20631028.689 0  20631029.815 0
 -18412598.959 7 -14013592.204 6  20468346.921 0  20468346.975 0
 88  3  2  6 39 29.0800000  0  4  6  8 11  9
  -5305456.485 7  -4134121.828 6  20762904.089 0  20762906.005 0
   9890149.463 8   7706610.932 7  22236097.235 0  22236099.254 0
  -9138089.283 7  -6921696.108 7  20634392.981 0  20634396.307 0
 -18462380.646 6 -14052383.139 6  20458871.799 0  20458873.802 0
 88  3  2  6 39 59.0800000  0  4  6  8 11  9
  -5269376.316 7  -4106007.423 7  20769770.752 0  20769771.585 0
   9983279.007 8   7779179.408 7  22253820.445 0  22253821.531 0
  -9119956.250 7  -6907566.457 6  20637844.505 0  20637847.891 0
 -18511684.939 7 -14090802.065 6  20449490.492 0  20449492.150 0
 88  3  2  6 40 29.0800000  0  4  6  8 11  9
  -5232728.756 7  -4077450.903 6  20776744.920 0  20776745.990 0
  10076593.434 8   7851891.953 7  22271577.854 0  22271577.763 0
  -9101381.048 7  -6893092.249 6  20641381.186 0  20641382.206 0
 -18560509.228 7 -14128846.964 6  20440200.309 0  20440200.525 0
 88  3  2  6 40 59.0800000  0  4  6  8 11  9
  -5195513.986 7  -4048452.386 6  20783826.024 0  20783826.791 0
  10170089.298 7   7924745.866 7  22289370.318 0  22289369.653 0
  -9082365.657 7  -6878275.063 6  20644998.986 0  20645000.863 0
 -18608850.876 7 -14166515.783 6  20431000.642 0  20431001.858 0
 88  3  2  6 41 29.0800000  0  4  6  8 11  9
  -5157731.840 7  -4019011.762 7  20791015.492 0  20791016.715 0
  10263763.771 7   7997738.965 7  22307194.999 0  22307195.235 0
  -9062911.785 7  -6863116.200 6  20648701.377 0  20648702.832 0
 -18656707.110 7 -14203806.345 6  20421894.059 0  20421894.914 0
 88  3  2  6 41 59.0800000  0  4  6  8 11  9
  -5119382.504 7  -3989129.171 7  20798314.736 0  20798314.958 0
  10357613.835 7   8070868.888 7  22325053.713 0  22325055.074 0
  -9043021.307 7  -6847617.117 6  20652485.101 0  20652486.898 0
 -18704075.559 7 -14240716.831 6  20412880.418 0  20412880.790 0
 88  3  2  6 42 29.0800000  0  4  6  8 11  9
  -5080465.936 6  -3958804.575 7  20805718.299 0  20805720.070 0
  10451636.778 7   8144133.505 7  22342945.606 0  22342946.143 0
  -9022696.294 7  -6831779.454 6  20656352.147 0  20656355.931 0
 -18750953.216 6 -14277244.873 6  20403958.302 0  20403960.133 0
 88  3  2  6 42 59.0800000  0  4  6  8 11  9
  -5040982.178 7  -3928038.030 6  20813232.726 0  20813233.552 0
  10545829.877 7   8217530.735 7  22360869.590 0  22360871.475 0
  -9001938.347 7  -6815604.425 6  20660302.720 0  20660305.390 0
 -18797337.954 7 -14313388.822 6  20395132.500 0  20395133.213 0
 88  3  2  6 43 29.0800000  0  4  6  8 11  9
  -5000931.474 7  -3896829.691 6  20820854.218 0  20820855.710 0
  10640190.140 7   8291058.189 6  22378825.537 0  22378827.357 0
  -8980749.340 7  -6799093.484 7  20664334.823 0  20664337.125 0
 -18843226.673 7 -14349146.257 6  20386400.686 0  20386401.103 0
 88  3  2  6 43 59.0800000  0  4  6  8 11  9
  -4960313.820 7  -3865179.576 6  20828583.921 0  20828584.171 0
  10734714.463 7   8364713.508 7  22396812.833 0  22396814.446 0
  -8959131.246 6  -6782248.214 6  20668448.852 0  20668450.127 0
 -18888616.989 7 -14384515.355 6  20377762.040 0  20377764.264 0
 88  3  2  6 44 29.0800000  0  4  6  8 11  9
  -4919129.554 7  -3833087.948 6  20836420.472 0  20836420.904 0
  10829400.008 7   8438494.460 7  22414831.757 0  22414833.560 0
  -8937085.916 7  -6765070.040 6  20672644.793 0  20672646.334 0
 -18933506.451 7 -14419494.150 6  20369219.413 0  20369221.923 0
 88  3  2  6 44 59.0800000  0  4  6  8 11  9
  -4877378.788 7  -3800554.904 7  20844365.045 0  20844366.434 0
  10924243.750 7   8512398.667 7  22432879.897 0  22432880.085 0
  -8914615.006 7  -6747560.234 6  20676920.259 0  20676922.555 0
 -18977892.210 6 -14454080.463 5  20360772.983 0  20360774.116 0
 88  3  2  6 45 29.0800000  0  4  6  8 11  9
  -4835061.630 7  -3767580.512 7  20852417.639 0  20852418.856 0
  11019243.149 7   8586424.182 7  22450957.389 0  22450958.739 0
  -8891720.549 7  -6729720.407 6  20681275.763 0  20681279.648 0
 -19021772.024 6 -14488272.546 6  20352423.729 0  20352424.342 0
 88  3  2  6 45 59.0800000  0  4  6  8 11  9
  -4792178.476 7  -3734165.084 7  20860578.839 0  20860579.471 0
  11114395.201 7   8660568.636 7  22469064.077 0  22469064.781 0
  -8868405.019 7  -6711552.450 7  20685713.666 0  20685716.068 0
 -19065142.983 7 -14522068.095 6  20344170.491 0  20344172.626 0
 88  3  2  6 46 29.0800000  0  4  6  8 11  9
  -4748729.562 7  -3700308.791 7  20868846.776 0  20868847.568 0
  11209697.040 7   8734829.814 7  22487200.072 0  22487199.880 0
  -8844669.955 7  -6693057.575 6  20690229.729 0  20690233.084 0
 -19108002.855 7 -14555465.384 6  20336014.545 0  20336016.415 0
 88  3  2  6 46 59.0800000  0  4  6  8 11  9
  -4704715.153 7  -3666011.867 6  20877221.889 0  20877223.783 0
  11305145.870 7   8809205.516 7  22505361.943 0  22505364.385 0
  -8820517.242 6  -6674237.277 6  20694825.805 0  20694829.492 0
 -19150348.906 7 -14588462.306 6  20327958.050 0  20327957.487 0
 88  3  2  6 47 29.0800000  0  4  6  8 11  9
  -4660135.406 7  -3631274.417 6  20885705.010 0  20885707.738 0
  11400738.571 7   8883693.323 8  22523552.839 0  22523554.937 0
  -8795948.607 6  -6655092.883 6  20699501.038 0  20699503.477 0
 -19192178.741 6 -14621056.979 5  20319996.885 0  20319998.416 0
 88  3  2  6 47 59.0800000  0  4  6  8 11  9
  -4614990.839 7  -3596096.834 7  20894295.403 0  20894296.769 0
  11496472.631 8   8958291.300 7  22541770.771 0  22541772.546 0
  -8770966.474 6  -6635626.264 6  20704254.784 0  20704257.248 0
 -19233489.862 6 -14653247.468 6  20312135.582 0  20312135.375 0
 88  3  2  6 48 29.0800000  0  4  6  8 11  9
  -4569281.820 7  -3560479.418 6  20902994.263 0  20902995.042 0
  11592345.259 7   9032997.232 7  22560014.066 0  22560015.788 0
  -8745572.776 7  -6615838.958 6  20709087.031 0  20709089.761 0
 -19274279.651 7 -14685031.701 6  20304375.266 0  20304374.238 0
 88  3  2  6 48 59.0800000  0  4  6  8 11  9
  -4523008.705 7  -3524422.453 7  20911799.737 0  20911800.816 0
  11688353.479 7   9107808.828 7  22578283.941 0  22578285.811 0
  -8719769.455 7  -6595732.486 6  20713998.008 0  20714000.131 0
 -19314545.610 7 -14716407.788 6  20296710.580 0  20296711.568 0
 88  3  2  6 49 29.0800000  0  4  6  8 11  9
  -4476171.796 7  -3487926.193 7  20920712.952 0  20920713.903 0
  11784495.169 7   9182724.436 7  22596579.703 0  22596581.139 0
  -8693558.349 7  -6575308.233 6  20718986.210 0  20718987.686 0
 -19354285.487 7 -14747373.931 6  20289149.916 0  20289150.131 0
 88  3  2  6 49 59.0800000  0  4  6  8 11  9
  -4428771.714 7  -3450991.068 7  20929732.887 0  20929733.018 0
  11880766.868 6   9257741.336 7  22614898.776 0  22614900.706 0
  -8666941.288 7  -6554567.662 6  20724050.794 0  20724053.205 0
 -19393496.828 7 -14777928.217 5  20281688.201 0  20281686.398 0
 88  3  2  6 50 29.0800000  0  4  6  8 11  9
  -4380808.781 7  -3413617.371 6  20938859.355 0  20938860.388 0
  11977165.773 7   9332857.364 8  22633243.389 0  22633244.081 0
  -8639920.714 7  -6533512.677 6  20729191.479 0  20729195.703 0
 -19432177.338 6 -14808068.886 6  20274327.250 0  20274327.551 0
 88  3  2  6 50 59.0800000  0  4  6  8 11  9
  -4332283.494 7  -3375805.461 6  20948094.652 0  20948093.488 0
  12073689.403 7   9408070.585 7  22651612.176 0  22651612.721 0
  -8612498.374 7  -6512144.605 6  20734411.700 0  20734412.235 0
 -19470324.195 7 -14837793.702 6  20267068.080 0  20267068.108 0
 88  3  2  6 51 29.0800000  0  4  6  8 11  9
  -4283196.554 7  -3337555.935 6  20957433.432 0  20957435.227 0
  12170335.102 7   9483378.907 7  22670002.960 0  22670003.856 0
  -8584676.391 7  -6490465.131 6  20739704.559 0  20739707.293 0
 -19507935.373 7 -14867101.128 5  20259909.094 0  20259909.453 0
 88  3  2  6 51 59.0800000  0  4  6  8 11  9
  -4233548.277 7  -3298868.959 6  20966883.555 0  20966882.993 0
  12267099.835 7   9558779.994 7  22688418.017 0  22688417.051 0
  -8556456.754 7  -6468475.787 6  20745075.015 0  20745077.195 0
 -19545008.116 7 -14895988.975 6  20252857.153 0  20252856.517 0
 88  3  2  6 52 29.0800000  0  4  6  8 11  9
  -4183339.350 8  -3259745.137 6  20976436.635 0  20976439.040 0
  12363980.902 8   9634271.733 8  22706853.494 0  22706853.509 0
  -8527841.667 7  -6446178.304 7  20750522.392 0  20750522.048 0
 -19581540.501 7 -14924455.755 6  20245905.041 0  20245904.310 0
 88  3  2  6 52 59.0800000  0  4  6  8 11  9
  -4132570.385 7  -3220184.918 7  20986097.782 0  20986098.505 0
  12460975.524 8   9709851.973 7  22725310.657 0  22725310.605 0
  -8498832.947 7  -6423574.108 6  20756040.183 0  20756043.507 0
 -19617530.307 7 -14952499.785 6  20239055.071 0  20239057.304 0
 88  3  2  6 53 29.0800000  0  4  6  8 11  9
  -4081241.811 7  -3180188.653 6  20995865.510 0  20995866.877 0
  12558081.235 7   9785518.748 7  22743790.149 0  22743789.826 0
  -8469433.155 7  -6400665.184 6  20761635.212 0  20761638.006 0
 -19652974.575 7 -14980118.684 6  20232310.942 0  20232310.252 0
 88  3  2  6 53 59.0800000  0  4  6  8 11  9
  -4029354.498 7  -3139756.986 6  21005739.013 0  21005741.068 0
  12655295.335 8   9861269.992 7  22762288.745 0  22762289.216 0
  -8439643.981 7  -6377452.830 6  20767304.485 0  20767306.565 0
 -19687871.448 7 -15007311.059 6  20225669.450 0  20225671.168 0
 88  3  2  6 54 29.0800000  0  4  6  8 11  9
  -3976909.039 7  -3098890.415 7  21015719.232 0  21015721.674 0
  12752615.022 8   9937103.516 7  22780807.959 0  22780808.177 0
  -8409467.636 7  -6353938.793 6  20773045.091 0  20773048.822 0
 -19722218.465 6 -15034074.960 6  20219133.801 0  20219134.458 0
 88  3  2  6 54 59.0800000  0  4  6  8 11  9
  -3923905.979 7  -3057589.333 7  21025804.736 0  21025806.392 0
  12850037.572 7  10013017.178 7  22799345.775 0  22799347.260 0
  -8378906.027 7  -6330124.553 6  20778862.260 0  20778863.565 0
 -19756013.640 7 -15060408.870 6  20212703.748 0  20212704.412 0
 88  3  2  6 55 29.0800000  0  4  6  8 11  9
  -3870346.153 8  -3015854.430 6  21035996.942 0  21035998.166 0
  12947560.665 7  10089009.198 7  22817904.652 0  22817905.657 0
  -8347960.972 7  -6306011.525 7  20784751.780 0  20784752.168 0
 -19789254.389 7 -15086310.748 6  20206376.942 0  20206377.679 0
 88  3  2  6 55 59.0800000  0  4  6  8 11  9
  -3816230.278 7  -2973686.233 7  21046295.590 0  21046297.055 0
  13045181.278 7  10165077.202 7  22836479.550 0  22836482.737 0
  -8316635.075 7  -6281601.731 6  20790712.179 0  20790713.587 0
 -19821938.563 7 -15111778.952 7  20200157.910 0  20200158.405 0
 88  3  2  6 56 29.0800000  0  4  6  8 11  9
  -3761559.191 7  -2931085.401 7  21056698.765 0  21056699.706 0
  13142896.838 6  10241219.194 7  22855075.125 0  22855076.718 0
  -8284930.253 7  -6256896.663 6  20796745.835 0  20796746.711 0
 -19854063.888 7 -15136811.669 6  20194043.328 0  20194044.859 0
 88  3  2  6 56 59.0800000  0  4  6  8 11  9
  -3706333.663 7  -2888052.525 7  21067207.615 0  21067209.495 0
  13240705.073 7  10317433.395 7  22873687.215 0  22873689.507 0
  -8252848.903 7  -6231898.214 6  20802849.484 0  20802852.683 0
 -19885628.593 7 -15161407.544 5  20188037.338 0  20188038.699 0
 88  3  2  6 57 29.0800000  0  4  6  8 11  9
  -3650554.561 7  -2844588.313 7  21077823.388 0  21077824.272 0
  13338603.033 7  10393717.509 7  22892316.689 0  22892318.105 0
  -8220392.941 7  -6206607.847 7  20809026.750 0  20809027.557 0
 -19916629.987 6 -15185564.470 6  20182139.094 0  20182139.503 0
 88  3  2  6 57 59.0800000  0  4  6  8 11  9
  -3594222.594 7  -2800693.278 6  21088542.021 0  21088542.739 0
  13436588.131 7  10470069.541 7  22910963.778 0  22910963.930 0
  -8187564.429 7  -6181027.158 6  20815273.789 0  20815274.160 0
 -19947065.940 6 -15209280.812 6  20176346.526 0  20176347.408 0
 88  3  2  6 58 29.0800000  0  4  6  8 11  9
  -3537338.588 7  -2756368.092 7  21099366.420 0  21099367.615 0
  13534657.627 7  10546487.338 7  22929625.009 0  22929625.786 0
  -8154365.498 7  -6155157.868 6  20821590.700 0  20821592.405 0
 -19976934.507 7 -15232555.008 6  20170663.271 0  20170662.669 0
 88  3  2  6 58 59.0800000  0  4  6  8 11  9
  -3479903.447 7  -2711613.448 7  21110296.864 0  21110297.304 0
  13632809.402 7  10622969.261 6  22948302.282 0  22948302.274 0
  -8120798.294 7  -6129001.592 6  20827979.258 0  20827980.229 0
 -20006233.432 7 -15255385.353 6  20165086.862 0  20165087.844 0
 88  3  2  6 59 29.0800000  0  4  6  8 11  9
  -3421918.153 7  -2666430.118 6  21121330.130 0  21121331.610 0
  13731040.766 7  10699513.175 7  22966994.975 0  22966996.695 0
  -8086865.006 7  -6102560.059 6  20834435.739 0  20834437.008 0
 -20034960.821 7 -15277770.326 6  20159621.365 0  20159620.778 0
 88  3  2  6 59 59.0800000  0  4  6  8 11  9
  -3363383.700 7  -2620818.870 7  21132469.674 0  21132470.149 0
  13829348.987 7  10776117.007 7  22985703.207 0  22985703.625 0
  -8052567.748 7  -6075834.937 6  20840963.350 0  20840963.540 0
 -20063114.428 6 -15299708.213 6  20154263.784 0  20154263.923 0
 88  3  2  7  0 29.0800000  0  4  6 13 11  9
  -3304300.951 7  -2574780.379 7  21143713.246 0  21143713.405 0
         -.327 8         -.493 7  21374514.045 0          .000 0
  -8017908.621 7  -6048827.837 6  20847557.342 0  20847558.988 0
 -20090692.182 6 -15321197.357 5  20149015.792 0  20149014.674 0
 88  3  2  7  0 59.0800000  0  4  6 13 11  9
  -3244670.934 7  -2528315.438 7  21155060.183 0  21155060.996 0
    -54926.868 8  55570193.685 6  21364088.232 0  21364089.393 0
  -7982889.954 7  -6021540.546 6  20854221.225 0  20854222.583 0
 -20117691.939 7 -15342236.145 6  20143876.683 0  20143878.133 0
 88  3  2  7  1 29.0800000  0  4  6 13 11  9
  -3184494.557 6  -2481424.772 7  21166511.205 0  21166511.958 0
   -109409.156 8  55527739.977 6  21353721.304 0  21353723.809 0
  -7947513.687 7  -5993974.627 7  20860953.897 0  20860954.749 0
 -20144112.067 7 -15362823.268 6  20138848.892 0  20138852.464 0
 88  3  2  7  1 59.0800000  0  4  6 13 11  9
  -3123772.865 7  -2434109.195 7  21178065.600 0  21178066.529 0
   -163447.374 7  55485632.302 6  21343436.837 0  21343438.832 0
  -7911782.279 7  -5966131.965 6  20867751.982 0  20867754.607 0
 -20169950.183 7 -15382956.856 6  20133933.508 0  20133934.996 0
 88  3  2  7  2 29.0800000  0  4  6 13 11  9
  -3062506.895 8  -2386369.475 6  21189724.446 0  21189725.447 0
   -217041.643 7  55443870.573 7  21333238.692 0  21333240.143 0
  -7875698.090 7  -5938014.401 6  20874619.886 0  20874620.022 0
 -20195204.433 6 -15402635.495 6  20129128.248 0  20129128.183 0
 88  3  2  7  2 59.0800000  0  4  6 13 11  9
  -3000697.876 7  -2338206.611 7  21201486.521 0  21201487.204 0
   -270192.326 8  55402454.476 6  21323123.818 0  21323126.101 0
  -7839263.089 7  -5909623.485 6  20881553.691 0  20881555.297 0
 -20219872.725 6 -15421857.548 6  20124433.297 0  20124433.955 0
 88  3  2  7  3 29.0800000  0  4  6 13 11  9
  -2938346.719 7  -2289621.321 6  21213351.191 0  21213351.930 0
   -322898.525 8  55361384.751 7  21313094.742 0  21313096.038 0
  -7802479.096 7  -5880960.642 6  20888552.300 0  20888554.427 0
 -20243953.315 7 -15440621.655 6  20119849.624 0  20119852.943 0
 88  3  2  7  3 59.0800000  0  4  6 13 11  9
  -2875454.632 7  -2240614.507 7  21225319.925 0  21225319.642 0
   -375160.652 8  55320661.024 7  21303150.020 0  21303151.141 0
  -7765348.344 7  -5852027.584 6  20895618.878 0  20895619.383 0
 -20267444.145 7 -15458926.199 7  20115381.625 0  20115382.836 0
 88  3  2  7  4 29.0800000  0  4  6 13 11  9
  -2812022.864 7  -2191187.174 6  21237389.643 0  21237392.286 0
   -426978.171 7  55280283.751 6  21293288.992 0  21293290.979 0
  -7727873.370 7  -5822826.305 7  20902749.007 0  20902750.454 0
 -20290343.594 7 -15476769.926 6  20111023.517 0  20111024.826 0
 88  3  2  7  4 59.0800000  0  4  6 13 11  9
  -2748052.461 8  -2141340.123 7  21249563.533 0  21249563.819 0
   -478350.648 7  55240253.276 6  21283513.723 0  21283515.296 0
  -7690056.342 7  -5793358.495 6  20909945.775 0  20909947.028 0
 -20312649.459 6 -15494151.136 6  20106778.006 0  20106779.421 0
 88  3  2  7  5 29.0800000  0  4  6 13 11  9
  -2683544.689 7  -2091074.321 7  21261838.163 0  21261838.736 0
   -529278.284 7  55200569.414 6  21273820.762 0  21273823.209 0
  -7651899.225 7  -5763625.674 6  20917206.758 0  20917209.406 0
 -20334360.007 7 -15511068.461 6  20102647.307 0  20102648.318 0
 88  3  2  7  5 59.0800000  0  4  6 13 11  9
  -2618500.664 7  -2040390.689 6  21274215.909 0  21274216.283 0
   -579761.249 7  55161232.062 6  21264214.683 0  21264218.337 0
  -7613404.474 7  -5733629.767 6  20924532.591 0  20924534.110 0
 -20355473.372 7 -15527520.423 6  20098629.281 0  20098628.293 0
 88  3  2  7  6 29.0800000  0  4  6 13 11  9
  -2552921.761 7  -1989290.249 6  21286694.958 0  21286698.290 0
   -629799.549 7  55122241.197 7  21254693.150 0  21254695.954 0
  -7574574.078 7  -5703372.315 6  20931921.120 0  20931924.354 0
 -20375987.917 7 -15543505.786 6  20094724.702 0  20094726.099 0
 88  3  2  7  6 59.0800000  0  4  6 13 11  9
  -2486809.107 8  -1937773.912 7  21299276.000 0  21299276.554 0
   -679392.965 8  55083597.012 6  21245255.950 0  21245258.655 0
  -7535410.513 7  -5672855.239 6  20939373.256 0  20939376.907 0
 -20395901.765 6 -15559023.096 6  20090935.865 0  20090935.515 0
 88  3  2  7  7 29.0800000  0  4  6 13 11  9
  -2420164.309 7  -1885842.923 7  21311956.904 0  21311960.487 0
   -728541.565 7  55045299.432 7  21235903.532 0  21235904.979 0
  -7495915.650 7  -5642080.016 6  20946889.070 0  20946891.059 0
 -20415213.155 6 -15574070.934 6  20087260.858 0  20087262.334 0
 88  3  2  7  7 59.0800000  0  4  6 13 11  9
  -2352988.108 7  -1833497.841 7  21324741.454 0  21324741.233 0
   -777245.539 8  55007348.332 6  21226635.778 0  21226636.998 0
  -7456091.875 7  -5611048.489 7  20954468.006 0  20954469.844 0
 -20433920.412 7 -15588648.019 6  20083702.475 0  20083701.901 0
 88  3  2  7  8 29.0800000  0  4  6 13 11  9
  -2285282.365 7  -1780740.133 6  21337625.373 0  21337625.475 0
   -825504.680 7  54969743.822 6  21217452.494 0  21217453.953 0
  -7415941.579 7  -5579762.548 6  20962107.175 0  20962110.209 0
 -20452021.737 6 -15602752.939 6  20080258.185 0  20080256.734 0
 88  3  2  7  8 59.0800000  0  4  6 13 11  9
  -2217048.303 7  -1727570.750 7  21350610.334 0  21350611.088 0
   -873319.100 8  54932485.850 6  21208352.301 0  21208355.690 0
  -7375466.952 7  -5548223.856 6  20969811.411 0  20969811.250 0
 -20469515.357 7 -15616384.354 6  20076927.904 0  20076928.726 0
 88  3  2  7  9 29.0800000  0  4  6 13 11  9
  -2148287.170 7  -1673990.661 7  21363695.583 0  21363695.905 0
   -920689.281 7  54895574.043 6  21199338.646 0  21199340.991 0
  -7334670.047 7  -5516434.071 7  20977573.696 0  20977574.504 0
 -20486400.076 6 -15629541.288 6  20073715.312 0  20073716.197 0
 88  3  2  7  9 59.0800000  0  4  6 13 11  9
  -2079000.480 7  -1620001.045 6  21376879.357 0  21376881.834 0
   -967614.843 7  54859008.700 7  21190408.149 0  21190411.028 0
  -7293553.076 7  -5484394.876 7  20985397.408 0  20985400.851 0
 -20502673.719 7 -15642222.030 6  20070617.716 0  20070619.172 0
 88  3  2  7 10 29.0800000  0  4  6 13 11  9
  -2009189.776 7  -1565603.122 6  21390164.988 0  21390165.684 0
  -1014095.870 8  54822789.752 6  21181563.056 0  21181565.261 0
  -7252118.701 7  -5452108.340 6  20993283.210 0  20993284.517 0
 -20518334.835 6 -15654425.504 6  20067637.757 0  20067638.224 0
 88  3  2  7 10 59.0800000  0  4  6 13 11  9
  -1938855.885 7  -1510797.502 7  21403549.156 0  21403549.938 0
  -1060132.525 8  54786917.066 7  21172803.475 0  21172805.511 0
  -7210368.941 7  -5419576.055 6  21001226.547 0  21001227.892 0
 -20533381.931 7 -15666150.532 6  20064774.071 0  20064776.078 0
 88  3  2  7 11 29.0800000  0  4  6 13 11  9
  -1868000.915 7  -1455585.851 6  21417032.341 0  21417032.232 0
  -1105724.926 7  54751390.551 7  21164127.807 0  21164130.167 0
  -7168305.680 7  -5386799.486 7  21009232.782 0  21009234.561 0
 -20547813.136 6 -15677395.630 7  20062028.331 0  20062028.605 0
 88  3  2  7 11 59.0800000  0  4  6 13 11  9
  -1796625.958 7  -1399969.013 7  21430613.249 0  21430614.350 0
  -1150873.187 8  54716210.098 6  21155535.934 0  21155539.100 0
  -7125931.154 7  -5353780.364 6  21017295.473 0  21017296.993 0
 -20561627.197 6 -15688159.826 6  20059400.404 0  20059401.198 0
 88  3  2  7 12 29.0800000  0  4  6 13 11  9
  -1724732.782 7  -1343948.389 7  21444294.419 0  21444296.009 0
  -1195577.424 7  54681375.654 6  21147029.274 0  21147030.953 0
  -7083247.439 7  -5320520.328 6  21025416.810 0  21025419.119 0
 -20574822.456 7 -15698441.857 6  20056888.133 0  20056890.153 0
 88  3  2  7 12 59.0800000  0  4  6 13 11  9
  -1652322.846 7  -1287525.058 6  21458074.264 0  21458075.618 0
  -1239838.033 7  54646886.897 7  21138606.826 0  21138609.546 0
  -7040257.306 7  -5287021.518 6  21033597.661 0  21033600.186 0
 -20587397.516 6 -15708240.616 6  20054495.262 0  20054496.262 0
 88  3  2  7 13 29.0800000  0  4  6 13 11  9
  -1579397.675 6  -1230700.258 7  21471951.546 0  21471952.363 0
  -1283655.205 7  54612743.679 6  21130268.246 0  21130270.394 0
  -6996962.961 8  -5253285.663 7  21041837.319 0  21041839.226 0
 -20599351.008 7 -15717555.027 6  20052223.080 0  20052220.326 0
 88  3  2  7 13 59.0800000  0  4  6 13 11  9
  -1505958.903 7  -1173475.252 6  21485926.336 0  21485927.741 0
  -1327029.204 7  54578945.788 7  21122014.700 0  21122017.030 0
  -6953366.440 7  -5219314.347 7  21050132.078 0  21050136.164 0
 -20610681.265 7 -15726383.807 5  20050065.148 0  20050066.581 0
 88  3  2  7 14 29.0800000  0  4  6 13 11  9
  -1432008.060 7  -1115851.223 7  21499997.345 0  21500000.205 0
  -1369959.804 8  54545493.403 7  21113844.289 0  21113847.579 0
  -6909469.888 7  -5185109.244 7  21058488.143 0  21058488.020 0
 -20621387.032 6 -15734725.962 6  20048028.046 0  20048029.828 0
 88  3  2  7 14 59.0800000  0  4  6 13 11  9
  -1357546.704 7  -1057829.412 7  21514167.913 0  21514168.925 0
  -1412447.837 7  54512385.881 7  21105759.984 0  21105762.015 0
  -6865275.995 7  -5150672.455 6  21066896.225 0  21066898.287 0
 -20631466.891 6 -15742580.401 6  20046108.840 0  20046110.802 0
 88  3  2  7 15 29.0800000  0  4  6 13 11  9
  -1282576.525 7   -999411.106 7  21528433.842 0  21528436.248 0
  -1454493.111 7  54479623.348 6  21097758.844 0  21097761.243 0
  -6820786.714 7  -5116005.489 7  21075361.647 0  21075364.872 0
 -20640919.480 6 -15749946.077 6  20044312.228 0  20044312.879 0
 88  3  2  7 15 59.0800000  0  4  6 13 11  9
  -1207099.298 7   -940597.689 7  21542797.351 0  21542798.005 0
  -1496096.101 7  54447205.460 7  21089842.041 0  21089843.968 0
  -6776004.362 7  -5081110.154 6  21083883.750 0  21083887.586 0
 -20649743.498 6 -15756821.949 6  20042630.869 0  20042632.838 0
 88  3  2  7 16 29.0800000  0  4  6 13 11  9
  -1131116.577 7   -881390.396 6  21557255.393 0  21557257.806 0
  -1537257.595 7  54415131.583 6  21082009.315 0  21082011.963 0
  -6730931.117 7  -5045988.127 7  21092460.633 0  21092463.191 0
 -20657937.622 6 -15763206.979 6  20041073.587 0  20041073.189 0
 88  3  2  7 16 59.0800000  0  4  6 13 11  9
  -1054630.084 7   -821790.535 6  21571810.850 0  21571811.101 0
  -1577977.424 7  54383401.864 7  21074260.748 0  21074264.117 0
  -6685569.277 7  -5010641.243 7  21101093.280 0  21101096.179 0
 -20665500.542 6 -15769100.171 6  20039632.868 0  20039632.407 0
 88  3  2  7 17 29.0800000  0  4  6 13 11  9
   -977641.531 7   -761799.472 7  21586461.323 0  21586463.392 0
  -1618256.010 7  54352015.982 6  21066595.265 0  21066598.674 0
  -6639921.131 7  -4975071.251 7  21109780.734 0  21109782.238 0
 -20672431.109 7 -15774500.622 6  20038315.722 0  20038315.615 0
 88  3  2  7 17 59.0800000  0  4  6 13 11  9
   -900152.680 8   -701418.566 7  21601207.607 0  21601209.712 0
  -1658093.790 7  54320973.579 7  21059015.326 0  21059017.350 0
  -6593988.735 7  -4939279.780 7  21118521.069 0  21118522.894 0
 -20678727.825 6 -15779407.155 6  20037115.521 0  20037116.863 0
 88  3  2  7 18 29.0800000  0  4  6 13 11  9
   -822165.283 7   -640649.182 7  21616047.903 0  21616049.029 0
  -1697491.526 8  54290274.061 7  21051518.589 0  21051521.079 0
  -6547774.464 8  -4903268.656 6  21127315.013 0  21127316.144 0
 -20684389.721 7 -15783819.029 6  20036037.939 0  20036039.734 0
 88  3  2  7 18 59.0800000  0  4  6 13 11  9
   -743681.145 7   -579492.721 6  21630982.729 0  21630983.197 0
  -1736449.197 7  54259917.469 6  21044105.711 0  21044106.851 0
  -6501280.476 8  -4867039.570 6  21136162.438 0  21136163.525 0
 -20689415.582 6 -15787735.297 6  20035083.221 0  20035084.729 0
 88  3  2  7 19 29.0800000  0  4  6 13 11  9
   -664702.166 7   -517950.666 6  21646012.763 0  21646012.401 0
  -1774967.943 7  54229902.870 7  21036774.129 0  21036777.233 0
  -6454508.850 7  -4830594.154 6  21145063.592 0  21145065.544 0
 -20693804.426 6 -15791155.189 6  20034246.567 0  20034248.955 0
 88  3  2  7 19 59.0800000  0  4  6 13 11  9
   -585229.952 7   -456024.283 7  21661135.152 0  21661136.406 0
  -1813047.134 7  54200230.813 7  21029527.108 0  21029530.095 0
  -6407461.928 7  -4793934.218 6  21154015.469 0  21154016.951 0
 -20697554.900 6 -15794077.636 6  20033533.257 0  20033534.265 0
 88  3  2  7 20 29.0800000  0  4  6 13 11  9
   -505266.396 8   -393715.034 6  21676351.927 0  21676353.160 0
  -1850687.423 7  54170900.738 6  21022364.924 0  21022367.984 0
  -6360142.068 7  -4757061.595 7  21163019.952 0  21163021.496 0
 -20700665.915 7 -15796501.817 6  20032942.225 0  20032943.075 0
 88  3  2  7 20 59.0800000  0  4  6 13 11  9
   -424813.469 7   -331024.450 7  21691661.501 0  21691662.902 0
  -1887889.476 8  54141912.140 6  21015285.998 0  21015289.279 0
  -6312551.644 7  -4719978.150 7  21172076.824 0  21172078.505 0
 -20703136.579 6 -15798427.007 6  20032472.027 0  20032471.957 0
 88  3  2  7 21 29.0800000  0  4  6 13 11  9
   -343872.918 8   -267953.909 7  21707063.604 0  21707065.505 0
  -1924653.826 8  54113264.623 7  21008290.079 0  21008292.107 0
  -6264692.781 7  -4682685.531 7  21181183.562 0  21181186.048 0
 -20704965.902 6 -15799852.450 6  20032124.063 0  20032123.937 0
 88  3  2  7 21 59.0800000  0  4  6 13 11  9
   -262446.809 7   -204505.001 7  21722558.719 0  21722559.185 0
  -1960980.930 7  54084957.787 7  21001377.541 0  21001379.965 0
  -6216567.847 7  -4645185.591 6  21190341.175 0  21190343.121 0
 -20706152.706 6 -15800777.253 6  20031897.076 0  20031899.445 0
 88  3  2  7 22 29.0800000  0  4  6 13 11  9
   -180536.904 7   -140679.115 7  21738145.268 0  21738146.379 0
  -1996871.106 7  54056991.437 7  20994548.208 0  20994550.400 0
  -6168178.855 7  -4607479.863 7  21199550.280 0  21199550.566 0
 -20706695.939 6 -15801200.541 6  20031794.626 0  20031795.730 0
 88  3  2  7 22 59.0800000  0  4  6 13 11  9
    -98145.470 7    -76478.000 7  21753824.484 0  21753825.652 0
  -2032325.444 7  54029364.709 7  20987800.852 0  20987801.876 0
  -6119528.248 8  -4569570.303 7  21208807.315 0  21208808.515 0
 -20706595.027 6 -15801121.910 6  20031814.470 0  20031814.847 0
 88  3  2  7 23 29.0800000  0  4  6 13 11  9
    -15273.974 8    -11902.828 7  21769594.390 0  21769595.102 0
  -2067344.067 7  54002077.490 6  20981138.267 0  20981138.956 0
  -6070617.863 7  -4531458.339 6  21218114.460 0  21218115.315 0
 -20705848.623 7 -15800540.311 6  20031954.523 0  20031957.316 0
 88  3  2  7 23 59.0800000  0  4  6 13 11  9
     68075.527 7     53044.832 6  21785454.272 0  21785456.476 0
  -2101927.568 7  53975129.328 7  20974556.258 0  20974558.020 0
  -6021450.003 7  -4493145.727 6  21227471.522 0  21227473.120 0
 -20704455.954 6 -15799455.127 6  20032219.671 0  20032222.111 0
 88  3  2  7 24 29.0800000  0  4  6 13 11  9
    151900.064 7    118362.630 6  21801405.392 0  21801407.419 0
  -2136076.633 7  53948519.695 7  20968057.141 0  20968059.672 0
  -5972027.098 7  -4454634.346 7  21236876.353 0  21236877.252 0
 -20702416.292 6 -15797865.769 6  20032608.617 0  20032609.631 0
 88  3  2  7 24 59.0800000  0  4  6 13 11  9
    236199.359 7    184050.380 7  21817448.032 0  21817449.818 0
  -2169792.100 7  53922247.926 7  20961641.779 0  20961643.238 0
  -5922351.312 7  -4415925.944 6  21246330.053 0  21246331.166 0
 -20699728.862 6 -15795771.659 6  20033121.648 0  20033120.906 0
 88  3  2  7 25 29.0800000  0  4  6 13 11  9
    320970.416 8    250105.732 7  21833578.706 0  21833581.435 0
  -2203074.050 7  53896313.980 7  20955309.339 0  20955309.572 0
  -5872424.957 7  -4377022.302 7  21255830.167 0  21255831.988 0
 -20696392.432 6 -15793171.871 6  20033756.721 0  20033757.061 0
 88  3  2  7 25 59.0800000  0  4  6 13 11  9
    406211.291 7    316527.180 7  21849799.953 0  21849802.081 0
  -2235923.344 8  53870717.142 7  20949057.391 0  20949059.474 0
  -5822250.424 7  -4337925.250 7  21265378.486 0  21265380.317 0
 -20692406.684 6 -15790066.114 6  20034514.265 0  20034513.998 0
 88  3  2  7 26 29.0800000  0  4  6 13 11  9
    491919.902 7    383313.100 7  21866109.883 0  21866111.843 0
  -2268340.851 8  53845456.760 7  20942887.627 0  20942890.934 0
  -5771829.621 7  -4298636.319 7  21274971.940 0  21274975.192 0
 -20687770.782 6 -15786453.714 6  20035394.428 0  20035396.863 0
 88  3  2  7 26 59.0800000  0  4  6 13 11  9
    578094.121 7    450461.828 7  21882507.794 0  21882510.092 0
  -2300326.938 7  53820532.580 6  20936801.236 0  20936803.834 0
  -5721164.772 7  -4259157.210 7  21284613.269 0  21284615.432 0
 -20682483.949 7 -15782334.116 6  20036401.941 0  20036401.396 0
 88  3  2  7 27 29.0800000  0  4  6 13 11  9
    664731.834 8    517971.714 7  21898994.193 0  21898996.880 0
  -2331882.252 7  53795944.044 6  20930796.575 0  20930799.932 0
  -5670257.975 7  -4219489.591 7  21294301.142 0  21294302.833 0
 -20676545.554 6 -15777706.803 6  20037530.274 0  20037532.489 0
 88  3  2  7 27 59.0800000  0  4  6 13 11  9
    751831.131 8    585841.302 7  21915569.937 0  21915570.667 0
  -2363007.771 7  53771690.411 6  20924874.278 0  20924874.428 0
  -5619111.767 7  -4179635.426 6  21304033.642 0  21304035.623 0
 -20669954.807 6 -15772571.180 6  20038784.939 0  20038787.039 0
 88  3  2  7 28 29.0800000  0  4  6 13 11  9
    839389.691 7    654068.733 7  21932230.900 0  21932232.302 0
  -2393703.675 7  53747771.568 7  20919032.100 0  20919035.205 0
  -5567728.258 7  -4139596.310 7  21313812.281 0  21313813.807 0
 -20662711.277 6 -15766926.862 6  20040163.195 0  20040164.815 0
 88  3  2  7 28 59.0800000  0  4  6 13 11  9
    927405.465 8    722652.442 7  21948980.074 0  21948980.698 0
  -2423971.248 7  53724186.476 6  20913273.239 0  20913275.193 0
  -5516109.515 8  -4099373.925 6  21323634.758 0  21323635.826 0
 -20654813.935 7 -15760773.112 6  20041668.353 0  20041668.508 0
 88  3  2  7 29 29.0800000  0  4  6 13 11  9
   1015876.159 7    791590.653 7  21965815.274 0  21965816.905 0
  -2453811.056 7  53700934.726 6  20907593.884 0  20907596.888 0
  -5464257.945 7  -4058970.101 7  21333502.636 0  21333502.979 0
 -20646262.824 7 -15754109.920 6  20043293.933 0  20043295.128 0
 88  3  2  7 29 59.0800000  0  4  6 13 11  9
   1104799.561 7    860881.609 6  21982737.275 0  21982737.626 0
  -2483223.974 7  53678015.583 7  20901997.803 0  20902000.176 0
  -5412175.453 7  -4018386.348 7  21343412.376 0  21343414.212 0
 -20637057.134 6 -15746936.651 6  20045045.263 0  20045047.107 0
 88  3  2  7 30 29.0800000  0  4  6 13 11  9
   1194173.660 7    930523.768 7  21999744.264 0  21999744.575 0
  -2512210.736 8  53655428.538 7  20896481.380 0  20896483.267 0
  -5359864.370 7  -3977624.479 6  21353366.995 0  21353369.209 0
 -20627196.405 7 -15739252.977 6  20046921.602 0  20046922.669 0
 88  3  2  7 30 59.0800000  0  4  6 13 11  9
   1283996.183 7   1000515.348 7  22016837.972 0  22016838.571 0
  -2540771.916 7  53633173.096 6  20891045.400 0  20891048.897 0
  -5307326.893 8  -3936686.183 6  21363364.827 0  21363366.708 0
 -20616679.970 6 -15731058.361 7  20048923.617 0  20048924.618 0
 88  3  2  7 31 29.0800000  0  4  6 13 11  9
   1374264.732 7   1070854.476 7  22034014.899 0  22034016.541 0
  -2568908.792 7  53611248.288 7  20885691.374 0  20885695.464 0
  -5254565.239 7  -3895573.216 7  21373404.552 0  21373406.904 0
 -20605507.788 6 -15722352.783 6  20051049.042 0  20051050.761 0
 88  3  2  7 31 59.0800000  0  4  6 13 11  9
   1464977.207 8   1141539.519 7  22051276.482 0  22051277.149 0
  -2596621.732 7  53589653.823 7  20880418.396 0  20880419.945 0
  -5201581.580 7  -3854287.255 7  21383485.956 0  21383488.976 0
 -20593679.036 6 -15713135.582 6  20053299.405 0  20053301.547 0
 88  3  2  7 32 29.0800000  0  4  6 13 11  9
   1556131.327 7   1212568.680 6  22068622.350 0  22068623.619 0
  -2623911.384 7  53568389.173 7  20875224.060 0  20875228.503 0
  -5148378.003 7  -3812829.921 7  21393610.535 0  21393613.047 0
 -20581193.439 7 -15703406.554 6  20055677.117 0  20055678.827 0
 88  3  2  7 32 59.0800000  0  4  6 13 11  9
   1647724.788 7   1283940.203 7  22086051.689 0  22086053.129 0
  -2650778.843 7  53547453.537 7  20870112.444 0  20870114.873 0
  -5094956.708 8  -3771202.941 6  21403776.925 0  21403778.824 0
 -20568050.728 6 -15693165.485 7  20058177.607 0  20058178.987 0
 88  3  2  7 33 29.0800000  0  4  6 13 11  9
   1739755.173 7   1355652.183 7  22103564.057 0  22103566.413 0
  -2677225.089 7  53526846.082 6  20865080.436 0  20865082.807 0
  -5041319.965 7  -3729408.062 7  21413983.797 0  21413984.484 0
 -20554250.573 6 -15682412.119 6  20060804.116 0  20060803.625 0
 88  3  2  7 33 59.0800000  0  4  6 13 11  9
   1832220.471 7   1427703.027 7  22121159.815 0  22121162.265 0
  -2703251.207 7  53506566.033 7  20860127.582 0  20860128.590 0
  -4987469.870 7  -3687446.952 7  21424231.582 0  21424232.168 0
 -20539792.467 7 -15671146.081 5  20063555.409 0  20063558.419 0
 88  3  2  7 34 29.0800000  0  4  6 13 11  9
   1925118.141 7   1500090.811 7  22138837.354 0  22138840.449 0
  -2728858.053 7  53486612.664 7  20855254.379 0  20855255.910 0
  -4933408.538 7  -3645321.251 7  21434519.623 0  21434520.745 0
 -20524676.344 7 -15659367.299 6  20066432.167 0  20066431.289 0
 88  3  2  7 34 59.0800000  0  4  6 13 11  9
   2018445.797 7   1572813.647 7  22156597.460 0  22156600.507 0
  -2754046.272 7  53466985.490 6  20850462.835 0  20850464.013 0
  -4879138.298 8  -3603032.759 7  21444846.238 0  21444848.299 0
 -20508902.121 7 -15647075.692 7  20069431.738 0  20069434.638 0
 88  3  2  7 35 29.0800000  0  4  6 13 11  9
   2112201.163 7   1645869.763 7  22174439.451 0  22174441.153 0
  -2778816.822 7  53447683.785 7  20845747.581 0  20845749.857 0
  -4824661.296 7  -3560583.144 7  21455213.435 0  21455214.270 0
 -20492469.410 6 -15634270.997 6  20072559.889 0  20072560.413 0
 88  3  2  7 35 59.0800000  0  4  6 13 11  9
   2206381.789 7   1719257.275 7  22192361.128 0  22192362.103 0
  -2803170.825 7  53428706.660 7  20841112.324 0  20841114.592 0
  -5004661.796 7  -3517986.058 5          .000 0  21465620.760 0
 -20475378.264 7 -15620953.246 6  20075812.912 0  20075813.208 0
 88  3  2  7 36 29.0800000  0  4  6 13 11  9
   2300985.429 8   1792974.389 7  22210364.390 0  22210364.378 0
  -2827108.781 7  53410053.735 6  20836557.612 0  20836559.720 0
  -4893830.518 1  -3475219.216 1  21476062.534 0  21476058.423 0
 -20457628.240 6 -15607122.073 6  20079190.486 0  20079192.114 0
 88  3  2  7 36 59.0800000  0  4  6 13 11  9
   2396009.640 8   1867019.203 7  22228445.682 0  22228448.269 0
  -2850632.012 7  53391723.979 6  20832082.443 0  20832083.060 0
  -4838745.927 7  -3432296.159 7  21486544.216 0  21486547.049 0
 -20439219.318 6 -15592777.456 6  20082692.972 0  20082694.455 0
 88  3  2  7 37 29.0800000  0  4  6 13 11  9
   2491451.912 8   1941389.810 7  22246608.706 0  22246610.414 0
  -2873741.137 7  53373716.861 6  20827684.228 0  20827686.191 0
  -4783462.899 7  -3389218.450 7  21497064.382 0  21497066.663 0
 -20420151.269 6 -15577919.237 6  20086322.800 0  20086322.957 0
 88  3  2  7 37 59.0800000  0  4  6 13 11  9
   2587309.841 7   2016084.307 6  22264850.108 0  22264851.496 0
  -2896437.227 7  53356031.614 7  20823365.429 0  20823366.362 0
  -4727983.712 7  -3345987.917 7  21507622.047 0  21507624.121 0
 -20400424.305 6 -15562547.593 6  20090076.580 0  20090076.305 0
 88  3  2  7 38 29.0800000  0  4  6 13 11  9
   2683581.084 8   2091100.852 7  22283169.890 0  22283171.020 0
  -2918722.070 7  53338666.817 7  20819124.128 0  20819125.047 0
  -4672310.292 7  -3302606.025 7  21518215.247 0  21518218.755 0
 -20380038.264 6 -15546662.391 6  20093955.588 0  20093955.842 0
 88  3  2  7 38 59.0800000  0  4  6 13 11  9
   2780263.103 7   2166437.486 7  22301567.234 0  22301569.553 0
  -2940596.362 7  53321621.937 7  20814962.303 0  20814963.079 0
  -4616444.949 7  -3259074.595 7  21528847.114 0  21528848.798 0
 -20358993.252 6 -15530263.698 6  20097960.605 0  20097962.221 0
 88  3  2  7 39 29.0800000  0  4  6 13 11  9
   2877353.357 7   2242092.219 7  22320042.706 0  22320043.959 0
  -2962060.463 7  53304896.690 6  20810878.033 0  20810879.483 0
  -4560389.989 8  -3215395.388 7  21539513.621 0  21539515.990 0
 -20337289.207 6 -15513351.447 6  20102090.466 0  20102091.353 0
 88  3  2  7 39 59.0800000  0  4  6 13 11  9
   2974849.500 8   2318063.245 7  22338595.707 0  22338597.273 0
  -2983116.221 7  53288489.609 6  20806871.288 0  20806873.250 0
  -4504146.939 7  -3171569.634 7  21550217.378 0  21550218.629 0
 -20314926.414 7 -15495925.923 6  20106346.261 0  20106347.906 0
 88  3  2  7 40 29.0800000  0  4  6 13 11  9
   3072748.959 7   2394348.527 7  22357225.527 0  22357227.327 0
  -3003764.556 7  53272400.024 6  20802941.298 0  20802943.190 0
  -4447718.342 8  -3127599.304 7  21560954.459 0  21560957.249 0
 -20291904.832 6 -15477987.032 6  20110726.063 0  20110727.743 0
 88  3  2  7 40 59.0800000  0  4  6 13 11  9
   3171049.134 7   2470946.071 7  22375931.962 0  22375933.307 0
  -3024005.939 7  53256627.536 7  20799090.268 0  20799091.542 0
  -4391106.284 7  -3083486.018 6  21571727.271 0  21571729.746 0
 -20268224.646 6 -15459534.959 6  20115233.483 0  20115233.769 0
 88  3  2  7 41 29.0800000  0  4  6 13 11  9
   3269747.631 7   2547853.981 6  22394713.361 0  22394714.540 0
  -3043841.278 7  53241171.454 7  20795314.475 0  20795315.881 0
  -4334312.498 7  -3039231.113 7  21582534.425 0  21582537.061 0
 -20243885.975 6 -15440569.755 6  20119865.049 0  20119864.692 0
 88  3  2  7 41 59.0800000  0  4  6 13 11  9
   3368841.808 7   2625070.206 7  22413570.450 0  22413571.660 0
  -3063272.599 7  53226030.163 6  20791617.724 0  20791619.230 0
  -4277339.244 7  -2994836.369 7  21593375.928 0  21593378.255 0
 -20218889.002 6 -15421091.629 6  20124619.716 0  20124622.672 0
 88  3  2  7 42 29.0800000  0  4  6 13 11  9
   3468329.261 7   2702592.879 7  22432502.205 0  22432504.266 0
  -3082300.789 7  53211203.019 7  20787997.300 0  20787997.630 0
  -4220188.534 7  -2950303.355 6  21604252.708 0  21604253.769 0
 -20193234.031 7 -15401100.755 6  20129502.102 0  20129504.344 0
 88  3  2  7 42 59.0800000  0  4  6 13 11  9
   3568207.314 7   2780419.932 7  22451507.985 0  22451509.517 0
  -3100926.707 7  53196689.336 6  20784452.113 0  20784455.076 0
  -4162862.686 7  -2905633.843 7  21615160.448 0  21615162.236 0
 -20166921.301 6 -15380597.357 6  20134509.277 0  20134510.526 0
 88  3  2  7 43 29.0800000  0  4  6 13 11  9
   3668473.336 8   2858549.275 7  22470588.299 0  22470589.911 0
  -3119151.518 7  53182488.183 6  20780983.079 0  20780986.465 0
  -4105363.576 7  -2860829.340 6  21626101.436 0  21626104.962 0
 -20139950.955 6 -15359581.504 6  20139641.710 0  20139644.316 0
 88  3  2  7 43 59.0800000  0  4  6 13 11  9
   3769124.862 7   2936979.027 8  22489740.853 0  22489742.743 0
  -3136976.286 8  53168598.766 7  20777590.859 0  20777594.068 0
  -4047693.267 7  -2815891.437 7  21637076.694 0  21637079.082 0
 -20112323.474 6 -15338053.614 6  20144900.383 0  20144900.889 0
 88  3  2  7 44 29.0800000  0  4  6 13 11  9
   3870159.254 8   3015707.106 7  22508968.348 0  22508969.929 0
  -3154402.306 7  53155020.075 6  20774276.108 0  20774277.684 0
  -3989853.650 8  -2770821.601 7  21648083.493 0  21648085.436 0
 -20084039.106 6 -15316013.852 6  20150281.967 0  20150283.482 0
 88  3  2  7 44 59.0800000  0  4  6 13 11  9
   3971573.803 7   3094731.411 7  22528266.520 0  22528268.346 0
  -3171431.416 7  53141750.661 7  20771035.622 0  20771036.911 0
  -3931846.979 7  -2725621.598 7  21659120.612 0  21659124.497 0
 -20055098.436 7 -15293462.682 6  20155788.300 0  20155790.938 0
 88  3  2  7 45 29.0800000  0  4  6 13 11  9
   4073366.052 8   3174050.030 7  22547637.799 0  22547638.099 0
  -3188063.733 7  53128790.422 7  20767870.659 0  20767871.237 0
  -3873675.141 7  -2680292.887 7  21670191.733 0  21670193.200 0
 -20025501.830 6 -15270400.407 6  20161421.350 0  20161423.116 0
 88  3  2  7 45 59.0800000  0  4  6 13 11  9
   4175533.248 8   3253660.824 7  22567078.418 0  22567079.413 0
  -3204300.775 7  53116138.192 6  20764780.618 0  20764782.610 0
  -3815340.381 8  -2634837.230 7  21681293.005 0  21681294.536 0
 -19995249.529 6 -15246827.200 6  20167177.022 0  20167179.473 0
 88  3  2  7 46 29.0800000  0  4  6 13 11  9
   4278072.803 8   3333561.747 7  22586591.278 0  22586593.082 0
  -3220144.018 8  53103792.833 7  20761766.817 0  20761766.903 0
  -3756844.605 7  -2589256.105 7  21692423.744 0  21692425.399 0
 -19964342.278 6 -15222743.635 6  20173060.704 0  20173061.072 0
 88  3  2  7 46 59.0800000  0  4  6 13 11  9
   4380981.927 7   3413750.673 7  22606174.847 0  22606174.956 0
  -3235594.601 7  53091753.417 7  20758825.795 0  20758826.154 0
  -3698189.887 7  -2543551.131 7  21703585.540 0  21703585.880 0
 -19932780.227 6 -15198149.832 6  20179064.976 0  20179066.145 0
 88  3  2  7 47 29.0800000  0  4  6 13 11  9
   4484258.069 8   3494225.584 6  22625826.972 0  22625827.852 0
  -3250653.631 7  53080019.116 7  20755960.034 0  20755961.484 0
  -3639378.070 7  -2497723.752 7  21714776.286 0  21714778.187 0
 -19900564.069 6 -15173046.357 7  20185194.805 0  20185195.851 0
 88  3  2  7 47 59.0800000  0  4  6 13 11  9
   4587898.518 7   3574984.367 7  22645549.890 0  22645550.119 0
  -3265322.388 7  53068588.914 6  20753168.230 0  20753171.495 0
  -3580411.565 7  -2451775.817 7  21725997.154 0  21725999.308 0
 -19867694.615 6 -15147433.800 6  20191451.466 0  20191452.590 0
 88  3  2  7 48 29.0800000  0  4  3 13 11  9
         -.390 7         -.133 7  24075630.793 0          .000 0
  -3279602.340 7  53057461.698 6  20750451.607 0  20750452.588 0
  -3521291.810 7  -2405708.477 7  21737247.497 0  21737249.724 0
 -19834172.381 6 -15121312.608 6  20197830.097 0  20197832.515 0
 88  3  2  7 48 59.0800000  0  4  3 13 11  9
    -77689.945 7  84742937.606 7  24060880.558 0  24060882.282 0
  -3293494.580 7  53046636.584 6  20747807.489 0  20747808.560 0
  -3462020.665 8  -2359523.167 7  21748527.608 0  21748526.996 0
 -19799997.873 6 -15094683.130 6  20204332.874 0  20204335.341 0
 88  3  2  7 49 29.0800000  0  4  3 13 11  9
   -155155.560 6  84682574.856 7  24046138.752 0  24046141.974 0
  -3307000.380 7  53036112.604 6  20745237.370 0  20745238.796 0
  -3402600.359 7  -2313221.624 7  21759833.801 0  21759835.638 0
 -19765172.012 7 -15067546.123 6  20210960.643 0  20210960.536 0
 88  3  2  7 49 59.0800000  0  4  3 13 11  9
   -232395.867 7  84622387.620 6  24031441.871 0  24031443.803 0
  -3320120.745 7  53025888.963 6  20742741.446 0  20742741.259 0
  -3343032.965 7  -2266805.478 7  21771169.371 0  21771171.555 0
 -19729695.288 6 -15039901.923 6  20217710.067 0  20217712.901 0
 88  3  2  7 50 29.0800000  0  4  3 13 11  9
   -309410.326 6  84562376.396 7  24016785.498 0  24016787.762 0
  -3332857.254 8  53015964.420 6  20740316.504 0  20740318.272 0
  -3283320.450 7  -2220276.237 7  21782533.248 0  21782534.171 0
 -19693568.152 6 -15011750.927 6  20224585.997 0  20224587.949 0
 88  3  2  7 50 59.0800000  0  4  3 13 11  9
   -386198.928 7  84502541.135 7  24002173.031 0  24002176.333 0
  -3345211.477 8  53006337.768 7  20737966.526 0  20737967.506 0
  -3223464.324 8  -2173635.107 7  21793923.480 0  21793924.142 0
 -19656791.796 6 -14983094.052 6  20231582.538 0  20231585.822 0
 88  3  2  7 51 29.0800000  0  4  3 13 11  9
   -462761.912 6  84442881.688 6  23987602.671 0  23987606.502 0
  -3357184.314 7  52997008.298 7  20735688.162 0  20735689.712 0
  -3163467.156 7  -2126884.074 7  21805339.023 0  21805341.194 0
 -19619366.644 6 -14953931.601 6  20238706.026 0  20238706.318 0
 88  3  2  7 51 59.0800000  0  4  3 13 11  9
   -539098.550 6  84383398.603 6  23973077.635 0  23973078.963 0
  -3368777.265 7  52987974.846 7  20733482.261 0  20733483.651 0
  -3103330.646 7  -2080024.446 7  21816783.988 0  21816784.910 0
 -19581293.605 6 -14924264.323 5  20245950.263 0  20245952.792 0
 88  3  2  7 52 29.0800000  0  4  3 13 11  9
   -615208.132 7  84324092.440 6  23958594.392 0  23958596.070 0
  -3379991.888 8  52979236.178 6  20731347.714 0  20731349.300 0
  -3043056.552 7  -2033057.640 7  21828252.849 0  21828254.357 0
 -19542573.605 7 -14894092.900 6  20253318.573 0  20253320.564 0
 88  3  2  7 52 59.0800000  0  4  3 13 11  9
   -691090.664 7  84264963.240 6  23944153.744 0  23944157.107 0
  -3390829.021 7  52970791.673 7  20729285.069 0  20729287.570 0
  -2982647.116 7  -1985985.356 7  21839747.610 0  21839749.562 0
 -19503207.506 6 -14863418.027 6  20260811.696 0  20260812.512 0
 88  3  2  7 53 29.0800000  0  4  3 13 11  9
   -766746.033 6  84206011.014 6  23929754.251 0  23929759.979 0
  -3401290.120 8  52962640.183 6  20727294.153 0  20727296.650 0
  -2922104.156 7  -1938809.018 7  21851268.972 0  21851270.551 0
 -19463196.275 6 -14832240.465 6  20268424.316 0  20268426.136 0
 88  3  2  7 53 59.0800000  0  4  3 13 11  9
   -842173.391 6  84147236.464 6  23915405.056 0  23915406.263 0
  -3411376.815 7  52954780.420 6  20725375.130 0  20725376.567 0
  -2861429.474 7  -1891530.051 7  21862815.445 0  21862816.410 0
 -19422540.737 6 -14800560.841 6  20276160.711 0  20276161.620 0
 88  3  2  7 54 29.0800000  0  4  3 13 11  9
   -917372.921 6  84088639.443 6  23901093.811 0  23901096.135 0
  -3421090.311 7  52947211.501 6  20723527.372 0  20723527.685 0
  -2800624.922 8  -1844149.867 7  21874385.632 0  21874387.771 0
 -19381241.957 7 -14768379.994 6  20284019.953 0  20284021.361 0
 88  3  2  7 54 59.0800000  0  4  3 13 11  9
   -992343.983 7  84030220.423 7  23886829.092 0  23886831.094 0
  -3430432.453 8  52939931.898 6  20721748.715 0  20721750.266 0
  -2739692.605 7  -1796670.157 7  21885980.456 0  21885981.791 0
 -19339300.781 6 -14735698.570 7  20292000.464 0  20292001.817 0
 88  3  2  7 55 29.0800000  0  4  3 13 11  9
  -1067086.479 7  83971979.555 7  23872604.068 0  23872606.773 0
  -3439404.194 7  52932940.967 6  20720042.066 0  20720043.155 0
  -2678634.233 7  -1749092.202 6  21897598.989 0  21897600.886 0
 -19296718.366 7 -14702517.484 6  20300105.658 0  20300105.437 0
 88  3  2  7 55 59.0800000  0  4  3 13 11  9
  -1141600.171 7  83913916.944 6  23858426.082 0  23858427.050 0
  -3448006.711 7  52926237.700 6  20718404.481 0  20718407.042 0
  -2617451.502 7  -1701417.350 7  21909242.452 0  21909244.161 0
 -19253495.707 7 -14668837.508 5  20308328.589 0  20308330.101 0
 88  3  2  7 56 29.0800000  0  4  3 13 11  9
  -1215884.999 7  83856032.687 7  23844288.259 0  23844291.939 0
  -3456241.562 7  52919820.945 6  20716837.264 0  20716839.760 0
  -2556146.456 7  -1653647.184 7  21920909.066 0  21920909.215 0
 -19209633.720 6 -14634659.330 6  20316674.532 0  20316676.817 0
 88  3  2  7 56 59.0800000  0  4  3 13 11  9
  -1289940.314 8  83798327.249 7  23830197.627 0  23830199.058 0
  -3464110.438 7  52913689.372 6  20715340.077 0  20715342.585 0
  -2494720.696 7  -1605782.965 6  21932598.418 0  21932598.081 0
 -19165133.885 7 -14599984.141 6  20325145.006 0  20325145.816 0
 88  3  2  7 57 29.0800000  0  4  3 13 11  9
  -1363766.291 7  83740800.529 6  23816148.343 0  23816150.731 0
  -3471614.768 7  52907841.856 7  20713912.809 0  20713912.923 0
  -2433176.318 7  -1557826.317 7  21944309.218 0  21944310.900 0
 -19119997.055 6 -14564812.600 6  20333732.809 0  20333735.802 0
 88  3  2  7 57 59.0800000  0  4  3 13 11  9
  -1437362.530 7  83683452.808 7  23802143.429 0  23802144.801 0
  -3478755.404 7  52902277.749 6  20712554.016 0  20712554.418 0
  -2371515.429 7  -1509778.887 7  21956043.686 0  21956045.210 0
 -19074224.431 7 -14529145.632 6  20342443.140 0  20342445.315 0
 88  3  2  7 58 29.0800000  0  4  3 13 11  9
  -1510728.666 7  83626284.417 7  23788182.301 0  23788184.204 0
  -3485534.196 8  52896995.576 6  20711263.290 0  20711265.894 0
  -2309739.552 7  -1461641.831 7  21967798.544 0  21967799.239 0
 -19027817.260 7 -14492984.235 6  20351274.399 0  20351276.507 0
 88  3  2  7 58 59.0800000  0  4  3 13 11  9
  -1583864.377 7  83569295.570 7  23774264.788 0  23774266.633 0
  -3491952.309 8  52891994.444 7  20710041.869 0  20710045.006 0
  -2247850.484 7  -1413416.599 7  21979575.510 0  21979577.165 0
 -18980776.813 7 -14456329.335 6  20360226.479 0  20360227.082 0
 88  3  2  7 59 29.0800000  0  4  3 13 11  9
  -1656770.045 7  83512485.987 7  23760392.369 0  23760392.812 0
  -3498011.519 7  52887273.006 6  20708889.280 0  20708891.351 0
  -2185849.991 7  -1365104.519 7  21991374.442 0  21991375.293 0
 -18933104.302 7 -14419181.934 6  20369298.142 0  20369299.314 0
 88  3  2  7 59 59.0800000  0  4  3 13 11  9
  -1729445.410 8  83455855.836 7  23746562.027 0  23746564.049 0
  -3503713.613 7  52882829.828 6  20707803.826 0  20707805.596 0
  -2123739.913 7  -1316707.060 7  22003192.819 0  22003194.287 0
 -18884800.928 6 -14381542.960 6  20378489.814 0  20378489.564 0
 88  3  2  8  0 29.0800000  0  4  3 13 11  9
  -1801890.035 7  83399405.527 6  23732776.869 0  23732777.471 0
  -3509059.876 7  52878663.936 6  20706787.014 0  20706788.236 0
  -2061521.782 7  -1268225.415 6  22015032.316 0  22015034.798 0
 -18835868.293 7 -14343413.640 5  20387801.098 0  20387802.850 0
 88  3  2  8  0 59.0800000  0  4  3 13 11  9
  -1874103.498 6  83343135.302 7  23719035.268 0  23719035.953 0
  -3514051.454 7  52874774.415 6  20705837.047 0  20705837.385 0
  -1999197.693 7  -1219661.192 7  22026891.216 0  22026895.604 0
 -18786307.185 7 -14304794.616 6  20397232.222 0  20397233.177 0
 88  3  2  8  1 29.0800000  0  4  3 13 11  9
  -1946085.809 7  83287045.236 7  23705337.613 0  23705338.201 0
  -3518690.174 7  52871159.846 6  20704954.076 0  20704954.624 0
  -1936769.490 7  -1171015.847 7  22038772.397 0  22038775.009 0
 -18736119.386 6 -14265687.252 5  20406783.646 0  20406783.529 0
 88  3  2  8  1 59.0800000  0  4  3 13 11  9
  -2017837.175 6  83231135.099 7  23691682.445 0  23691684.607 0
  -3522977.473 7  52867819.095 7  20704139.233 0  20704139.815 0
  -1874238.569 7  -1122290.461 7  22050671.279 0  22050672.847 0
 -18685306.138 7 -14226092.518 7  20416453.540 0  20416452.960 0
 88  3  2  8  2 29.0800000  0  4  3 13 11  9
  -2089357.172 7  83175405.236 7  23678071.356 0  23678075.535 0
  -3526915.009 7  52864750.882 7  20703388.948 0  20703390.275 0
  -1811606.989 7  -1073486.627 7  22062589.832 0  22062592.118 0
 -18633868.826 7 -14186011.512 6  20426239.857 0  20426242.658 0
 88  3  2  8  2 59.0800000  0  4  3 13 11  9
  -2160645.806 6  83119855.692 7  23664507.719 0  23664508.948 0
  -3530504.343 7  52861954.004 6  20702706.629 0  20702707.931 0
  -1748876.470 7  -1024605.723 6  22074525.576 0  22074528.959 0
 -18581809.067 7 -14145445.486 6  20436146.704 0  20436148.356 0
 88  3  2  8  3 29.0800000  0  4  3 13 11  9
  -2231703.446 7  83064486.123 7  23650984.284 0  23650987.965 0
  -3533746.448 7  52859427.696 6  20702088.864 0  20702091.286 0
  -1686048.585 7   -975648.936 7  22086482.566 0  22086485.032 0
 -18529128.371 7 -14104395.604 5  20446172.514 0  20446173.127 0
 88  3  2  8  3 59.0800000  0  4  3 13 11  9
  -2302529.364 6  83009297.124 7  23637507.055 0  23637509.908 0
  -3536643.242 7  52857170.462 7  20701538.520 0  20701539.595 0
  -1623125.194 8   -926617.727 7  22098456.384 0  22098458.939 0
 -18475828.098 7 -14062862.934 6  20456315.365 0  20456316.161 0
 88  3  2  8  4 29.0800000  0  4  3 13 11  9
  -2373123.304 6  82954288.890 7  23624073.372 0  23624076.233 0
  -3539196.277 7  52855181.091 6  20701051.951 0  20701053.344 0
  -1560107.995 7   -877513.434 6  22110448.904 0  22110450.930 0
 -18421909.848 7 -14020848.723 6  20466575.870 0  20466576.660 0
 88  3  2  8  4 59.0800000  0  4  3 13 11  9
  -2443485.492 7  82899461.223 7  23610684.140 0  23610686.678 0
  -3541406.795 7  52853458.631 6  20700630.234 0  20700633.459 0
  -1496998.603 7   -828337.272 7  22122458.423 0  22122460.293 0
 -18367375.283 7 -13978354.269 6  20476952.826 0  20476955.302 0
 88  3  2  8  5 29.0800000  0  4  3 13 11  9
  -2513616.025 7  82844814.076 6  23597340.132 0  23597342.041 0
  -3543276.718 7  52852001.554 6  20700274.839 0  20700276.933 0
  -1433798.898 7   -779090.757 7  22134484.627 0  22134486.709 0
 -18312225.813 7 -13935380.663 6  20487448.318 0  20487447.937 0
 88  3  2  8  5 59.0800000  0  4  3 13 11  9
  -2583514.696 7  82790347.602 7  23584037.927 0  23584039.353 0
  -3544807.550 7  52850808.709 6  20699984.223 0  20699985.578 0
  -1370510.397 7   -729775.064 7  22146528.488 0  22146530.068 0
 -18256462.996 6 -13891929.139 6  20498058.835 0  20498060.313 0
 88  3  2  8  6 29.0800000  0  4  3 13 11  9
  -2653181.250 7  82736061.974 7  23570780.564 0  23570782.915 0
  -3546001.144 7  52849878.631 6  20699757.013 0  20699758.517 0
  -1307134.763 7   -680391.473 7  22158588.120 0  22158590.286 0
 -18200088.796 7 -13848001.191 6  20508786.946 0  20508786.382 0
 88  3  2  8  6 59.0800000  0  4  3 13 11  9
  -2722615.895 6  82681957.076 6  23557568.810 0  23557569.210 0
  -3546858.338 7  52849210.705 6  20699593.987 0  20699595.380 0
  -1243673.584 7   -630941.203 7  22170664.590 0  22170666.099 0
 -18143104.344 7 -13803597.739 6  20519629.996 0  20519630.743 0
 88  3  2  8  7 29.0800000  0  4  3 13 11  9
  -2791818.925 7  82628032.627 7  23544397.992 0  23544401.671 0
  -3547381.073 7  52848803.374 7  20699493.315 0  20699496.723 0
  -1180128.910 7   -581425.865 6  22182756.875 0  22182758.569 0
 -18085511.852 7 -13758720.483 6  20530590.509 0  20530591.467 0
 88  3  2  8  7 59.0800000  0  4  3 13 11  9
  -2860789.507 7  82574289.356 7  23531275.318 0  23531275.567 0
  -3547570.951 7  52848655.437 6  20699457.440 0  20699459.819 0
  -1116501.882 7   -531846.369 6  22194864.956 0  22194866.380 0
 -18027312.515 7 -13713370.355 6  20541664.215 0  20541665.679 0
 88  3  2  8  8 29.0800000  0  4  3 13 11  9
  -2929527.775 7  82520727.057 6  23518193.986 0  23518195.171 0
  -3547429.371 7  52848765.766 6  20699484.615 0  20699486.577 0
  -1052794.191 8   -482204.015 6  22206988.077 0  22206988.324 0
 -17968508.781 7 -13667549.271 6  20552854.214 0  20552856.033 0
 88  3  2  8  8 59.0800000  0  4  3 13 11  9
  -2998034.007 7  82467345.579 7  23505158.284 0  23505158.161 0
  -3546957.801 7  52849133.248 6  20699574.534 0  20699576.682 0
   -989007.859 8   -432500.381 7  22219126.206 0  22219126.728 0
 -17909101.813 7 -13621258.149 6  20564159.001 0  20564161.905 0
 88  3  2  8  9 29.0800000  0  4  3 13 11  9
  -3066308.011 7  82414145.062 7  23492165.903 0  23492166.296 0
  -3546158.318 7  52849756.220 6  20699727.307 0  20699727.999 0
   -925144.187 8   -382736.497 7  22231278.588 0  22231280.555 0
 -17849093.716 7 -13574498.588 6  20575578.388 0  20575577.877 0
 88  3  2  8  9 59.0800000  0  4  3 13 11  9
  -3134349.960 7  82361125.355 6  23479217.508 0  23479219.876 0
  -3545032.549 7  52850633.446 7  20699940.669 0  20699943.768 0
   -861204.958 7   -332913.725 7  22243445.709 0  22243447.606 0
 -17788486.100 6 -13527271.891 6  20587111.943 0  20587111.678 0
 88  3  2  8 10 29.0800000  0  4  3 13 11  9
  -3202160.185 7  82308286.211 6  23466314.074 0  23466314.667 0
  -3543581.670 7  52851763.987 7  20700217.200 0  20700219.371 0
   -797191.787 7   -283033.321 7  22255626.982 0  22255629.079 0
 -17727281.165 6 -13479579.751 6  20598758.665 0  20598760.026 0
 88  3  2  8 10 59.0800000  0  4  3 13 11  9
  -3269738.386 7  82255627.873 7  23453453.138 0  23453456.915 0
  -3541807.646 7  52853146.343 7  20700554.087 0  20700556.519 0
   -733105.876 7   -233096.268 7  22267822.236 0  22267823.688 0
 -17665480.545 7 -13431423.430 6  20610517.855 0  20610519.269 0
 88  3  2  8 11 29.0800000  0  4  3 13 11  9
  -3337084.767 7  82203150.184 6  23440639.363 0  23440638.992 0
  -3539712.013 7  52854779.299 6  20700952.574 0  20700954.401 0
   -668948.977 7   -183103.883 7  22280031.482 0  22280033.204 0
 -17603085.994 7 -13382804.293 6  20622391.512 0  20622392.541 0
 88  3  2  8 11 59.0800000  0  4  3 13 11  9
  -3404199.651 8  82150852.884 7  23427866.394 0  23427868.592 0
  -3537296.703 7  52856661.355 7  20701413.620 0  20701413.857 0
   -604722.783 7   -133057.496 7  22292253.737 0  22292253.545 0
 -17540099.639 7 -13333724.041 6  20634378.280 0  20634378.971 0
 88  3  2  8 12 29.0800000  0  4  3 13 11  9
  -3471082.643 7  82098736.251 6  23415138.990 0  23415142.139 0
  -3534562.792 7  52858791.668 7  20701932.896 0  20701934.566 0
   -540428.846 7    -82958.315 7  22304487.792 0  22304489.379 0
 -17476523.405 7 -13284184.139 6  20646476.506 0  20646477.094 0
 88  3  2  8 12 59.0800000  0  4  3 13 11  9
  -3537734.104 8  82046800.065 7  23402457.113 0  23402458.909 0
  -3531512.109 7  52861168.838 6  20702513.392 0  20702516.094 0
   -476068.638 7    -32807.523 7  22316734.793 0  22316736.747 0
 -17412359.278 7 -13234186.121 7  20658687.953 0  20658687.777 0
 88  3  2  8 13 29.0800000  0  4  3 13 11  9
  -3604153.633 7  81995044.594 6  23389817.046 0  23389819.485 0
  -3528145.826 7  52863791.901 6  20703154.304 0  20703155.229 0
   -411643.720 8     17393.706 7  22328994.052 0  22328995.882 0
 -17347609.236 7 -13183731.551 7  20671008.241 0  20671009.976 0
 88  3  2  8 13 59.0800000  0  4  3 13 11  9
  -3670341.795 7  81943469.411 7  23377221.593 0  23377223.134 0
  -3524466.551 8  52866658.886 6  20703854.280 0  20703856.054 0
   -347155.589 7     67644.201 7  22341265.814 0  22341266.390 0
 -17282275.333 7 -13132822.024 6  20683441.250 0  20683440.835 0
 88  3  2  8 14 29.0800000  0  4  3 13 11  9
  -3736298.545 7  81892074.572 6  23364669.463 0  23364671.817 0
  -3520475.088 7  52869769.123 7  20704614.443 0  20704616.619 0
   -282605.769 7    117942.745 7  22353550.090 0  22353550.288 0
 -17216359.582 7 -13081459.122 6  20695983.840 0  20695985.860 0
 88  3  2  8 14 59.0800000  0  4  3 13 11  9
  -3802023.962 7  81840859.981 6  23352163.010 0  23352164.820 0
  -3516173.232 7  52873121.214 6  20705433.187 0  20705434.388 0
   -217995.707 7    168288.243 7  22365844.131 0  22365845.735 0
 -17149863.955 7 -13029644.363 6  20708637.151 0  20708638.516 0
 88  3  2  8 15 29.0800000  0  4  3 13 11  9
  -3867517.744 7  81789825.862 7  23339699.864 0  23339703.168 0
  -3511563.075 7  52876713.532 6  20706309.999 0  20706311.960 0
   -153327.134 8    218679.319 7  22378150.655 0  22378152.221 0
 -17082790.687 7 -12977379.497 6  20721401.142 0  20721402.319 0
 88  3  2  8 15 59.0800000  0  4  3 13 11  9
  -3932780.473 6  81738971.830 7  23327279.124 0  23327281.766 0
  -3506645.957 7  52880545.064 6  20707244.537 0  20707247.109 0
    -88600.895 7    269115.318 7  22390468.216 0  22390468.887 0
 -17015141.916 7 -12924666.179 7  20734274.545 0  20734276.290 0
 88  3  2  8 16 29.0800000  0  4  3 13 11  9
  -3997812.339 6  81688297.640 7  23314903.228 0  23314907.528 0
  -3501423.608 7  52884614.422 6  20708239.969 0  20708240.798 0
    -23819.143 8    319594.623 7  22402795.158 0  22402796.460 0
 -16946919.666 7 -12871505.970 6  20747256.545 0  20747256.929 0
 88  3  2  8 16 59.0800000  0  4  3 13 11  9
  -4062613.448 5  81637803.320 6  23302573.548 0  23302576.069 0
  -3495897.559 8  52888920.450 6  20709291.009 0  20709292.952 0
     41016.978 8    370116.269 6  22415132.429 0  22415134.504 0
 -16878126.244 7 -12817900.719 6  20760347.462 0  20760348.886 0
 88  3  2  8 17 29.0800000  0  4  3 13 11  9
  -4127183.825 6  81587488.764 6  23290286.428 0  23290289.347 0
  -3490069.796 7  52893461.577 6  20710401.032 0  20710402.207 0
    105905.629 7    420678.860 7  22427480.708 0  22427481.828 0
 -16808763.450 7 -12763851.798 6  20773546.729 0  20773548.353 0
 88  3  2  8 17 59.0800000  0  4  3 13 11  9
  -4191523.440 7  81537354.040 7  23278044.483 0  23278046.679 0
  -3483941.686 7  52898236.727 6  20711566.489 0  20711567.775 0
    170845.797 7    471281.585 7  22439838.762 0  22439839.811 0
 -16738833.973 7 -12709361.301 6  20786852.828 0  20786854.732 0
 88  3  2  8 18 29.0800000  0  4  3 13 11  9
  -4255632.688 7  81487398.813 7  23265844.321 0  23265845.775 0
  -3477515.037 8  52903244.521 6  20712789.380 0  20712789.951 0
    235835.915 8    521923.235 7  22452206.275 0  22452207.094 0
 -16668339.851 7 -12654430.852 6  20800268.039 0  20800269.889 0
 88  3  2  8 18 59.0800000  0  4  3 13 11  9
  -4319512.080 6  81437622.692 7  23253687.393 0  23253690.613 0
  -3470791.309 7  52908483.793 6  20714068.052 0  20714069.924 0
    300874.681 7    572602.771 7  22464583.677 0  22464583.433 0
 -16597283.258 7 -12599062.096 7  20813790.304 0  20813791.631 0
 88  3  2  8 19 29.0800000  0  4  3 13 11  9
  -4383161.796 6  81388025.522 7  23241575.614 0  23241579.027 0
  -3463772.098 7  52913953.302 6  20715404.588 0  20715406.174 0
    365960.583 8    623319.067 7  22476968.358 0  22476969.135 0
 -16525666.153 7 -12543256.584 6  20827418.022 0  20827420.260 0
 88  3  2  8 19 59.0800000  0  4  3 13 11  9
  -4446581.249 6  81338607.797 7  23229508.573 0  23229509.696 0
  -3456459.009 7  52919651.802 6  20716796.761 0  20716796.315 0
    431092.416 7    674071.124 7  22489362.200 0  22489364.215 0
 -16453491.597 7 -12487016.674 6  20841154.164 0  20841153.103 0
 88  3  2  8 20 29.0800000  0  4  3 13 11  9
  -4509771.020 7  81289369.036 7  23217483.723 0  23217484.462 0
  -3448854.228 7  52925577.606 6  20718244.852 0  20718244.708 0
    496268.541 8    724857.732 7  22501764.520 0  22501766.029 0
 -16380761.369 8 -12430343.765 7  20854993.911 0  20854994.220 0
 88  3  2  8 20 59.0800000  0  4  3 13 11  9
  -4572731.462 7  81240308.961 7  23205503.074 0  23205505.592 0
  -3440958.953 8  52931729.765 6  20719745.689 0  20719747.032 0
    561487.773 8    775677.897 7  22514175.502 0  22514175.835 0
 -16307478.014 7 -12373239.875 6  20868939.049 0  20868939.791 0
 88  3  2  8 21 29.0800000  0  4  3 13 11  9
  -4635462.775 7  81191427.439 6  23193565.250 0  23193567.371 0
  -3432775.082 7  52938106.812 6  20721302.213 0  20721303.932 0
    626748.634 7    826530.514 6  22526595.077 0  22526595.135 0
 -16233643.867 7 -12315706.788 7  20882988.928 0  20882989.891 0
 88  3  2  8 21 59.0800000  0  4  3 13 11  9
  -4697965.274 7  81142724.201 7  23181671.460 0  23181672.278 0
  -3424304.472 8  52944707.295 6  20722913.945 0  20722915.345 0
    692049.585 8    877414.376 7  22539021.039 0  22539021.965 0
 -16159261.258 7 -12257746.327 6  20897143.294 0  20897145.378 0
 88  3  2  8 22 29.0800000  0  4  3 13 11  9
  -4760239.204 7  81094199.086 6  23169820.230 0  23169821.603 0
  -3415548.675 7  52951530.019 7  20724580.680 0  20724581.739 0
    757389.676 7    928328.724 7  22551454.314 0  22551455.770 0
 -16084332.564 7 -12199360.347 7  20911401.193 0  20911403.518 0
 88  3  2  8 22 59.0800000  0  4  3 13 11  9
  -4822284.728 7  81045851.930 6  23158012.931 0  23158015.958 0
  -3406509.542 7  52958573.492 6  20726300.846 0  20726302.334 0
    822767.287 7    979272.305 7  22563894.773 0  22563895.969 0
 -16008860.305 7 -12140550.828 7  20925763.399 0  20925764.891 0
 88  3  2  8 23 29.0800000  0  4  3 13 11  9
  -4884102.195 7  80997682.501 6  23146250.304 0  23146252.400 0
  -3397188.421 7  52965836.704 6  20728074.704 0  20728076.491 0
    888181.162 7   1030244.165 7  22576343.237 0  22576344.009 0
 -15932846.854 7 -12081319.569 6  20940228.107 0  20940229.689 0
 88  3  2  8 23 59.0800000  0  4  3 13 11  9
  -4945691.845 7  80949690.575 6  23134530.305 0  23134530.303 0
  -3387586.885 7  52973318.437 6  20729901.815 0  20729902.559 0
    953630.070 7   1081243.293 7  22588796.821 0  22588798.669 0
 -15856294.770 7 -12021668.634 7  20954796.701 0  20954798.657 0
 88  3  2  8 24 29.0800000  0  4  3 13 11  9
  -5007053.807 7  80901876.074 6  23122853.729 0  23122855.054 0
  -3377706.901 8  52981017.124 6  20731781.645 0  20731783.646 0
   1019112.740 7   1132268.760 7  22601258.553 0  22601259.534 0
 -15779206.665 7 -11961599.989 7  20969465.270 0  20969466.778 0
 88  3  2  8 24 59.0800000  0  4  3 13 11  9
  -5068188.632 8  80854238.551 6  23111219.650 0  23111221.958 0
  -3367550.556 8  52988931.159 6  20733714.043 0  20733717.047 0
   1084627.673 8   1183319.358 7  22613725.333 0  22613727.383 0
 -15701584.715 7 -11901115.351 6  20984236.379 0  20984237.206 0
 88  3  2  8 25 29.0800000  0  4  3 13 11  9
  -5129096.421 7  80806777.933 7  23099629.748 0  23099630.872 0
  -3357118.967 7  52997059.666 7  20735699.531 0  20735701.019 0
   1150173.554 7   1234394.083 7  22626198.370 0  22626201.115 0
 -15623431.420 6 -11840216.685 6  20999109.174 0  20999109.126 0
 88  3  2  8 25 59.0800000  0  4  3 13 11  9
  -5189777.517 7  80759493.962 6  23088082.318 0  23088084.142 0
  -3346414.004 7  53005401.207 6  20737737.619 0  20737738.220 0
   1215749.627 7   1285492.312 7  22638677.232 0  22638679.274 0
 -15544749.538 7 -11778906.139 7  21014081.323 0  21014083.056 0
 88  3  2  8 26 29.0800000  0  4  3 13 11  9
  -5250232.123 7  80712386.481 6  23076577.471 0  23076579.832 0
  -3335437.503 8  53013954.334 6  20739826.190 0  20739828.823 0
   1281354.216 7   1336612.778 7  22651161.841 0  22651162.949 0
 -15465541.563 8 -11717185.657 6  21029154.624 0  21029155.021 0
 88  3  2  8 26 59.0800000  0  4  3 13 11  9
  -5310460.749 6  80665455.096 7  23065116.473 0  23065119.180 0
  -3324190.892 7  53022717.922 6  20741966.131 0  20741967.648 0
   1346986.214 7   1387754.590 7  22663649.757 0  22663652.012 0
 -15385810.055 8 -11655057.232 6  21044326.499 0  21044326.591 0
 88  3  2  8 27 29.0800000  0  4  3 13 11  9
  -5370463.423 7  80618699.763 6  23053698.197 0  23053700.722 0
  -3312675.873 7  53031690.687 6  20744156.927 0  20744158.115 0
   1412644.407 7   1438916.831 7  22676145.193 0  22676146.201 0
 -15305557.711 8 -11592522.945 6  21059598.293 0  21059599.110 0
 88  3  2  8 27 59.0800000  0  4  3 13 11  9
  -5430240.869 7  80572119.937 6  23042324.116 0  23042325.451 0
  -3300894.363 8  53040871.076 6  20746398.719 0  20746400.177 0
   1478327.734 7   1490098.633 7  22688644.397 0  22688645.256 0
 -15224787.155 8 -11529584.847 6  21074968.470 0  21074968.404 0
 88  3  2  8 28 29.0800000  0  4  3 13 11  9
  -5489793.207 7  80525715.523 6  23030990.957 0  23030992.232 0
  -3288848.031 7  53050257.829 6  20748691.913 0  20748692.842 0
   1544034.736 7   1541298.889 7  22701146.864 0  22701148.632 0
 -15143500.977 7 -11466244.980 6  21090435.653 0  21090437.184 0
 88  3  2  8 28 59.0800000  0  4  3 13 11  9
  -5549120.755 7  80479486.252 7  23019701.048 0  23019703.003 0
  -3276538.427 8  53059849.742 6  20751033.984 0  20751034.915 0
   1609764.268 7   1592516.723 6  22713655.291 0  22713655.234 0
 -15061701.788 7 -11402505.363 6  21106002.250 0  21106003.964 0
 88  3  2  8 29 29.0800000  0  4  3 13 11  9
  -5608224.192 6  80433431.643 7  23008453.279 0  23008454.609 0
  -3263967.203 7  53069645.512 6  20753426.226 0  20753426.096 0
   1675515.004 8   1643751.064 7  22726166.898 0  22726169.130 0
 -14979392.162 7 -11338368.012 6  21121664.953 0  21121667.360 0
 88  3  2  8 29 59.0800000  0  4  3 13 11  9
  -5667103.377 6  80387551.762 6  22997250.813 0  22997252.067 0
  -3251136.389 7  53079643.562 6  20755867.374 0  20755867.389 0
   1741285.960 7   1695001.161 7  22738682.019 0  22738685.458 0
 -14896574.959 7 -11273835.103 7  21137425.389 0  21137425.145 0
 88  3  2  8 30 29.0800000  0  4  3 13 11  9
  -5725758.805 7  80341846.246 6  22986087.907 0  22986089.610 0
  -3238047.460 7  53089842.731 6  20758357.605 0  20758359.909 0
   1807076.167 7   1746266.253 6  22751203.270 0  22751204.100 0
 -14813252.674 8 -11208908.675 7  21153280.310 0  21153282.038 0
 88  3  2  8 30 59.0800000  0  4  3 13 11  9
  -5784190.963 6  80296314.701 6  22974969.365 0  22974970.531 0
  -3224701.977 7  53100241.812 7  20760895.628 0  20760900.206 0
   1872884.355 7   1797545.361 6  22763724.929 0  22763727.452 0
 -14729428.129 8 -11143590.843 7  21169230.919 0  21169231.220 0
 88  3  2  8 31 29.0800000  0  4  3 13 11  9
  -5842400.326 7  80250956.769 6  22963892.581 0  22963894.115 0
  -3211101.671 7  53110839.457 5  20763484.937 0  20763486.649 0
   1938709.306 7   1848837.532 7  22776251.311 0  22776253.804 0
 -14645103.803 8 -11077883.579 7  21185278.626 0  21185278.602 0
 88  3  2  8 31 59.0800000  0  4  3 13 11  9
  -5900387.203 7  80205772.190 6  22952858.259 0  22952860.083 0
  -3197248.199 7  53121634.368 6  20766121.374 0  20766122.849 0
   2004549.779 7   1900141.791 7  22788780.361 0  22788782.160 0
 -14560283.088 8 -11011789.512 6  21201419.589 0  21201420.173 0
 88  3  2  8 32 29.0800000  0  4  3 13 11  9
  -5958151.691 6  80160760.897 6  22941866.421 0  22941865.765 0
  -3183143.126 7  53132625.350 6  20768806.696 0  20768807.582 0
   2070404.580 7   1951457.232 7  22801311.457 0  22801313.419 0
 -14474968.355 7 -10945310.527 7  21217653.882 0  21217655.770 0
 88  3  2  8 32 59.0800000  0  4  3 13 11  9
  -6015694.898 8  80115922.040 7  22930916.315 0  22930917.390 0
  -3168788.156 7  53143811.051 6  20771537.349 0  20771539.535 0
   2136272.936 7   2002783.227 7  22813846.644 0  22813848.378 0
 -14389162.591 7 -10878448.912 6  21233982.763 0  21233983.324 0
 88  3  2  8 33 29.0800000  0  4  3 13 11  9
  -6073016.901 7  80071255.572 7  22920008.135 0  22920009.242 0
  -3154185.168 8  53155190.013 6  20774316.797 0  20774318.470 0
   2202153.698 7   2054118.893 6  22826384.577 0  22826386.059 0
 -14302868.527 7 -10811206.803 6  21250404.135 0  21250404.385 0
 88  3  2  8 33 59.0800000  0  4  3 13 11  9
  -6130117.471 7  80026761.628 6  22909141.269 0  22909143.823 0
  -3139336.190 7  53166760.657 6  20777141.946 0  20777142.918 0
   2268045.741 7   2105463.343 7  22838922.672 0  22838924.673 0
 -14216088.936 8 -10743586.348 7  21266917.382 0  21266917.336 0
 88  3  2  8 34 29.0800000  0  4  3 13 11  9
  -6186997.691 7  79982439.398 7  22898316.264 0  22898319.236 0
  -3124242.104 7  53178522.288 7  20780015.060 0  20780016.619 0
   2333947.991 7   2156815.736 7  22851462.984 0  22851464.975 0
 -14128826.449 8 -10675589.617 7  21283521.911 0  21283523.504 0
 88  3  2  8 34 59.0800000  0  4  3 13 11  9
  -6243658.253 7  79938288.309 7  22887534.555 0  22887537.339 0
  -3108905.026 8  53190473.265 7  20782934.023 0  20782935.166 0
   2399859.133 8   2208175.074 7  22864005.559 0  22864006.688 0
 -14041084.078 8 -10607218.916 6  21300218.871 0  21300221.222 0
 88  3  2  8 35 29.0800000  0  4  3 13 11  9
  -6300099.228 7  79894308.370 6  22876794.714 0  22876795.686 0
  -3093326.532 7  53202612.365 6  20785898.318 0  20785898.862 0
   2465778.247 7   2259540.615 7  22876549.580 0  22876551.499 0
 -13952864.904 7 -10538476.697 6  21317006.752 0  21317008.763 0
 88  3  2  8 35 59.0800000  0  4  3 13 11  9
  -6356321.121 7  79850499.096 6  22866095.625 0  22866097.433 0
  -3077508.497 7  53214938.122 7  20788908.143 0  20788909.114 0
   2531704.480 7   2310911.707 7  22889094.222 0  22889097.243 0
 -13864171.496 8 -10469364.947 7  21333884.462 0  21333885.654 0
 88  3  2  8 36 29.0800000  0  4  3 13 11  9
  -6412324.212 7  79806860.358 7  22855439.907 0  22855440.865 0
  -3061452.630 7  53227449.200 6  20791963.927 0  20791965.372 0
   2597636.507 7   2362287.308 7  22901641.625 0  22901643.449 0
 -13775007.034 8 -10399886.156 7  21350852.122 0  21350853.152 0
 88  3  2  8 36 59.0800000  0  4  3 13 11  9
  -6468109.463 7  79763391.338 7  22844823.660 0  22844825.361 0
  -3045160.360 8  53240144.470 6  20795063.671 0  20795064.144 0
   2663573.321 7   2413666.647 8  22914188.689 0  22914190.165 0
 -13685374.238 7 -10330042.429 6  21367908.489 0  21367909.327 0
 88  3  2  8 37 29.0800000  0  4  3 13 11  9
  -6523676.761 7  79720092.146 7  22834249.161 0  22834250.770 0
  -3028633.647 7  53253022.446 6  20798208.921 0  20798211.110 0
   2729514.104 8   2465049.092 7  22926736.905 0  22926738.918 0
 -13595276.163 8 -10259836.144 7  21385053.294 0  21385055.431 0
 88  3  2  8 37 59.0800000  0  4  3 13 11  9
  -6579026.735 6  79676962.307 7  22823716.840 0  22823718.290 0
  -3011874.124 7  53266081.824 6  20801397.780 0  20801398.699 0
   2795458.033 7   2516433.956 7  22939286.058 0  22939286.902 0
 -13504715.459 8 -10189269.383 7  21402286.225 0  21402288.333 0
 88  3  2  8 38 29.0800000  0  4  3 13 11  9
  -6634160.183 7  79634001.180 7  22813225.195 0  22813226.693 0
  -2994883.530 7  53279321.269 6  20804631.315 0  20804632.648 0
   2861403.982 7   2567820.388 7  22951834.780 0  22951836.906 0
 -13413695.317 8 -10118344.585 7  21419606.557 0  21419609.028 0
 88  3  2  8 38 59.0800000  0  4  3 13 11  9
  -6689077.493 7  79591208.489 7  22802774.091 0  22802777.153 0
  -2977663.205 8  53292739.705 6  20807908.867 0  20807908.193 0
   2927350.882 7   2619207.583 7  22964383.408 0  22964385.152 0
 -13322218.600 7 -10047064.037 7  21437014.621 0  21437015.564 0
 88  3  2  8 39 29.0800000  0  4  3 13 11  9
  -6743778.727 7  79548584.162 7  22792366.924 0  22792368.034 0
  -2960214.801 7  53306335.868 6  20811228.028 0  20811230.001 0
   2993297.567 6   2670594.591 7  22976932.572 0  22976935.544 0
 -13230288.605 7  -9975430.277 6  21454508.403 0  21454510.987 0
 88  3  2  8 39 59.0800000  0  4  3 13 11  9
  -6798264.478 7  79506127.730 6  22781997.684 0  22781999.894 0
  -2942539.719 7  53320108.661 6  20814591.403 0  20814593.134 0
   3059243.289 7   2721980.874 7  22989482.281 0  22989483.054 0
 -13137908.019 7  -9903445.418 7  21472088.217 0  21472090.090 0
 88  3  2  8 40 29.0800000  0  4  3 13 11  9
  -6852535.891 7  79463838.337 7  22771669.346 0  22771671.376 0
  -2924640.384 7  53334056.202 6  20817997.594 0  20818000.257 0
   3125187.246 7   2773365.761 7  23002031.716 0  23002032.170 0
 -13045079.895 7  -9831111.822 6  21489752.576 0  21489753.376 0
 88  3  2  8 40 59.0800000  0  4  3 13 11  9
  -6906593.271 7  79421715.719 7  22761382.416 0  22761385.658 0
  -2906518.294 8  53348177.317 6  20821445.738 0  20821447.513 0
   3191128.594 6   2824748.603 7  23014578.317 0  23014580.821 0
 -12951807.495 7  -9758432.027 7  21507501.789 0  21507502.334 0
 88  3  2  8 41 29.0800000  0  4  3 13 11  9
  -6960436.840 6  79379759.691 7  22751137.181 0  22751138.846 0
  -2888174.786 7  53362470.968 7  20824937.095 0  20824937.838 0
   3257066.210 7   2876128.551 6  23027127.351 0  23027129.283 0
 -12858093.286 7  -9685407.977 6  21525335.059 0  21525335.429 0
 88  3  2  8 41 59.0800000  0  4  3 13 11  9
  -7014067.092 6  79337969.900 6  22740931.104 0  22740932.561 0
  -2869611.595 7  53376935.796 5  20828468.693 0  20828471.082 0
   3322999.250 7   2927504.961 7  23039673.451 0  23039675.252 0
 -12763941.104 7  -9612042.643 7  21543251.828 0  21543252.929 0
 88  3  2  8 42 29.0800000  0  4  3 13 11  9
  -7067485.123 6  79296345.463 6  22730763.982 0  22730767.848 0
  -2850829.975 7  53391570.836 6  20832042.469 0  20832045.031 0
   3388926.732 7   2978877.018 7  23052217.931 0  23052220.436 0
 -12669353.429 8  -9538337.975 7  21561250.793 0  21561251.454 0
 88  3  2  8 42 59.0800000  0  4  3 13 11  9
  -7120691.030 7  79254886.306 6  22720640.631 0  22720642.375 0
  -2831831.840 8  53406374.596 6  20835658.376 0  20835659.221 0
   3454847.688 7   3030243.992 7  23064763.765 0  23064764.809 0
 -12574333.494 7  -9464296.450 6  21579332.757 0  21579333.968 0
 88  3  2  8 43 29.0800000  0  4  3 13 11  9
  -7173685.212 7  79213592.146 6  22710556.262 0  22710558.940 0
  -2812618.869 7  53421345.740 6  20839314.976 0  20839315.561 0
   3520761.210 7   3081605.194 7  23077305.140 0  23077308.211 0
 -12478884.107 8  -9389920.297 6  21597496.043 0  21597496.546 0
 88  3  2  8 43 59.0800000  0  4  3 13 11  9
  -7226468.082 6  79172462.653 7  22700512.820 0  22700513.429 0
  -2793192.989 7  53436482.781 6  20843011.385 0  20843011.785 0
   3586666.544 7   3132960.006 7  23089847.264 0  23089848.819 0
 -12383009.124 7  -9315212.510 7  21615740.325 0  21615741.466 0
 88  3  2  8 44 29.0800000  0  4  3 13 11  9
  -7279040.595 6  79131497.071 7  22690507.706 0  22690509.644 0
  -2773555.766 8  53451784.532 7  20846749.263 0  20846749.419 0
   3652563.064 8   3184307.957 6  23102387.028 0  23102388.181 0
 -12286710.682 8  -9240174.787 6  21634065.540 0  21634065.687 0
 88  3  2  8 44 59.0800000  0  4  3 13 11  9
  -7331403.346 6  79090694.933 6  22680543.360 0  22680546.149 0
  -2753708.460 8  53467249.958 7  20850524.829 0  20850526.417 0
   3718449.727 8   3235648.211 7  23114925.916 0  23114925.863 0
 -12189992.467 7  -9164809.941 7  21652471.425 0  21652472.196 0
 88  3  2  8 45 29.0800000  0  4  3 13 11  9
  -7383557.064 7  79050055.712 6  22670620.780 0  22670621.557 0
  -2733652.844 8  53482877.711 6  20854341.120 0  20854342.908 0
   3784325.863 8   3286980.261 6  23127460.874 0  23127462.731 0
 -12092857.519 7  -9089120.390 7  21670955.570 0  21670955.994 0
 88  3  2  8 45 59.0800000  0  4  3 13 11  9
  -7435501.915 6  79009579.216 6  22660734.931 0  22660737.000 0
  -2713390.675 8  53498666.421 6  20858196.447 0  20858199.179 0
   3850190.319 8   3338303.213 7  23139993.903 0  23139996.561 0
 -11995308.934 7  -9013108.510 6  21689518.041 0  21689518.581 0
 88  3  2  8 46 29.0800000  0  4  3 13 11  9
  -7487238.624 6  78969264.909 6  22650890.422 0  22650891.426 0
  -2692922.820 7  53514615.416 6  20862092.383 0  20862093.311 0
   3916042.417 8   3389616.541 7  23152526.487 0  23152527.444 0
 -11897349.749 8  -8936776.691 7  21708158.396 0  21708160.062 0
 88  3  2  8 46 59.0800000  0  4  3 13 11  9
  -7538767.644 6  78929112.421 6  22641083.339 0  22641085.544 0
  -2672251.836 8  53530722.680 6  20866025.809 0  20866027.752 0
   3981881.428 7   3440919.673 7  23165054.479 0  23165056.069 0
 -11798983.456 7  -8860127.643 7  21726876.926 0  21726877.752 0
 88  3  2  8 47 29.0800000  0  4  3 13 11  9
  -7590089.790 6  78889121.145 7  22631317.760 0  22631317.867 0
  -2651379.320 8  53546986.978 6  20869998.015 0  20869998.755 0
   4047706.654 7   3492212.026 7  23177580.641 0  23177582.442 0
 -11700212.918 7  -8783163.605 7  21745672.683 0  21745673.970 0
 88  3  2  8 47 59.0800000  0  4  3 13 11  9
  -7641205.389 7  78849290.801 7  22621591.064 0  22621591.358 0
  -2630306.444 7  53563407.429 6  20874007.706 0  20874009.177 0
   4113517.188 7   3543492.983 7  23190104.513 0  23190105.810 0
 -11601041.554 7  -8705887.237 7  21764544.161 0  21764544.981 0
 88  3  2  8 48 29.0800000  0  4  3 13 11  9
  -7692115.385 7  78809620.683 7  22611902.970 0  22611903.914 0
  -2609034.381 7  53579983.045 7  20878055.634 0  20878057.378 0
   4179312.507 7   3594762.050 7  23202624.788 0  23202626.983 0
 -11501472.207 8  -8628300.743 7  21783491.630 0  21783491.060 0
 88  3  2  8 48 59.0800000  0  4  3 13 11  9
  -7742820.391 7  78770110.293 6  22602253.871 0  22602256.932 0
  -2587565.110 8  53596712.367 6  20882141.023 0  20882141.997 0
   4245091.770 6   3646018.590 7  23215142.108 0  23215144.473 0
 -11401508.423 8  -8550406.904 7  21802514.271 0  21802515.163 0
 88  3  2  8 49 29.0800000  0  4  3 13 11  9
  -7793320.561 7  78730759.535 7  22592643.367 0  22592645.885 0
  -2565900.664 8  53613593.748 7  20886263.189 0  20886265.117 0
   4310854.201 7   3697262.013 7  23227654.429 0  23227658.319 0
 -11301153.415 7  -8472208.227 6  21821611.260 0  21821613.102 0
 88  3  2  8 49 59.0800000  0  4  3 13 11  9
  -7843616.874 7  78691567.605 6  22583074.215 0  22583075.212 0
  -2544041.816 7  53630626.614 6  20890422.842 0  20890423.601 0
   4376598.822 7   3748491.571 7  23240165.538 0  23240168.392 0
 -11200410.132 7  -8393706.979 7  21840781.284 0  21840782.637 0
 88  3  2  8 50 29.0800000  0  4  3 13 11  9
  -7893710.301 7  78652533.792 6  22573541.611 0  22573541.649 0
  -2521990.986 7  53647809.078 7  20894619.645 0  20894620.615 0
   4442325.249 7   3799706.931 8  23252673.986 0  23252676.114 0
 -11099281.899 7  -8314905.774 7  21860025.653 0  21860027.045 0
 88  3  2  8 50 59.0800000  0  4  3 13 11  9
  -7943601.115 6  78613657.834 7  22564046.130 0  22564048.193 0
  -2499749.852 8  53665139.838 6  20898851.330 0  20898851.600 0
   4508032.749 6   3850907.584 7  23265177.863 0  23265179.736 0
 -10997771.978 7  -8235807.146 7  21879342.043 0  21879343.653 0
 88  3  2  8 51 29.0800000  0  4  3 13 11  9
  -7993289.748 6  78574939.426 7  22554590.683 0  22554593.516 0
  -2477319.627 7  53682617.935 6  20903120.392 0  20903121.967 0
   4573720.362 7   3902092.718 7  23277679.024 0  23277678.435 0
 -10895883.127 7  -8156413.260 7  21898731.770 0  21898732.224 0
 88  3  2  8 51 59.0800000  0  4  3 13 11  9
  -8042777.083 7  78536377.853 7  22545173.677 0  22545176.095 0
  -2454701.631 7  53700242.350 6  20907423.654 0  20907424.914 0
   4639387.430 7   3953261.850 7  23290173.266 0  23290175.474 0
 -10793619.431 7  -8076727.296 6  21918191.538 0  21918191.228 0
 88  3  2  8 52 29.0800000  0  4  3 13 11  9
  -8092063.202 7  78497973.083 6  22535795.776 0  22535797.513 0
  -2431897.306 7  53718011.947 7  20911763.405 0  20911764.908 0
   4705033.372 7   4004414.491 7  23302665.856 0  23302668.176 0
 -10690983.899 7  -7996751.569 6  21937722.857 0  21937722.455 0
 88  3  2  8 52 59.0800000  0  4  3 13 11  9
  -8141149.287 7  78459724.205 7  22526454.829 0  22526454.909 0
  -2408908.057 7  53735925.667 6  20916137.782 0  20916138.827 0
   4770657.598 7   4055550.246 7  23315154.645 0  23315155.080 0
 -10587979.935 7  -7916488.749 7  21957323.646 0  21957323.737 0
 88  3  2  8 53 29.0800000  0  4  3 13 11  9
  -8190036.172 7  78421630.525 7  22517151.624 0  22517152.849 0
  -2385735.851 8  53753981.934 6  20920547.475 0  20920548.620 0
   4836259.588 7   4106668.684 7  23327637.411 0  23327639.278 0
 -10484610.446 8  -7835941.118 6  21976994.147 0  21976994.714 0
 88  3  2  8 53 59.0800000  0  4  3 13 11  9
  -8238724.274 7  78383691.744 6  22507887.174 0  22507888.935 0
  -2362382.608 8  53772179.257 7  20924992.255 0  20924993.629 0
   4901838.338 8   4157769.011 7  23340116.278 0  23340117.785 0
 -10380878.782 7  -7755111.246 7  21996733.907 0  21996734.284 0
 88  3  2  8 54 29.0800000  0  4  3 13 11  9
  -8287213.959 6  78345907.573 7  22498660.250 0  22498661.782 0
  -2338849.218 8  53790516.985 6  20929470.661 0  20929469.674 0
   4967393.654 7   4208851.087 6  23352591.243 0  23352593.181 0
 -10276788.359 8  -7674001.881 7  22016542.046 0  22016541.608 0
 88  3  2  8 54 59.0800000  0  4  3 13 11  9
  -8335505.931 7  78308277.462 7  22489469.856 0  22489472.046 0
  -2315137.453 8  53808993.676 6  20933982.837 0  20933982.564 0
   5032924.511 8   4259914.094 7  23365060.769 0  23365061.463 0
 -10172342.426 7  -7592615.442 6  22036417.548 0  22036417.343 0
 88  3  2  8 55 29.0800000  0  4  3 13 11  9
  -8383601.379 6  78270800.502 6  22480316.831 0  22480317.832 0
  -2291248.431 7  53827608.499 7  20938527.466 0  20938528.780 0
   5098430.364 7   4310957.641 6  23377527.195 0  23377527.393 0
 -10067544.352 8  -7510954.632 7  22056359.095 0  22056360.494 0
 88  3  2  8 55 59.0800000  0  4  3 13 11  9
  -8431500.577 7  78233476.470 7  22471203.087 0  22471204.033 0
  -2267183.840 7  53846360.117 6  20943106.951 0  20943109.184 0
   5163910.703 8   4361981.296 7  23389986.916 0  23389988.835 0
  -9962397.211 7  -7429021.815 7  22076368.472 0  22076369.339 0
 88  3  2  8 56 29.0800000  0  4  3 13 11  9
  -8479203.986 7  78196304.977 6  22462124.520 0  22462126.975 0
  -2242945.230 7  53865247.355 6  20947719.233 0  20947720.652 0
   5229364.995 8   4412984.653 6  23402443.519 0  23402444.100 0
  -9856904.679 7  -7346819.855 7  22096442.867 0  22096444.005 0
 88  3  2  8 56 59.0800000  0  4  3 13 11  9
  -8526712.653 8  78159285.230 7  22453085.140 0  22453086.626 0
  -2218534.346 7  53884268.815 6  20952366.146 0  20952366.702 0
   5294792.650 8   4463967.240 6  23414893.739 0  23414895.276 0
  -9751069.661 7  -7264351.035 6  22116582.757 0  22116583.385 0
 88  3  2  8 57 29.0800000  0  4  3 13 11  9
  -8574027.412 7  78122416.588 6  22444080.503 0  22444082.492 0
  -2193953.116 7  53903423.037 6  20957042.102 0  20957043.375 0
   5360192.986 8   4514928.553 6  23427338.435 0  23427341.326 0
  -9644895.743 8  -7181618.136 7  22136786.924 0  22136786.855 0
 88  3  2  8 57 59.0800000  0  4  3 13 11  9
  -8621148.982 7  78085698.478 7  22435113.955 0  22435116.148 0
  -2169202.246 7  53922709.430 7  20961753.176 0  20961754.193 0
   5425565.455 7   4565868.163 7  23439779.526 0  23439779.673 0
  -9538386.304 7  -7098623.800 7  22157054.428 0  22157056.579 0
 88  3  2  8 58 29.0800000  0  4  3 13 11  9
  -8668077.745 7  78049130.629 7  22426183.495 0  22426184.956 0
  -2144282.668 7  53942127.274 7  20966494.586 0  20966495.773 0
   5490909.615 7   4616785.701 7  23452213.308 0  23452214.623 0
  -9431544.549 7  -7015370.499 7  22177385.128 0  22177386.988 0
 88  3  2  8 58 59.0800000  0  4  3 13 11  9
  -8714814.622 7  78012712.286 7  22417290.691 0  22417291.378 0
  -2119197.392 7  53961674.258 7  20971267.302 0  20971268.987 0
   5556224.789 7   4667680.647 6  23464643.546 0  23464644.515 0
  -9324374.032 8  -6931861.028 6  22197778.920 0  22197780.974 0
 88  3  2  8 59 29.0800000  0  4  3 13 11  9
  -8761360.006 7  77976443.172 6  22408433.003 0  22408434.132 0
  -2093946.697 8  53981350.134 6  20976072.962 0  20976074.232 0
   5621510.854 6   4718552.902 7  23477065.505 0  23477068.026 0
  -9216877.802 8  -6848097.763 6  22218235.490 0  22218236.794 0
 88  3  2  8 59 59.0800000  0  4  3 13 11  9
  -8807714.176 7  77940323.046 7  22399611.525 0  22399614.448 0
  -2068532.589 8  54001153.326 7  20980909.783 0  20980910.768 0
   5686766.986 6   4769401.825 7  23489484.261 0  23489485.265 0
  -9109059.165 7  -6764083.253 6  22238753.467 0  22238754.271 0
 88  3  2  9  0 29.0800000  0  4  3 13 11  9
  -8853878.231 7  77904351.069 7  22390827.890 0  22390828.375 0
  -2042956.430 8  54021082.820 6  20985777.714 0  20985778.214 0
   5751992.637 6   4820226.975 8  23501895.310 0  23501896.776 0
  -9000922.040 8  -6679820.553 6  22259331.046 0  22259332.031 0
 88  3  2  9  0 59.0800000  0  4  3 13 11  9
  -8899853.139 7  77868526.468 6  22382078.363 0  22382080.481 0
  -2017219.547 7  54041137.531 7  20990673.718 0  20990674.991 0
   5817187.316 6   4871027.990 7  23514301.190 0  23514303.970 0
  -8892469.255 8  -6595311.900 6  22279969.646 0  22279970.297 0
 88  3  2  9  1 29.0800000  0  4  3 13 11  9
  -8945640.103 8  77832848.322 6  22373363.642 0  22373369.249 0
  -1991323.262 7  54061316.447 6  20995601.173 0  20995602.846 0
   5882350.576 6   4921804.512 7  23526702.959 0  23526703.694 0
  -8783704.506 7  -6510560.170 6  22300666.083 0  22300667.519 0
 88  3  2  9  1 59.0800000  0  4  3 13 11  9
  -8991239.006 7  77797316.719 7  22364687.483 0  22364689.892 0
  -1965269.356 8  54081618.187 7  21000558.164 0  21000561.342 0
   5947482.217 6   4972556.423 8  23539095.968 0  23539098.059 0
  -8674630.812 7  -6425567.685 6  22321422.179 0  22321422.739 0
 88  3  2  9  2 29.0800000  0  4  3 13 11  9
  -9036650.800 7  77761930.916 7  22356045.387 0  22356049.408 0
  -1939058.926 7  54102041.909 6  21005547.267 0  21005549.653 0
   6012581.574 8   5023283.191 7  23551484.128 0  23551485.776 0
  -8565252.133 7  -6340337.565 6  22342235.521 0  22342236.986 0
 88  3  2  9  2 59.0800000  0  4  3 13 11  9
  -9081876.219 7  77726690.343 7  22347440.514 0  22347442.796 0
  -1912693.301 8  54122586.555 6  21010564.099 0  21010566.689 0
   6077648.209 7   5073984.458 7  23563865.901 0  23563867.708 0
  -8455571.171 7  -6254871.898 7  22363107.367 0  22363108.405 0
 88  3  2  9  3 29.0800000  0  4  3 13 11  9
  -9126915.682 6  77691594.683 6  22338869.464 0  22338870.650 0
  -1886174.257 7  54143250.738 6  21015611.411 0  21015613.066 0
   6142681.503 7   5124659.757 7  23576241.439 0  23576243.115 0
  -8345591.834 7  -6169173.747 7  22384035.219 0  22384037.033 0
 88  3  2  9  3 59.0800000  0  4  3 13 11  9
  -9171769.803 7  77656643.422 7  22330333.766 0  22330335.870 0
  -1859503.249 7  54164033.360 6  21020686.565 0  21020687.955 0
   6207681.207 7   5175308.877 7  23588609.774 0  23588611.482 0
  -8235317.210 7  -6083245.484 6  22405019.916 0  22405022.033 0
 88  3  2  9  4 29.0800000  0  4  3 13 11  9
  -9216439.955 7  77621835.518 7  22321834.365 0  22321836.099 0
  -1832681.497 7  54184933.418 7  21025790.254 0  21025791.269 0
   6272646.857 8   5225931.459 7  23600972.531 0  23600974.661 0
  -8124750.892 7  -5997089.932 6  22426060.650 0  22426061.376 0
 88  3  2  9  4 59.0800000  0  4  3 13 11  9
  -9260926.944 7  77587170.349 7  22313368.688 0  22313368.785 0
  -1805710.169 8  54205950.045 7  21030922.503 0  21030923.836 0
   6337578.121 8   5276527.263 6  23613328.862 0  23613331.008 0
  -8013896.057 7  -5910709.548 6  22447155.273 0  22447157.186 0
 88  3  2  9  5 29.0800000  0  4  3 13 11  9
  -9305231.241 7  77552647.546 7  22304936.142 0  22304938.630 0
  -1778590.917 8  54227081.942 6  21036084.060 0  21036084.260 0
   6402474.642 7   5327095.993 7  23625677.756 0  23625679.710 0
  -7902756.223 7  -5824107.103 7  22468304.921 0  22468306.548 0
 88  3  2  9  5 59.0800000  0  4  3 13 11  9
  -9349353.051 7  77518266.944 7  22296539.458 0  22296543.006 0
  -1751325.292 8  54248327.877 6  21041273.004 0  21041271.885 0
   6467335.894 8   5377637.223 8  23638020.651 0  23638022.836 0
  -7791334.927 8  -5737285.329 6  22489508.115 0  22489509.451 0
 88  3  2  9  6 29.0800000  0  4  3 13 11  9
  -9393293.638 7  77484027.547 7  22288178.220 0  22288180.479 0
  -1723914.070 8  54269687.307 6  21046488.734 0  21046488.029 0
   6532161.581 7   5428150.751 6  23650357.474 0  23650358.770 0
  -7679635.193 7  -5650246.599 6  22510763.584 0  22510764.742 0
 88  3  2  9  6 59.0800000  0  4  3 13 11  9
  -9437053.857 7  77449928.697 7  22279852.071 0  22279853.368 0
  -1696358.984 7  54291158.806 7  21051732.022 0  21051733.353 0
   6596951.374 7   5478636.302 6  23662686.119 0  23662686.863 0
  -7567660.702 7  -5562993.776 7  22532072.237 0  22532072.669 0
 88  3  2  9  7 29.0800000  0  4  3 13 11  9
  -9480634.034 7  77415970.140 7  22271558.835 0  22271559.509 0
  -1668661.437 8  54312741.308 6  21057002.068 0  21057003.771 0
   6661704.977 7   5529093.662 6  23675007.969 0  23675009.551 0
  -7455414.951 8  -5475529.564 7  22553431.312 0  22553433.199 0
 88  3  2  9  7 59.0800000  0  4  3 13 11  9
  -9524035.208 6  77382151.084 7  22263299.860 0  22263301.314 0
  -1640822.655 7  54334433.857 6  21062298.703 0  21062300.620 0
   6726421.920 8   5579522.434 7  23687323.604 0  23687324.786 0
  -7342901.291 7  -5387856.616 6  22574842.195 0  22574843.925 0
 88  3  2  9  8 29.0800000  0  4  3 13 11  9
  -9567258.032 7  77348470.976 7  22255074.514 0  22255076.195 0
  -1612844.149 8  54356235.282 6  21067623.010 0  21067624.827 0
   6791101.809 7   5629922.364 7  23699631.770 0  23699633.406 0
  -7230123.132 7  -5299977.528 7  22596303.459 0  22596304.327 0
 88  3  2  9  8 59.0800000  0  4  3 13 11  9
  -9610303.263 7  77314929.275 7  22246883.017 0  22246885.347 0
  -1584727.234 8  54378144.563 6  21072974.363 0  21072975.636 0
   6855744.456 7   5680293.279 6  23711933.612 0  23711933.404 0
  -7117083.958 7  -5211895.065 6  22617813.711 0  22617815.177 0
 88  3  2  9  9 29.0800000  0  4  3 13 11  9
  -9653171.841 7  77281525.215 6  22238724.782 0  22238727.995 0
  -1556472.914 7  54400160.940 7  21078351.155 0  21078353.002 0
   6920349.468 7   5730634.842 6  23724226.725 0  23724228.606 0
  -7003786.726 8  -5123611.512 6  22639374.103 0  22639374.907 0
 88  3  2  9  9 59.0800000  0  4  3 13 11  9
  -9695864.063 6  77248258.565 7  22230600.404 0  22230603.657 0
  -1528082.762 8  54422283.146 6  21083753.936 0  21083755.078 0
   6984916.703 7   5780946.969 6  23736512.980 0  23736515.426 0
  -6890235.445 7  -5035130.003 6  22660981.097 0  22660982.716 0
 88  3  2  9 10 29.0800000  0  4  3 13 11  9
  -9738380.865 7  77215128.633 6  22222511.309 0  22222512.539 0
  -1499558.149 8  54444510.117 7  21089181.730 0  21089183.518 0
   7049445.737 6   5831229.333 7  23748793.418 0  23748793.923 0
  -6776433.249 7  -4946452.981 6  22682636.679 0  22682638.149 0
 88  3  2  9 10 59.0800000  0  4  3 13 11  9
  -9780723.144 7  77182134.671 7  22214453.037 0  22214455.713 0
  -1470899.804 7  54466841.288 7  21094636.106 0  21094635.849 0
   7113935.990 7   5881481.469 8  23761064.250 0  23761064.951 0
  -6662383.744 7  -4857583.234 7  22704340.307 0  22704340.978 0
 88  3  2  9 11 29.0800000  0  4  3 13 11  9
  -9822891.671 8  77149276.103 6  22206429.318 0  22206430.625 0
  -1442109.353 7  54489275.407 7  21100113.466 0  21100115.253 0
   7178387.322 6   5931703.255 7  23773328.957 0  23773331.069 0
  -6548090.159 6  -4768523.315 6  22726089.946 0  22726090.546 0
 88  3  2  9 11 59.0800000  0  4  3 13 11  9
  -9864886.711 6  77116552.730 7  22198436.688 0  22198439.443 0
  -1413187.560 7  54511811.862 7  21105618.040 0  21105619.285 0
   7242799.671 7   5981894.686 6  23785585.228 0  23785588.502 0
  -6433556.062 7  -4679276.015 7  22747884.219 0  22747886.435 0
 88  3  2  9 12 29.0800000  0  4  3 13 11  9
  -9906709.531 7  77083963.557 6  22190479.421 0  22190480.100 0
  -1384136.740 8  54534448.872 7  21111145.826 0  21111147.455 0
   7307172.974 7   6032055.707 7  23797836.887 0  23797838.451 0
  -6318784.798 7  -4589843.869 6  22769725.187 0  22769725.696 0
 88  3  2  9 12 59.0800000  0  4  3 13 11  9
  -9948360.669 6  77051508.146 7  22182553.351 0  22182555.005 0
  -1354957.699 7  54557185.798 6  21116697.277 0  21116700.207 0
   7371506.691 7   6082185.875 7  23810079.388 0  23810080.974 0
  -6203779.641 8  -4500229.464 6  22791609.646 0  22791610.630 0
 88  3  2  9 13 29.0800000  0  4  3 13 11  9
  -9989841.010 7  77019185.840 6  22174660.317 0  22174660.546 0
  -1325651.376 7  54580021.900 6  21122273.484 0  21122276.718 0
   7435800.636 7   6132285.051 7  23822314.169 0  23822316.062 0
  -6088544.340 7  -4410435.746 6  22813537.892 0  22813539.848 0
 88  3  2  9 13 59.0800000  0  4  3 13 11  9
 -10031151.312 7  76986996.016 6  22166798.740 0  22166799.761 0
  -1296219.145 7  54602956.110 6  21127876.249 0  21127877.409 0
   7500054.889 7   6182353.297 7  23834541.297 0  23834543.372 0
  -5973082.051 8  -4320465.117 7  22835510.081 0  22835510.446 0
 88  3  2  9 14 29.0800000  0  4  3 13 11  9
 -10072291.807 7  76954938.492 7  22158969.967 0  22158971.084 0
  -1266662.114 7  54625987.568 6  21133500.449 0  21133500.720 0
   7564268.809 7   6232390.123 7  23846760.395 0  23846762.907 0
  -5857396.514 7  -4230320.539 7  22857523.995 0  22857525.380 0
 88  3  2  9 14 59.0800000  0  4  3 13 11  9
 -10113263.940 7  76923012.180 6  22151172.795 0  22151175.172 0
  -1236981.692 7  54649115.189 6  21139149.635 0  21139148.604 0
   7628442.247 8   6282395.403 7  23858971.623 0  23858974.478 0
  -5741491.022 7  -4140004.597 7  22879579.765 0  22879581.808 0
 88  3  2  9 15 29.0800000  0  4  3 13 11  9
 -10154068.040 7  76891216.805 6  22143408.524 0  22143409.420 0
  -1207179.122 7  54672337.956 7  21144820.424 0  21144821.097 0
   7692575.025 7   6332368.989 7  23871176.942 0  23871177.930 0
  -5625369.081 7  -4049519.965 6  22901677.439 0  22901677.907 0
 88  3  2  9 15 59.0800000  0  4  3 13 11  9
 -10194705.331 7  76859551.401 7  22135675.318 0  22135676.457 0
  -1177256.082 8  54695654.614 6  21150513.566 0  21150514.006 0
   7756667.365 7   6382311.060 7  23883371.951 0  23883374.554 0
  -5509034.053 7  -3958869.305 7  22923815.894 0  22923816.984 0
 88  3  2  9 16 29.0800000  0  4  3 13 11  9
 -10235176.369 7  76828015.542 6  22127973.631 0  22127975.974 0
  -1147213.073 7  54719064.742 6  21156230.289 0  21156232.422 0
   7820718.686 8   6432221.176 7  23895561.723 0  23895563.042 0
  -5392489.142 7  -3868055.097 7  22945993.521 0  22945995.192 0
 88  3  2  9 16 59.0800000  0  4  3 13 11  9
 -10275482.356 7  76796608.285 6  22120303.326 0  22120305.346 0
  -1117051.523 6  54742567.246 6  21161969.478 0  21161971.711 0
   7884728.920 8   6482099.276 7  23907742.051 0  23907743.910 0
  -5275737.990 7  -3777080.172 7  22968210.178 0  22968210.836 0
 88  3  2  9 17 29.0800000  0  4  3 13 11  9
 -10315623.234 7  76765329.727 7  22112665.024 0  22112666.311 0
  -1086772.896 7  54766160.984 6  21167732.189 0  21167733.864 0
   7948697.934 7   6531945.253 7  23919914.824 0  23919916.375 0
  -5158784.059 7  -3685947.255 6  22990465.808 0  22990466.918 0
 88  3  2  9 17 59.0800000  0  4  3 13 11  9
 -10355599.585 7  76734179.352 7  22105057.764 0  22105059.540 0
  -1056377.408 7  54789845.786 6  21173515.305 0  21173516.881 0
   8012625.384 7   6581758.848 7  23932079.845 0  23932081.957 0
  -5041630.719 7  -3594658.958 6  23012758.494 0  23012760.135 0
 88  3  2  9 18 29.0800000  0  4  3 13 11  9
 -10395412.711 7  76703156.150 6  22097482.006 0  22097483.646 0
  -1025866.956 8  54813620.163 7  21179321.235 0  21179322.836 0
   8076511.324 7   6631540.109 8  23944237.399 0  23944239.034 0
  -4924281.523 7  -3503218.041 6  23035088.726 0  23035090.360 0
 88  3  2  9 18 59.0800000  0  4  3 13 11  9
 -10435063.136 7  76672259.748 6  22089937.687 0  22089938.328 0
   -995242.770 7  54837483.183 6  21185150.084 0  21185151.284 0
   8140355.507 7   6681288.829 7  23956386.465 0  23956387.538 0
  -4806739.795 7  -3411627.104 6  23057456.597 0  23057458.039 0
 88  3  2  9 19 29.0800000  0  4  3 13 11  9
 -10474552.197 7  76641489.053 6  22082423.165 0  22082424.246 0
   -964505.763 7  54861434.085 7  21190997.993 0  21190999.166 0
   8204157.970 7   6731005.036 6  23968527.528 0  23968529.448 0
  -4689008.970 7  -3319888.784 6  23079859.829 0  23079861.231 0
 88  3  2  9 19 59.0800000  0  4  3 13 11  9
 -10513880.388 7  76610843.755 6  22074938.698 0  22074939.244 0
   -933657.306 8  54885471.842 6  21196868.685 0  21196869.041 0
   8267918.562 7   6780688.591 6  23980660.049 0  23980662.032 0
  -4571092.556 8  -3228005.854 6  23102299.447 0  23102300.239 0
 88  3  2  9 20 29.0800000  0  4  3 13 11  9
 -10553048.219 7  76580323.387 6  22067483.510 0  22067485.362 0
   -902698.151 7  54909595.871 6  21202759.406 0  21202761.637 0
   8331637.349 6   6830339.595 7  23992786.266 0  23992787.756 0
  -4452993.986 7  -3135980.989 6  23124772.811 0  23124773.427 0
 88  3  2  9 20 59.0800000  0  4  3 13 11  9
 -10592056.453 7  76549927.388 6  22060061.586 0  22060062.906 0
   -871629.245 8  54933805.400 7  21208671.908 0  21208673.753 0
   8395313.914 7   6879957.695 7  24004903.112 0  24004905.340 0
  -4334716.297 7  -3043816.550 7  23147280.249 0  23147281.710 0
 88  3  2  9 21 29.0800000  0  4  3 13 11  9
 -10630905.978 7  76519655.063 7  22052668.663 0  22052669.142 0
   -840452.312 8  54958099.108 6  21214604.271 0  21214607.088 0
   8458948.244 7   6929542.897 6  24017012.329 0  24017014.134 0
  -4216263.900 8  -2951515.968 6  23169820.757 0  23169822.891 0
 88  3  2  9 21 59.0800000  0  4  3 13 11  9
 -10669597.583 7  76489505.789 6  22045306.860 0  22045307.111 0
   -809168.537 8  54982476.083 7  21220557.494 0  21220559.484 0
   8522540.526 6   6979095.299 7  24029113.885 0  24029116.333 0
  -4097638.824 7  -2859080.862 6  23192394.344 0  23192396.847 0
 88  3  2  9 22 29.0800000  0  4  3 13 11  9
 -10708131.785 7  76459479.150 6  22037973.531 0  22037974.661 0
   -777778.209 7  55006936.073 6  21226531.154 0  21226533.200 0
   8586090.272 7   7028614.577 7  24041206.506 0  24041208.689 0
  -3978845.338 7  -2766514.504 6  23215000.176 0  23215001.361 0
 88  3  2  9 22 59.0800000  0  4  3 13 11  9
 -10746509.290 7  76429574.624 6  22030670.470 0  22030670.833 0
   -746282.612 8  55031478.093 6  21232524.820 0  21232526.249 0
   8649597.890 7   7078101.008 7  24053289.789 0  24053292.814 0
  -3859886.735 7  -2673819.523 7  23237636.940 0  23237639.553 0
 88  3  2  9 23 29.0800000  0  4  3 13 11  9
 -10784731.379 7  76399791.187 6  22023397.222 0  22023397.868 0
   -714683.071 7  55056101.127 6  21238537.370 0  21238538.586 0
   8713063.040 6   7127554.362 7  24065368.002 0  24065369.817 0
  -3740766.285 7  -2580998.397 7  23260304.990 0  23260306.668 0
 88  3  2  9 23 59.0800000  0  4  3 13 11  9
 -10822798.777 7  76370128.294 6  22016152.228 0  22016153.823 0
   -682980.455 8  55080804.465 6  21244569.523 0  21244572.185 0
   8776485.966 6   7176974.826 6  24077437.084 0  24077438.043 0
  -3621487.880 6  -2488054.184 6  23283002.414 0  23283004.439 0
 88  3  2  9 24 29.0800000  0  4  3 13 12  9
 -10860712.135 7  76340585.440 6  22008937.627 0  22008938.824 0
   -651175.660 7  55105587.432 6  21250622.236 0  21250624.863 0
         -.140 8         -.174 6  21008435.039 0          .000 0
  -3502054.656 6  -2394989.353 7  23305729.737 0  23305733.302 0
 88  3  2  9 24 59.0800000  0  4  3 13 12  9
 -10898471.888 7  76311162.278 7  22001753.252 0  22001754.852 0
   -619270.402 7  55130448.679 6  21256695.088 0  21256697.070 0
     48508.009 8 120411867.954 6  21017691.950 0  21017696.310 0
  -3382469.482 6  -2301806.122 8  23328486.585 0  23328489.370 0
 88  3  2  9 25 29.0800000  0  4  3 13 12  9
 -10936078.978 7  76281858.086 7  21994596.825 0  21994598.184 0
   -587265.106 7  55155387.866 7  21262785.623 0  21262787.433 0
     97597.044 7 120450119.110 7  21027033.562 0  21027037.072 0
  -3262736.066 6  -2208507.364 7  23351270.977 0  23351274.076 0
 88  3  2  9 25 59.0800000  0  4  3 13 12  9
 -10973534.039 7  76252672.348 6  21987469.719 0  21987469.842 0
   -555161.269 7  55180403.852 7  21268894.703 0  21268895.858 0
    147265.216 7 120488821.559 7  21036486.323 0  21036488.335 0
  -3142858.637 7  -2115096.371 7  23374082.646 0  23374085.426 0
 88  3  2  9 26 29.0800000  0  4  3 13 12  9
 -11010837.984 7  76223604.364 7  21980370.305 0  21980371.476 0
   -522959.389 7  55205496.209 7  21275021.129 0  21275025.314 0
    197510.655 7 120527973.815 7  21046048.078 0  21046049.454 0
  -3022839.361 7  -2021574.843 6  23396922.729 0  23396924.806 0
 88  3  2  9 26 59.0800000  0  4  3 13 12  9
 -11047991.599 7  76194653.498 6  21973300.242 0  21973302.185 0
   -490660.455 7  55230664.237 7  21281168.271 0  21281170.412 0
    248331.460 8 120567574.428 7  21055718.784 0  21055720.558 0
  -2902682.726 7  -1927946.268 7  23419787.858 0  23419789.740 0
 88  3  2  9 27 29.0800000  0  4  3 13 12  9
 -11084995.576 7  76165819.249 6  21966258.645 0  21966258.950 0
   -458265.821 7  55255906.811 6  21287332.986 0  21287334.025 0
    299725.652 7 120607621.813 7  21065499.087 0  21065500.001 0
  -2782391.443 7  -1834212.803 7  23442677.831 0  23442679.347 0
 88  3  2  9 27 59.0800000  0  4  3 13 12  9
 -11121850.515 7  76137101.111 6  21959244.739 0  21959246.250 0
   -425776.357 7  55281223.286 7  21293516.220 0  21293516.826 0
    351690.903 8 120648114.186 6  21075386.686 0  21075389.351 0
  -2661968.313 7  -1740376.574 6  23465594.137 0  23465595.578 0
 88  3  2  9 28 29.0800000  0  4  3 13 12  9
 -11158557.141 7  76108498.564 7  21952260.073 0  21952261.707 0
   -393193.165 7  55306612.781 7  21299716.336 0  21299717.586 0
    404225.425 8 120689050.152 7  21085383.825 0  21085387.492 0
  -2541418.085 7  -1646441.305 6  23488534.049 0  23488533.975 0
 88  3  2  9 28 59.0800000  0  4  3 13 12  9
 -11195116.311 7  76080010.900 6  21945301.912 0  21945304.817 0
   -360517.035 7  55332074.699 7  21305933.393 0  21305935.833 0
    457326.646 7 120730427.700 6  21095489.033 0  21095490.199 0
  -2420743.817 7  -1552409.381 7  23511496.787 0  23511498.986 0
 88  3  2  9 29 29.0800000  0  4  3 13 12  9
 -11231529.101 7  76051637.310 6  21938373.116 0  21938374.848 0
   -327748.469 7  55357608.649 7  21312169.509 0  21312171.735 0
    510992.385 7 120772245.135 6  21105700.866 0  21105703.563 0
  -2299948.060 7  -1458282.822 7  23534484.050 0  23534484.626 0
 88  3  2  9 29 59.0800000  0  4  3 13 12  9
 -11267795.919 7  76023377.462 7  21931472.001 0  21931473.684 0
   -294889.004 7  55383213.423 7  21318421.885 0  21318424.080 0
    565220.921 8 120814501.106 6  21116020.671 0  21116022.733 0
  -2179035.228 7  -1364065.043 7  23557491.718 0  23557494.607 0
 88  3  2  9 30 29.0800000  0  4  3 13 12  9
 -11303917.512 7  75995230.783 6  21924598.683 0  21924599.717 0
   -261939.106 7  55408888.662 6  21324692.490 0  21324693.596 0
    620009.783 7 120857193.703 6  21126446.496 0  21126448.153 0
  -2058008.313 7  -1269758.368 7  23580522.854 0  23580525.231 0
 88  3  2  9 30 59.0800000  0  4  3 13 12  9
 -11339894.489 7  75967196.790 7  21917752.240 0  21917753.370 0
   -228900.079 7  55434633.365 7  21330980.605 0  21330980.625 0
    675356.532 8 120900321.021 7  21136978.411 0  21136980.973 0
  -1936870.197 6  -1175365.031 6  23603574.170 0  23603576.397 0
 88  3  2  9 31 29.0800000  0  4  3 13 12  9
 -11375727.880 7  75939274.671 6  21910933.462 0  21910934.817 0
   -195773.174 8  55460446.532 7  21337283.119 0  21337285.470 0
    731259.157 8 120943881.479 7  21147616.538 0  21147618.766 0
  -1815624.695 6  -1080888.028 6  23626646.499 0  23626649.755 0
 88  3  2  9 31 59.0800000  0  4  3 13 12  9
 -11411418.195 7  75911464.047 6  21904142.170 0  21904143.890 0
   -162558.761 7  55486327.897 6  21343603.316 0  21343605.655 0
    787715.276 8 120987873.235 7  21158360.039 0  21158362.827 0
  -1694275.044 6   -986329.856 6  23649739.724 0  23649741.359 0
 88  3  2  9 32 29.0800000  0  4  3 13 12  9
 -11446966.490 8  75883764.069 6  21897377.084 0  21897378.918 0
   -129257.643 7  55512276.822 7  21349941.001 0  21349942.366 0
    844722.871 8 121032294.720 7  21169208.192 0  21169211.042 0
  -1572824.958 6   -891693.431 7  23672850.279 0  23672852.154 0
 88  3  2  9 32 59.0800000  0  4  3 13 12  9
 -11482373.059 7  75856174.562 6  21890639.250 0  21890641.510 0
    -95871.121 7  55538292.291 7  21356293.967 0  21356296.868 0
    902279.964 8 121077144.386 6  21180160.331 0  21180163.165 0
  -1451277.436 7   -796981.073 7  23695981.923 0  23695981.256 0
 88  3  2  9 33 29.0800000  0  4  3 13 12  9
 -11517639.003 7  75828694.626 6  21883928.714 0  21883930.432 0
    -62399.831 7  55564373.828 7  21362663.792 0  21362665.241 0
    960383.874 8 121122420.133 6  21191218.256 0  21191220.110 0
  -1329635.896 7   -702195.458 7  23719128.284 0  23719129.978 0
 88  3  2  9 33 59.0800000  0  4  3 13 12  9
 -11552764.810 7  75801323.868 6  21877244.045 0  21877244.376 0
    -28844.355 7  55590520.952 7  21369049.011 0  21369050.378 0
   1019032.279 7 121168120.172 6  21202377.678 0  21202380.031 0
  -1207903.754 7   -607339.242 7  23742293.194 0  23742293.956 0
 88  3  2  9 34 29.0800000  0  4  3 13 12  9
 -11587751.133 8  75774061.802 7  21870586.808 0  21870586.970 0
      4794.502 7  55616733.054 6  21375451.260 0  21375451.439 0
   1078222.079 7 121214242.072 6  21213641.359 0  21213644.523 0
  -1086084.162 8   -512414.866 7  23765474.461 0  23765476.354 0
 88  3  2  9 34 59.0800000  0  4  3 13 12  9
 -11622598.854 7  75746907.738 6  21863956.630 0  21863957.947 0
     38515.694 8  55643009.294 6  21381868.045 0  21381869.140 0
   1137951.788 8 121260784.676 6  21225007.664 0  21225010.420 0
   -964180.603 7   -417425.051 7  23788671.804 0  23788673.269 0
 88  3  2  9 35 29.0800000  0  4  3 13 12  9
 -11657308.717 7  75719861.116 6  21857350.950 0  21857350.210 0
     72318.167 7  55669348.877 7  21388298.883 0  21388300.834 0
   1198218.925 8 121307746.049 6  21236475.817 0  21236478.951 0
   -842196.543 7   -322372.530 6  23811884.503 0  23811886.806 0
 88  3  2  9 35 59.0800000  0  4  3 13 12  9
 -11691881.024 7  75692921.650 7  21850771.864 0  21850773.377 0
    106201.057 7  55695751.124 7  21394746.520 0  21394748.029 0
   1259020.595 8 121355123.954 6  21248046.154 0  21248048.356 0
   -720135.080 7   -227259.671 6  23835112.189 0  23835113.992 0
 88  3  2  9 36 29.0800000  0  4  3 13 12  9
 -11726316.690 7  75666088.680 7  21844218.771 0  21844219.412 0
    140163.618 7  55722215.441 7  21401209.981 0  21401211.804 0
   1320355.074 8 121402917.044 7  21259718.441 0  21259719.961 0
   -597999.696 7   -132089.216 6  23858354.042 0  23858355.734 0
 88  3  2  9 36 59.0800000  0  4  3 13 12  9
 -11760616.596 7  75639361.517 7  21837692.589 0  21837692.965 0
    174205.401 7  55748741.504 7  21407688.124 0  21407689.736 0
   1382219.283 8 121451122.893 6  21271490.550 0  21271492.223 0
   -475793.642 7    -36863.713 6  23881607.578 0  23881610.633 0
 88  3  2  9 37 29.0800000  0  4  3 13 12  9
 -11794781.610 7  75612739.442 6  21831188.899 0  21831192.239 0
    208325.313 8  55775328.457 7  21414181.065 0  21414182.142 0
   1444610.207 8 121499739.178 7  21283362.616 0  21283364.805 0
   -353520.459 6     58414.098 7  23904876.202 0  23904878.389 0
 88  3  2  9 37 59.0800000  0  4  3 13 12  9
 -11828812.249 7  75586222.075 7  21824714.642 0  21824715.974 0
    242523.047 7  55801976.048 7  21420688.169 0  21420690.740 0
   1507526.200 7 121548764.616 7  21295335.832 0  21295337.259 0
   -231183.187 7    153741.855 6  23928157.719 0  23928157.826 0
 88  3  2  9 38 29.0800000  0  4  3 13 12  9
 -11862709.224 7  75559808.871 7  21818264.357 0  21818266.979 0
    276797.477 7  55828683.368 7  21427210.644 0  21427212.310 0
   1570964.221 8 121598196.825 7  21307408.736 0  21307409.044 0
   -108785.202 6    249116.906 7  23951447.132 0  23951449.439 0
 88  3  2  9 38 59.0800000  0  4  3 13 12  9
 -11896472.993 7  75533499.455 7  21811838.608 0  21811839.669 0
    311147.825 7  55855449.886 6  21433746.739 0  21433749.320 0
   1634922.060 8 121648034.069 7  21319577.359 0  21319579.743 0
     13670.370 5    344536.848 6  23974749.905 0  23974752.271 0
 88  3  2  9 39 29.0800000  0  4  3 13 12  9
 -11930104.372 7  75507293.208 7  21805439.044 0  21805441.401 0
    345573.117 7  55882274.790 7  21440299.321 0  21440300.357 0
   1699397.060 8 121698274.295 6  21331847.592 0  21331848.703 0
    136179.960 7    439998.836 7  23998063.978 0  23998065.045 0
 88  3  2  9 39 59.0800000  0  4  3 13 12  9
 -11963604.147 8  75481189.493 6  21799064.621 0  21799067.310 0
    380073.078 7  55909157.877 7  21446864.720 0  21446864.326 0
   1764386.531 8 121748915.430 7  21344214.516 0  21344216.720 0
    258740.340 7    535500.472 7  24021385.496 0  24021387.341 0
 88  3  2  9 40 29.0800000  0  4  3 13 12  9
 -11996972.944 7  75455187.840 7  21792714.490 0  21792715.761 0
    414646.841 8  55936098.457 7  21453442.397 0  21453444.508 0
   1829887.748 8 121799955.328 7  21356679.288 0  21356682.777 0
    381348.588 7    631039.368 7  24044718.052 0  24044719.250 0
 88  3  2  9 40 59.0800000  0  4  3 13 12  9
 -12030211.335 7  75429287.795 6  21786388.500 0  21786390.196 0
    449293.647 8  55963095.962 7  21460035.760 0  21460038.015 0
   1895898.450 8 121851392.205 6  21369239.929 0  21369242.776 0
    504000.851 7    726612.595 7  24068058.123 0  24068059.186 0
 88  3  2  9 41 29.0800000  0  4  3 13 12  9
 -12063320.101 7  75403488.773 7  21780089.396 0  21780090.818 0
    484012.723 7  55990149.768 6  21466643.002 0  21466644.997 0
   1962415.660 8 121903223.783 7  21381897.634 0  21381901.712 0
    626694.392 7    822217.965 7  24091405.631 0  24091406.512 0
 88  3  2  9 41 59.0800000  0  4  3 13 12  9
 -12096300.045 7  75377790.112 6  21773814.174 0  21773814.865 0
    518803.588 7  56017259.538 7  21473263.407 0  21473264.459 0
   2029436.879 8 121955448.101 7  21394651.370 0  21394653.997 0
    749425.663 7    917852.730 7  24114760.432 0  24114762.182 0
 88  3  2  9 42 29.0800000  0  4  3 13 12  9
 -12129151.843 7  75352191.340 6  21767562.293 0  21767563.996 0
    553665.234 8  56044424.457 7  21479897.263 0  21479899.161 0
   2096959.109 8 122008062.806 7  21407501.956 0  21407503.346 0
    872191.069 6   1013514.102 7  24138122.052 0  24138122.815 0
 88  3  2  9 42 59.0800000  0  4  3 13 12  9
 -12161875.739 7  75326692.199 7  21761334.632 0  21761336.226 0
    588597.390 7  56071644.320 6  21486544.427 0  21486546.323 0
   2164979.540 7 122061065.717 7  21420444.826 0  21420447.913 0
    994988.015 7   1109200.046 6  24161489.102 0  24161490.273 0
 88  3  2  9 43 29.0800000  0  4  3 13 12  9
 -12194472.654 7  75301292.011 7  21755131.213 0  21755133.887 0
    623598.981 8  56098918.274 7  21493204.125 0  21493208.025 0
   2233495.977 7 122114455.117 6  21433483.824 0  21433486.306 0
   1117812.755 7   1204907.661 6  24184862.481 0  24184863.364 0
 88  3  2  9 43 59.0800000  0  4  3 13 12  9
 -12226943.257 7  75275990.256 6  21748952.355 0  21748954.517 0
    658669.309 8  56126245.796 6  21499878.104 0  21499881.046 0
   2302505.545 7 122168228.789 7  21446615.540 0  21446617.980 0
   1240662.389 7   1300634.673 7  24208239.551 0  24208240.442 0
 88  3  2  9 44 29.0800000  0  4  3 13 12  9
 -12259288.053 8  75250786.529 7  21742797.720 0  21742799.442 0
    693808.619 7  56153627.074 6  21506564.933 0  21506568.760 0
   2372005.330 8 122222384.440 7  21459840.554 0  21459843.213 0
   1363533.412 7   1396378.381 7  24231621.900 0  24231621.836 0
 88  3  2  9 44 59.0800000  0  4  3 13 12  9
 -12291507.913 7  75225680.149 7  21736666.511 0  21736668.268 0
    729015.927 7  56181061.329 6  21513264.582 0  21513266.765 0
   2441992.784 7 122276920.104 7  21473157.968 0  21473162.130 0
   1486422.659 7   1492136.251 7  24255007.576 0  24255006.930 0
 88  3  2  9 45 29.0800000  0  4  3 13 12  9
 -12323603.133 8  75200670.890 6  21730560.680 0  21730559.974 0
    764290.222 7  56208547.775 7  21519976.338 0  21519979.839 0
   2512464.919 8 122331833.426 7  21486568.640 0  21486572.924 0
   1609326.937 6   1587905.819 6  24278393.690 0  24278395.427 0
 88  3  2  9 45 59.0800000  0  4  3 13 12  9
 -12355574.701 7  75175757.984 6  21724474.400 0  21724476.706 0
    799630.873 7  56236085.954 7  21526702.776 0  21526704.400 0
   2583419.040 8 122387122.334 6  21500071.645 0  21500072.712 0
   1732243.005 6   1683684.531 6  24301783.847 0  24301786.320 0
 88  3  2  9 46 29.0800000  0  4  3 13 12  9
 -12387423.233 7  75150940.940 6  21718413.963 0  21718415.194 0
    835037.843 7  56263675.790 7  21533440.489 0  21533442.571 0
   2654851.671 8 122442784.090 7  21513665.011 0  21513667.132 0
   1855167.774 6   1779470.081 6  24325175.120 0  24325177.444 0
 88  3  2  9 46 59.0800000  0  4  3 13 12  9
 -12419149.574 8  75126219.099 6  21712376.990 0  21712378.231 0
    870510.258 7  56291316.643 7  21540189.817 0  21540192.016 0
   2726760.209 8 122498816.703 8  21527348.947 0  21527350.126 0
   1978097.842 7   1875259.764 6  24348569.047 0  24348570.236 0
 88  3  2  9 47 29.0800000  0  4  3 13 12  9
 -12450753.715 7  75101592.491 6  21706363.187 0  21706364.637 0
    906047.177 7  56319007.746 7  21546953.376 0  21546954.253 0
   2799142.072 7 122555218.139 6  21541122.139 0  21541124.224 0
   2101030.198 7   1971051.208 6  24371961.980 0  24371963.938 0
 88  3  2  9 47 59.0800000  0  4  3 13 12  9
 -12482236.928 7  75077060.137 7  21700371.598 0  21700372.766 0
    941647.990 7  56346748.631 7  21553726.947 0  21553728.354 0
   2871994.225 7 122611986.027 7  21554985.908 0  21554987.157 0
   2223961.463 6   2066841.821 6  24395354.308 0  24395356.961 0
 88  3  2  9 48 29.0800000  0  4  3 13 12  9
 -12513599.504 7  75052621.774 6  21694403.313 0  21694404.405 0
    977312.182 6  56374538.885 7  21560513.769 0  21560515.920 0
   2945314.070 7 122669118.352 7  21568938.199 0  21568940.121 0
   2346888.653 7   2162629.297 6  24418748.165 0  24418747.773 0
 88  3  2  9 48 59.0800000  0  4  3 13 12  9
 -12544842.001 7  75028276.962 6  21688458.854 0  21688460.102 0
   1013039.639 7  56402378.452 6  21567312.809 0  21567314.046 0
   3019098.432 7 122726612.645 7  21582979.076 0  21582981.770 0
   2469808.373 7   2258410.911 6  24442137.677 0  24442139.588 0
 88  3  2  9 49 29.0800000  0  4  3 13 12  9
 -12575964.765 7  75004025.448 7  21682535.780 0  21682537.544 0
   1048829.860 7  56430266.936 6  21574122.410 0  21574125.380 0
   3093344.380 8 122784466.595 7  21597107.135 0  21597109.186 0
   2592717.940 7   2354184.597 6  24465526.194 0  24465528.011 0
 88  3  2  9 49 59.0800000  0  4  3 13 12  9
 -12606968.960 7  74979866.338 6  21676635.835 0  21676636.932 0
   1084682.360 7  56458203.956 7  21580946.664 0  21580946.901 0
   3168048.900 8 122842677.910 6  21611322.482 0  21611325.559 0
   2715613.719 6   2449947.557 6  24488913.404 0  24488915.161 0
 88  3  2  9 50 29.0800000  0  4  3 13 12  9
 -12637855.076 7  74955799.226 7  21670758.885 0  21670760.557 0
   1120596.604 7  56486189.076 7  21587780.105 0  21587781.942 0
   3243209.139 8 122901244.290 7  21625625.268 0  21625628.735 0
   2838492.313 7   2545697.131 7  24512296.623 0  24512298.039 0
 88  3  2  9 50 59.0800000  0  4  3 13 12  9
 -12668623.496 8  74931823.830 6  21664903.457 0  21664904.111 0
   1156571.845 7  56514221.721 7  21594625.537 0  21594627.734 0
   3318822.001 8 122960163.391 7  21640014.527 0  21640015.944 0
   2961351.049 7   2641431.202 7  24535676.146 0  24535677.667 0
 88  3  2  9 51 29.0800000  0  4  3 13 12  9
 -12699274.981 7  74907939.563 6  21659069.908 0  21659072.508 0
   1192607.515 7  56542301.448 7  21601483.163 0  21601483.887 0
   3394884.572 7 123019432.904 7  21654488.349 0  21654490.948 0
   3084186.525 8   2737147.164 7  24559051.164 0  24559051.726 0
 88  3  2  9 51 59.0800000  0  4  3 13 12  9
 -12729810.013 7  74884146.034 7  21653260.210 0  21653261.778 0
   1228702.952 7  56570427.759 7  21608351.059 0  21608352.497 0
   3471393.719 7 123079050.409 7  21669048.140 0  21669050.145 0
   3206995.913 7   2832842.797 7  24582420.324 0  24582422.370 0
 88  3  2  9 52 29.0800000  0  4  3 13 12  9
 -12760229.361 7  74860442.644 7  21647471.350 0  21647472.244 0
   1264857.448 7  56598600.094 7  21615233.381 0  21615234.219 0
   3548346.681 7 123139013.727 7  21683691.336 0  21683693.991 0
   3329775.850 6   2928515.477 7  24605784.540 0  24605787.036 0
 88  3  2  9 52 59.0800000  0  4  3 13 12  9
 -12790533.172 7  74836829.286 7  21641705.288 0  21641705.733 0
   1301071.247 7  56626818.644 7  21622124.201 0  21622124.692 0
   3625740.276 8 123199320.406 7  21698418.529 0  21698421.441 0
   3452523.173 7   3024162.741 7  24629143.287 0  24629144.110 0
 88  3  2  9 53 29.0800000  0  4  3 13 12  9
 -12820722.291 7  74813305.306 6  21635960.393 0  21635960.703 0
   1337344.375 7  56655083.396 6  21629025.951 0  21629027.306 0
   3703571.229 7 123259967.888 6  21713228.913 0  21713232.381 0
   3575234.731 6   3119782.152 7  24652494.237 0  24652494.768 0
 88  3  2  9 53 59.0800000  0  4  3 13 12  9
 -12850797.336 7  74789870.210 7  21630237.380 0  21630237.741 0
   1373675.486 7  56683393.357 6  21635939.726 0  21635941.091 0
   3781837.059 8 123320954.228 6  21728122.514 0  21728125.518 0
   3697907.639 6   3215371.414 6  24675837.697 0  24675839.655 0
 88  3  2  9 54 29.0800000  0  4  3 13 12  9
 -12880758.575 7  74766523.784 7  21624535.965 0  21624537.155 0
   1410064.343 7  56711748.310 6  21642864.573 0  21642865.339 0
   3860534.144 8 123382276.611 6  21743098.215 0  21743101.030 0
   3820538.726 5   3310928.068 7  24699172.273 0  24699174.685 0
 88  3  2  9 54 59.0800000  0  4  3 13 12  9
 -12910606.809 7  74743265.395 6  21618855.794 0  21618856.762 0
   1446510.772 7  56740148.118 7  21649799.465 0  21649800.102 0
   3939659.397 7 123443932.654 6  21758155.039 0  21758157.881 0
   3943124.980 6   3406449.797 6  24722500.696 0  24722503.478 0
 88  3  2  9 55 29.0800000  0  4  3 13 12  9
 -12940342.539 7  74720094.708 6  21613197.481 0  21613199.007 0
   1483014.020 7  56768592.206 6  21656745.550 0  21656746.244 0
   4019209.788 7 123505919.940 7  21773293.444 0  21773296.664 0
   4065663.232 6   3501934.131 6  24745819.074 0  24745820.042 0
 88  3  2  9 55 59.0800000  0  4  3 13 12  9
 -12969966.157 7  74697011.388 7  21607560.583 0  21607560.888 0
   1519574.002 8  56797080.514 7  21663703.624 0  21663705.334 0
   4099181.958 7 123568235.889 7  21788511.492 0  21788514.114 0
   4188150.089 6   3597378.436 7  24769126.868 0  24769128.556 0
 88  3  2  9 56 29.0800000  0  4  3 13 12  9
 -12999478.052 7  74674015.117 6  21601944.769 0  21601946.176 0
   1556189.861 7  56825612.340 6  21670671.084 0  21670672.823 0
   4179573.370 7 123630878.523 7  21803809.603 0  21803811.576 0
   4310582.936 6   3692780.673 6  24792425.090 0  24792427.402 0
 88  3  2  9 56 59.0800000  0  4  3 13 12  9
 -13028878.670 7  74651105.548 6  21596349.859 0  21596351.819 0
   1592861.617 7  56854187.737 7  21677649.162 0  21677651.100 0
   4260380.712 7 123693845.260 7  21819186.626 0  21819189.414 0
   4432958.526 7   3788138.278 6  24815712.303 0  24815714.402 0
 88  3  2  9 57 29.0800000  0  4  3 13 12  9
 -13058169.029 8  74628281.890 6  21590775.496 0  21590777.059 0
   1629588.810 7  56882806.319 7  21684639.288 0  21684639.957 0
   4341600.498 7 123757133.391 6  21834641.771 0  21834644.162 0
   4555273.766 7   3883448.863 6  24838987.950 0  24838991.104 0
 88  3  2  9 57 59.0800000  0  4  3 13 12  9
 -13087349.591 7  74605543.810 7  21585222.327 0  21585223.633 0
   1666371.285 7  56911467.987 7  21691637.371 0  21691638.478 0
   4423229.588 7 123820740.460 6  21850175.527 0  21850177.417 0
   4677525.535 7   3978709.993 8  24862252.759 0  24862253.803 0
 88  3  2  9 58 29.0800000  0  4  3 13 12  9
 -13116420.628 7  74582891.041 7  21579690.664 0  21579691.164 0
   1703208.477 7  56940172.296 7  21698648.218 0  21698649.025 0
   4505265.095 8 123884664.205 7  21865786.895 0  21865788.991 0
   4799710.932 6   4073919.394 7  24885504.174 0  24885504.389 0
 88  3  2  9 58 59.0800000  0  4  3 13 12  9
 -13145382.786 7  74560323.143 7  21574179.851 0  21574181.185 0
   1740099.600 7  56968918.629 7  21705668.050 0  21705669.473 0
   4587703.776 8 123948902.118 6  21881474.072 0  21881475.920 0
   4921826.771 6   4169074.591 6  24908740.896 0  24908742.928 0
 88  3  2  9 59 29.0800000  0  4  3 13 12  9
 -13174236.233 7  74537839.933 7  21568688.920 0  21568689.311 0
   1777045.263 7  56997707.446 7  21712699.500 0  21712700.368 0
   4670541.949 8 124013451.335 6  21897239.167 0  21897240.809 0
   5043870.429 6   4264173.526 6  24931966.403 0  24931967.266 0
 88  3  2  9 59 59.0800000  0  4  3 13 12  9
 -13202981.663 7  74515440.907 6  21563218.832 0  21563220.046 0
   1814044.646 7  57026538.132 6  21719740.798 0  21719741.565 0
   4753776.810 7 124078309.660 7  21913076.460 0  21913078.942 0
   5165838.870 6   4359213.857 6  24955175.901 0  24955176.878 0
 88  3  2 10  0 29.0800000  0  3  3 13 12
 -13231619.885 8  74493125.386 7  21557768.479 0  21557770.050 0
   1851097.031 7  57055410.104 7  21726789.532 0  21726792.261 0
   4837405.482 3 124143474.829 3  21928990.268 0  21928993.164 0
 88  3  2 10  0 59.0800000  0  3  3 13 12
 -13260151.038 6  74470893.340 6  21552339.103 0  21552341.158 0
   1888202.623 7  57084323.557 7  21733851.893 0  21733853.117 0
   4921424.509 4 124208944.208 3  21944979.167 0  21944981.859 0
 88  3  2 10  1 29.0800000  0  3  3 13 12
 -13288584.621 6  74553787.860 3  21546944.682 0  21546926.879 0
   1925361.262 6  57113278.328 6  21740921.752 0  21740923.419 0
   5005830.083 6 124274714.762 6  21961042.539 0  21961044.797 0
 88  3  2 10  1 59.0800000  0  3  3 13 12
 -48088756.633 7 145577770.232 1  21541542.181 0  21541564.143 0
   1962572.401 7  57142274.020 6  21748003.419 0  21748005.624 0
   5090619.043 7 124340784.051 7  21977176.354 0  21977178.816 0
 88  3  2 10  2 29.0800000  0  3  3 13 12
 -48117101.032 1 145805769.732 1  21536153.685 0          .000 0
   1999836.048 6  57171310.635 7  21755094.474 0  21755094.514 0
   5175788.331 7 124407149.726 6  21993381.599 0  21993386.195 0
 88  3  2 10  2 59.0800000  0  3  3 13 12
 -48368985.842 7 146033769.232 1  21530786.876 0          .000 0
   2037151.746 7  57200387.784 7  21762194.834 0  21762197.058 0
   5261335.222 7 124473809.600 7  22009661.282 0  22009664.806 0
 88  3  2 10  3 29.0800000  0  3  3 13 12
 -48396989.152 7 146102234.940 6  21525495.167 0  21525496.440 0
   2074519.391 8  57229505.413 7  21769305.889 0  21769305.940 0
   5347255.974 7 124540760.795 7  22026012.457 0  22026015.565 0
 88  3  2 10  3 59.0800000  0  3  3 13 12
 -48424887.820 7 146080495.727 6  21520186.255 0  21520187.606 0
   2111938.247 7  57258662.962 7  21776426.936 0  21776428.094 0
   5433547.323 7 124608000.786 7  22042432.913 0  22042435.165 0
 88  3  2 10  4 29.0800000  0  3  3 13 12
 -48452682.158 6 146058837.809 6  21514897.229 0  21514898.518 0
   2149408.526 7  57287860.591 7  21783558.296 0  21783557.686 0
   5520206.006 7 124675527.017 7  22058924.518 0  22058926.480 0
 88  3  2 10  4 59.0800000  0  3  3 13 12
 -48480373.189 7 146037260.378 6  21509627.783 0  21509627.998 0
   2186930.400 8  57317098.415 7  21790697.553 0  21790698.468 0
   5607228.397 7 124743336.657 7  22075483.631 0  22075486.869 0
 88  3  2 10  5 29.0800000  0  3  3 13 12
 -48507961.260 7 146015763.196 7  21504377.992 0  21504379.198 0
   2224502.799 7  57346375.611 6  21797847.349 0  21797848.762 0
   5694611.391 7 124811427.296 7  22092112.260 0  22092114.123 0
 88  3  2 10  5 59.0800000  0  3  3 13 12
 -48535446.570 7 145994346.098 6  21499148.136 0  21499147.952 0
   2262126.408 7  57375692.698 7  21805007.066 0  21805008.375 0
   5782352.041 8 124879796.631 6  22108809.285 0  22108812.137 0
 88  3  2 10  6 29.0800000  0  3  3 13 12
 -48562829.311 7 145973008.905 6  21493937.805 0  21493937.663 0
   2299800.857 6  57405049.408 6  21812175.436 0  21812176.715 0
   5870446.851 7 124948441.923 6  22125573.021 0  22125574.998 0
 88  3  2 10  6 59.0800000  0  3  3 13 12
 -48590109.937 7 145951751.271 6  21488746.601 0  21488747.255 0
   2337525.524 7  57434445.244 7  21819353.343 0  21819356.046 0
   5958892.186 8 125017360.388 6  22142403.150 0  22142404.529 0
 88  3  2 10  7 29.0800000  0  3  3 13 12
 -48617289.030 7 145930572.766 6  21483573.398 0  21483574.173 0
   2375300.110 8  57463879.991 7  21826542.381 0  21826545.614 0
   6047684.835 7 125086549.465 7  22159298.701 0  22159301.024 0
 88  3  2 10  7 59.0800000  0  3  3 13 12
 -48644366.900 7 145909473.142 6  21478421.002 0  21478422.060 0
   2413125.119 7  57493354.002 7  21833740.082 0  21833742.048 0
   6136821.141 7 125156006.302 7  22176262.796 0  22176263.697 0
 88  3  2 10  8 29.0800000  0  3  3 13 12
 -48671343.918 7 145888452.095 6  21473287.270 0  21473288.335 0
   2450999.665 7  57522866.633 7  21840947.853 0  21840949.911 0
   6226297.916 7 125225728.464 7  22193287.930 0  22193290.296 0
 88  3  2 10  8 59.0800000  0  3  3 13 12
 -48698220.691 7 145867509.150 6  21468173.570 0  21468174.154 0
   2488924.375 7  57552418.349 7  21848164.186 0  21848166.687 0
   6316112.046 7 125295713.471 7  22210379.918 0  22210382.355 0
 88  3  2 10  9 29.0800000  0  3  3 13 12
 -48724997.499 8 145846644.122 6  21463077.501 0  21463078.310 0
   2526898.947 7  57582008.929 7  21855391.109 0  21855393.044 0
   6406259.917 7 125365958.542 7  22227535.267 0  22227536.744 0
 88  3  2 10  9 59.0800000  0  3  3 13 12
 -48751674.528 7 145825856.842 6  21458001.303 0  21458002.159 0
   2564922.576 8  57611637.727 7  21862626.630 0  21862628.174 0
   6496737.946 7 125436460.857 7  22244750.659 0  22244755.070 0
 88  3  2 10 10 29.0800000  0  3  3 13 12
 -48778252.038 7 145805147.103 7  21452943.752 0  21452945.301 0
   2602995.993 7  57641305.329 7  21869872.017 0  21869873.183 0
   6587543.332 7 125507218.277 7  22262029.981 0  22262034.622 0
 88  3  2 10 10 59.0800000  0  3  3 13 12
 -48804730.644 7 145784514.435 7  21447904.907 0  21447905.246 0
   2641118.699 7  57671011.338 7  21877125.776 0  21877128.350 0
   6678672.339 8 125578227.884 6  22279371.977 0  22279375.819 0
 88  3  2 10 11 29.0800000  0  3  3 13 12
 -48831110.439 7 145763958.749 6  21442883.710 0  21442886.912 0
   2679290.396 8  57700755.504 7  21884390.640 0  21884391.846 0
   6770121.495 7 125649486.955 7  22296775.624 0  22296777.757 0
 88  3  2 10 11 59.0800000  0  3  3 13 12
 -48857391.487 7 145743480.032 7  21437882.922 0  21437884.421 0
   2717511.427 8  57730538.127 6  21891663.602 0  21891666.140 0
   6861887.502 8 125720992.914 7  22314237.382 0  22314240.661 0
 88  3  2 10 12 29.0800000  0  3  3 13 12
 -48883574.472 7 145723077.720 7  21432901.690 0  21432902.460 0
   2755781.853 7  57760359.239 7  21898946.408 0  21898946.769 0
   6953966.698 8 125792742.934 7  22331759.417 0  22331762.677 0
 88  3  2 10 12 59.0800000  0  3  3 13 12
 -48909659.456 7 145702751.778 7  21427937.402 0  21427939.501 0
   2794101.372 7  57790218.604 7  21906237.800 0  21906239.509 0
   7046355.927 7 125864734.547 6  22349340.802 0  22349343.570 0
 88  3  2 10 13 29.0800000  0  3  3 13 12
 -48935646.467 7 145682502.154 7  21422992.198 0  21422993.917 0
   2832469.989 8  57820116.217 7  21913539.095 0  21913540.257 0
   7139051.358 7 125936964.724 6  22366980.102 0  22366982.624 0
 88  3  2 10 13 59.0800000  0  3  3 13 12
 -48961536.199 7 145662328.349 7  21418065.427 0  21418067.303 0
   2870887.490 7  57850051.937 6  21920849.888 0  21920851.827 0
   7232049.588 8 126009430.898 6  22384677.087 0  22384679.704 0
 88  3  2 10 14 29.0800000  0  3  3 13 12
 -48987329.048 7 145642230.038 6  21413156.877 0  21413157.772 0
   2909353.381 7  57880025.349 6  21928169.500 0  21928170.520 0
   7325347.277 7 126082130.398 6  22402431.057 0  22402433.171 0
 88  3  2 10 14 59.0800000  0  3  3 13 12
 -49013024.986 7 145622207.227 6  21408267.070 0  21408269.329 0
   2947868.771 7  57910037.322 7  21935498.468 0  21935499.988 0
   7418941.115 7 126155060.648 7  22420240.614 0  22420243.587 0
 88  3  2 10 15 29.0800000  0  3  3 13 12
 -49038624.513 7 145602259.563 6  21403395.900 0  21403397.818 0
   2986433.241 7  57940087.563 6  21942837.540 0  21942838.691 0
   7512827.333 7 126228218.736 6  22438107.130 0  22438110.769 0
 88  3  2 10 15 59.0800000  0  3  3 13 12
 -49064127.965 7 145582386.750 6  21398543.791 0  21398545.139 0
   3025046.834 7  57970176.089 7  21950185.824 0  21950186.014 0
   7607002.773 7 126301602.198 6  22456027.921 0  22456030.137 0
 88  3  2 10 16 29.0800000  0  3  3 13 12
 -49089535.264 7 145562588.874 6  21393708.652 0  21393708.931 0
   3063708.912 7  58000302.389 6  21957541.778 0  21957542.986 0
   7701464.133 7 126375208.445 6  22474004.082 0  22474006.595 0
 88  3  2 10 16 59.0800000  0  3  3 13 12
 -49114846.400 7 145542865.920 7  21388892.446 0  21388892.438 0
   3102420.246 7  58030467.049 7  21964908.951 0  21964911.678 0
   7796207.476 7 126449034.419 6  22492032.984 0  22492036.044 0
 88  3  2 10 17 29.0800000  0  3  3 13 12
 -49140061.894 7 145523217.471 7  21384093.853 0  21384095.002 0
   3141180.219 7  58060669.629 7  21972284.195 0  21972286.719 0
   7891229.479 7 126523077.524 6  22510115.852 0  22510117.551 0
 88  3  2 10 17 59.0800000  0  3  3 13 12
 -49165181.880 7 145503643.477 6  21379313.884 0  21379314.774 0
   3179989.528 7  58090910.649 6  21979670.831 0  21979670.849 0
   7986526.839 8 126597335.205 6  22528249.636 0  22528251.575 0
 88  3  2 10 18 29.0800000  0  3  3 13 12
 -49190206.699 7 145484143.628 7  21374551.292 0  21374551.603 0
   3218847.376 7  58121189.494 6  21987064.392 0  21987064.852 0
   8082095.947 8 126671804.646 6  22546436.293 0  22546436.577 0
 88  3  2 10 18 59.0800000  0  3  3 13 12
 -49215136.622 7 145464717.718 7  21369807.010 0  21369807.200 0
   3257754.514 7  58151506.730 6  21994467.079 0  21994470.491 0
   8177933.478 7 126746483.210 6  22564673.790 0  22564675.841 0
 88  3  2 10 19 29.0800000  0  3  3 13 12
 -49239971.839 7 145445365.628 7  21365080.432 0  21365080.238 0
   3296710.865 7  58181862.323 7  22001881.817 0  22001883.238 0
   8274036.119 7 126821368.373 7  22582960.994 0  22582962.615 0
 88  3  2 10 19 59.0800000  0  3  3 13 12
 -49264712.237 7 145426087.404 7  21360373.332 0  21360374.285 0
   3335716.560 7  58212256.389 6  22009304.394 0  22009305.476 0
   8370399.893 8 126896457.022 7  22601298.197 0  22601300.713 0
 88  3  2 10 20 29.0800000  0  3  3 13 12
 -49289358.313 7 145406882.677 6  21355683.466 0  21355683.420 0
   3374771.811 8  58242689.048 6  22016736.420 0  22016737.282 0
   8467021.331 8 126971746.443 6  22619683.664 0  22619688.199 0
 88  3  2 10 20 59.0800000  0  3  3 13 12
 -49313910.230 7 145387751.311 6  21351010.747 0  21351012.532 0
   3413876.601 7  58273160.319 6  22024177.713 0  22024178.493 0
   8563897.438 8 127047234.293 7  22638119.112 0  22638121.809 0
 88  3  2 10 21 29.0800000  0  3  3 13 12
 -49338367.734 7 145368693.521 6  21346356.390 0  21346357.805 0
   3453030.931 7  58303670.180 7  22031628.599 0  22031629.031 0
   8661024.479 7 127122917.692 6  22656602.064 0  22656605.280 0
 88  3  2 10 21 59.0800000  0  3  3 13 12
 -49362731.226 7 145349708.999 6  21341720.497 0  21341722.126 0
   3492234.757 7  58334218.604 6  22039088.839 0  22039090.430 0
   8758398.765 7 127198793.736 6  22675131.771 0  22675134.625 0
 88  3  2 10 22 29.0800000  0  3  3 13 12
 -49387000.895 7 145330797.581 6  21337101.588 0  21337102.327 0
   3531488.210 7  58364805.729 6  22046558.351 0  22046559.127 0
   8856016.703 7 127274859.649 7  22693706.438 0  22693710.702 0
 88  3  2 10 22 59.0800000  0  3  3 13 12
 -49411176.637 7 145311959.359 6  21332501.869 0  21332502.078 0
   3570791.566 7  58395431.718 6  22054036.963 0  22054038.156 0
   8953874.788 7 127351112.691 7  22712329.729 0  22712332.906 0
 88  3  2 10 23 29.0800000  0  3  3 13 12
 -49435258.672 7 145293194.145 7  21327918.273 0  21327919.193 0
   3610144.945 7  58426096.696 7  22061527.141 0  22061527.218 0
   9051969.424 7 127427550.068 6  22730995.412 0  22730998.385 0
 88  3  2 10 23 59.0800000  0  3  3 13 12
 -49459247.369 7 145274501.663 6  21323354.712 0  21323356.440 0
   3649548.211 7  58456800.540 7  22069024.125 0  22069026.307 0
   9150297.522 8 127504169.348 6  22749706.996 0  22749709.498 0
 88  3  2 10 24 29.0800000  0  3  3 13 12
 -49483142.837 7 145255881.825 6  21318806.976 0  21318807.949 0
   3689001.780 7  58487543.585 7  22076531.962 0  22076531.835 0
   9248855.397 7 127580967.695 6  22768462.223 0  22768464.536 0
 88  3  2 10 24 59.0800000  0  3  3 13 12
 -49506945.180 6 145237334.532 7  21314277.538 0  21314278.536 0
   3728506.123 7  58518326.188 6  22084049.896 0  22084050.587 0
   9347639.667 7 127657942.412 6  22787260.269 0  22787262.912 0
 88  3  2 10 25 29.0800000  0  3  3 13 12
 -49530654.377 7 145218859.847 7  21309766.261 0  21309765.828 0
   3768061.013 7  58549148.168 7  22091577.505 0  22091578.239 0
   9446646.751 7 127735090.794 6  22806101.970 0  22806102.859 0
 88  3  2 10 25 59.0800000  0  3  3 13 12
 -49554270.057 7 145200458.017 6  21305271.995 0  21305273.409 0
   3807666.604 7  58580009.656 6  22099112.666 0  22099115.063 0
   9545873.165 7 127812410.083 6  22824981.564 0  22824985.524 0
 88  3  2 10 26 29.0800000  0  3  3 13 12
 -49577792.474 7 145182128.873 6  21300795.519 0  21300797.456 0
   3847323.337 7  58610911.013 7  22106659.076 0  22106661.129 0
   9645315.457 7 127889897.586 6  22843906.629 0  22843907.698 0
 88  3  2 10 26 59.0800000  0  3  3 13 12
 -49601221.619 7 145163872.404 7  21296337.795 0  21296337.833 0
   3887031.260 7  58641852.260 7  22114215.620 0  22114216.153 0
   9744969.349 7 127967549.967 6  22862870.387 0  22862872.196 0
 88  3  2 10 27 29.0800000  0  3  3 13 12
 -49624558.045 7 145145688.179 7  21291896.890 0  21291897.694 0
   3926790.928 7  58672833.816 6  22121780.947 0  22121783.969 0
   9844832.200 8 128045365.170 7  22881873.489 0  22881875.983 0
 88  3  2 10 27 59.0800000  0  3  3 13 12
 -49647801.481 6 145127576.418 6  21287474.222 0  21287474.637 0
   3966602.238 7  58703855.622 7  22129357.576 0  22129358.099 0
   9944900.402 7 128123340.404 7  22900916.112 0  22900917.547 0
 88  3  2 10 28 29.0800000  0  3  3 13 12
 -49670952.024 7 145109537.055 6  21283067.465 0  21283068.819 0
   4006465.360 7  58734917.792 7  22136943.452 0  22136943.616 0
  10045170.129 7 128201472.635 7  22919996.779 0  22919999.889 0
 88  3  2 10 28 59.0800000  0  3  3 13 12
 -49694009.735 7 145091570.001 6  21278681.188 0  21278681.890 0
   4046380.233 7  58766020.279 7  22144537.428 0  22144540.193 0
  10145637.998 7 128279759.268 7  22939114.361 0  22939117.148 0
 88  3  2 10 29 29.0800000  0  3  3 13 12
 -49716974.670 7 145073675.253 6  21274310.022 0  21274311.818 0
   4086347.416 7  58797163.547 7  22152143.363 0  22152145.902 0
  10246300.742 7 128358197.765 6  22958270.850 0  22958273.209 0
 88  3  2 10 29 59.0800000  0  3  3 13 12
 -49739846.689 7 145055852.911 6  21269958.082 0  21269959.061 0
   4126366.970 7  58828347.632 6  22159758.657 0  22159760.481 0
  10347154.130 7 128436784.849 7  22977463.155 0  22977464.603 0
 88  3  2 10 30 29.0800000  0  3  3 13 12
 -49762625.823 7 145038102.944 6  21265623.387 0  21265623.595 0
   4166439.238 7  58859572.759 6  22167385.144 0  22167387.398 0
  10448195.109 7 128515518.039 6  22996689.272 0  22996692.238 0
 88  3  2 10 30 59.0800000  0  3  3 13 12
 -49785312.057 7 145020425.376 7  21261307.156 0  21261308.283 0
   4206564.781 7  58890839.423 6  22175021.216 0  22175021.992 0
  10549420.254 7 128594394.785 6  23015951.858 0  23015954.044 0
 88  3  2 10 31 29.0800000  0  3  3 13 12
 -49807905.266 7 145002820.284 7  21257007.576 0  21257007.512 0
   4246743.736 7  58922147.689 7  22182667.306 0  22182667.625 0
  10650825.906 7 128673412.203 6  23035248.769 0  23035251.042 0
 88  3  2 10 31 59.0800000  0  3  3 13 12
 -49830405.167 7 144985287.896 7  21252725.766 0  21252726.040 0
   4286976.322 7  58953497.754 6  22190321.665 0  22190323.070 0
  10752408.803 7 128752567.675 6  23054578.400 0  23054582.976 0
 88  3  2 10 32 29.0800000  0  3  3 13 12
 -49852812.067 7 144967827.990 6  21248461.964 0  21248462.600 0
   4327262.417 7  58984889.513 7  22197988.872 0  22197990.138 0
  10854165.092 7 128831858.282 7  23073943.930 0  23073945.387 0
 88  3  2 10 32 59.0800000  0  3  3 13 12
 -49875125.714 7 144950440.741 7  21244215.654 0  21244215.772 0
   4367603.368 7  59016324.014 6  22205665.956 0  22205667.965 0
  10956091.173 7 128911281.175 7  23093338.789 0  23093341.719 0
 88  3  2 10 33 29.0800000  0  3  3 13 12
 -49897346.030 7 144933126.226 6  21239986.116 0  21239988.761 0
   4407998.534 7  59047800.759 7  22213351.336 0  22213354.734 0
  11058183.087 8 128990833.322 7  23112765.759 0  23112768.825 0
 88  3  2 10 33 59.0800000  0  3  3 13 12
 -49919472.747 7 144915884.625 6  21235775.336 0  21235776.834 0
   4448448.574 7  59079320.287 7  22221050.026 0  22221051.464 0
  11160438.118 8 129070512.552 7  23132224.757 0  23132227.746 0
 88  3  2 10 34 29.0800000  0  3  3 13 12
 -49941506.292 7 144898715.654 6  21231581.976 0  21231584.892 0
   4488953.639 7  59110882.665 7  22228758.271 0  22228758.863 0
  11262852.836 7 129150316.214 6  23151713.226 0  23151717.073 0
 88  3  2 10 34 59.0800000  0  3  3 13 12
 -49963446.395 7 144881619.483 7  21227408.793 0  21227409.464 0
   4529514.224 7  59142488.289 7  22236475.279 0  22236477.816 0
  11365423.558 7 129230241.452 6  23171232.703 0  23171234.119 0
 88  3  2 10 35 29.0800000  0  3  3 13 12
 -49985293.019 7 144864596.149 6  21223251.279 0  21223251.855 0
   4570130.263 7  59174137.140 6  22244204.619 0  22244205.908 0
  11468146.525 7 129310285.302 7  23190779.298 0  23190782.723 0
 88  3  2 10 35 59.0800000  0  3  3 13 12
 -50007046.137 7 144847645.678 6  21219111.721 0  21219112.180 0
   4610802.508 7  59205829.794 6  22251943.886 0  22251945.909 0
  11571018.229 7 129390445.064 7  23210354.744 0  23210357.954 0
 88  3  2 10 36 29.0800000  0  3  3 13 12
 -50028705.444 7 144830768.302 6  21214989.581 0  21214991.311 0
   4651530.993 6  59237566.257 6  22259694.633 0  22259696.655 0
  11674035.088 8 129470717.964 6  23229958.982 0  23229961.628 0
 88  3  2 10 36 59.0800000  0  3  3 13 12
 -50050270.585 7 144813964.297 6  21210885.801 0  21210887.120 0
   4692315.980 7  59269346.754 7  22267457.027 0  22267458.006 0
  11777194.031 8 129551101.568 7  23249589.457 0  23249591.443 0
 88  3  2 10 37 29.0800000  0  3  3 13 12
 -50071741.826 7 144797233.466 7  21206800.155 0  21206800.924 0
   4733158.273 7  59301171.912 7  22275227.920 0  22275229.900 0
  11880491.242 8 129631592.888 7  23269247.189 0  23269248.631 0
 88  3  2 10 37 59.0800000  0  3  3 13 12
 -50093119.001 7 144780575.927 6  21202731.758 0  21202733.431 0
   4774058.319 7  59333042.073 7  22283010.491 0  22283013.429 0
  11983923.362 8 129712189.357 7  23288929.155 0  23288931.414 0
 88  3  2 10 38 29.0800000  0  3  3 13 12
 -50114401.551 7 144763992.149 7  21198681.977 0  21198682.947 0
   4815016.037 7  59364957.167 7  22290804.650 0  22290806.300 0
  12087486.980 7 129792888.296 7  23308636.568 0  23308638.590 0
 88  3  2 10 38 59.0800000  0  3  3 13 12
 -50135589.680 8 144747481.938 7  21194650.728 0  21194651.186 0
   4856032.032 7  59396917.661 7  22298610.115 0  22298611.606 0
  12191178.333 7 129873686.770 7  23328367.981 0  23328370.076 0
 88  3  2 10 39 29.0800000  0  3  3 13 12
 -50156683.272 7 144731045.384 7  21190636.452 0  21190637.369 0
   4897106.462 7  59428923.717 7  22306426.481 0  22306428.046 0
  12294994.176 7 129954582.249 6  23348123.881 0  23348125.453 0
 88  3  2 10 39 59.0800000  0  3  3 13 12
 -50177682.143 7 144714682.629 6  21186640.042 0  21186641.765 0
   4938239.993 7  59460975.824 7  22314253.638 0  22314255.358 0
  12398930.587 8 130035571.653 6  23367901.476 0  23367905.275 0
 88  3  2 10 40 29.0800000  0  3  3 13 12
 -50198585.333 8 144698394.429 6  21182662.291 0  21182663.587 0
   4979433.300 7  59493074.503 7  22322091.984 0  22322094.038 0
  12502984.367 7 130116652.503 6  23387702.702 0  23387706.123 0
 88  3  2 10 40 59.0800000  0  3  3 13 12
 -50219393.145 7 144682180.562 6  21178702.777 0  21178703.146 0
   5020686.259 7  59525219.667 6  22329943.469 0  22329944.002 0
  12607152.296 7 130197822.298 6  23407525.703 0  23407528.246 0
 88  3  2 10 41 29.0800000  0  3  3 13 12
 -50240105.014 7 144666041.454 7  21174761.259 0  21174761.625 0
   5061999.069 8  59557411.465 7  22337804.997 0  22337805.531 0
  12711430.779 7 130279078.309 7  23427368.962 0  23427370.940 0
 88  3  2 10 41 59.0800000  0  3  3 13 12
 -50260721.606 8 144649976.574 6  21170839.236 0  21170838.973 0
   5103372.711 7  59589650.647 6  22345678.600 0  22345680.365 0
  12815815.971 8 130360417.447 6  23447233.177 0  23447235.605 0
 88  3  2 10 42 29.0800000  0  3  3 13 12
 -50281242.343 7 144633986.385 7  21166934.279 0  21166934.421 0
   5144807.249 7  59621937.309 6  22353563.195 0  22353563.757 0
  12920304.632 7 130441837.191 7  23467117.196 0  23467118.465 0
 88  3  2 10 42 59.0800000  0  3  3 13 12
 -50301666.610 7 144618071.383 6  21163047.651 0  21163048.247 0
   5186303.739 7  59654272.236 7  22361459.407 0  22361460.141 0
  13024893.021 7 130523334.622 7  23487018.869 0  23487020.519 0
 88  3  2 10 43 29.0800000  0  3  3 13 12
 -50321994.235 7 144602231.674 6  21159178.858 0  21159179.567 0
   5227862.033 7  59686655.319 7  22369367.468 0  22369368.390 0
  13129577.835 6 130604907.195 6  23506938.466 0  23506941.886 0
 88  3  2 10 43 59.0800000  0  3  3 13 12
 -50342224.899 7 144586467.522 7  21155328.877 0  21155328.906 0
   5269482.631 7  59719086.942 6  22377287.777 0  22377289.473 0
  13234355.899 7 130686552.450 6  23526879.007 0  23526880.071 0
 88  3  2 10 44 29.0800000  0  3  3 13 12
 -50362358.113 7 144570779.309 7  21151498.004 0  21151498.660 0
   5311166.877 6  59751568.161 6  22385219.423 0  22385221.560 0
  13339223.544 7 130768267.519 6  23546834.021 0  23546836.151 0
 88  3  2 10 44 59.0800000  0  3  3 13 12
 -50382393.869 7 144555167.032 7  21147685.033 0  21147686.162 0
   5352914.386 7  59784098.673 7  22393163.142 0  22393165.107 0
  13444177.388 7 130850049.749 7  23566806.834 0  23566806.932 0
 88  3  2 10 45 29.0800000  0  3  3 13 12
 -50402332.176 7 144539630.718 6  21143890.865 0  21143892.334 0
   5394724.895 7  59816678.295 7  22401120.255 0  22401122.979 0
  13549214.181 7 130931896.602 6  23586794.257 0  23586796.609 0
 88  3  2 10 45 59.0800000  0  3  3 13 12
 -50422172.659 7 144524170.610 6  21140115.253 0  21140117.222 0
   5436599.748 7  59849308.031 7  22409089.130 0  22409089.993 0
  13654330.235 7 131013805.235 7  23606796.462 0  23606800.244 0
 88  3  2 10 46 29.0800000  0  3  3 13 12
 -50441914.740 8 144508787.157 7  21136358.510 0  21136358.626 0
   5478539.704 7  59881988.504 7  22417068.594 0  22417071.088 0
  13759522.153 7 131095772.993 7  23626813.412 0  23626816.966 0
 88  3  2 10 46 59.0800000  0  3  3 13 12
 -50461558.054 7 144493480.688 7  21132620.291 0  21132622.758 0
   5520544.808 7  59914719.727 7  22425061.823 0  22425064.274 0
  13864786.493 8 131177797.164 7  23646844.392 0  23646847.238 0
 88  3  2 10 47 29.0800000  0  3  3 13 12
 -50481102.679 8 144478251.109 7  21128901.021 0  21128902.497 0
   5562615.931 7  59947502.411 7  22433068.360 0  22433071.054 0
  13970119.931 7 131259875.151 6  23666889.875 0  23666891.783 0
 88  3  2 10 47 59.0800000  0  3  3 13 12
 -50500548.048 7 144463098.881 6  21125201.186 0  21125201.342 0
   5604753.177 7  59980336.635 6  22441088.605 0  22441088.967 0
  14075518.686 7 131342004.053 6  23686946.805 0  23686948.555 0
 88  3  2 10 48 29.0800000  0  3  3 13 12
 -50519893.561 7 144448024.471 7  21121519.094 0  21121520.363 0
   5646956.872 7  60013222.616 6  22449118.723 0  22449120.645 0
  14180979.389 8 131424181.257 6  23707015.511 0  23707017.720 0
 88  3  2 10 48 59.0800000  0  3  3 13 12
 -50539138.762 7 144433028.205 7  21117857.287 0  21117857.764 0
   5689227.744 7  60046160.951 7  22457161.548 0  22457164.686 0
  14286498.618 7 131506404.056 6  23727095.787 0  23727097.008 0
 88  3  2 10 49 29.0800000  0  3  3 13 12
 -50558283.644 7 144418110.123 6  21114213.197 0  21114214.469 0
   5731566.426 6  60079152.142 7  22465218.368 0  22465219.789 0
  14392073.045 7 131588669.871 6  23747185.757 0  23747187.508 0
 88  3  2 10 49 59.0800000  0  3  3 13 12
 -50577327.791 7 144403270.535 7  21110590.446 0  21110591.006 0
   5773973.419 7  60112196.547 6  22473288.952 0  22473290.559 0
  14497699.097 7 131670975.890 6  23767284.506 0  23767286.557 0
 88  3  2 10 50 29.0800000  0  3  3 13 12
 -50596270.574 7 144388509.933 7  21106985.688 0  21106986.230 0
   5816449.203 7  60145294.554 7  22481372.473 0  22481373.206 0
  14603373.696 7 131753319.746 6  23787393.857 0  23787395.615 0
 88  3  2 10 50 59.0800000  0  3  3 13 12
 -50615111.703 7 144373828.513 6  21103401.017 0  21103400.719 0
   5858994.432 7  60178446.679 7  22489469.100 0  22489469.276 0
  14709093.574 7 131835698.900 7  23807510.478 0  23807514.046 0
 88  3  2 10 51 29.0800000  0  3  3 13 12
 -50633850.896 7 144359226.552 6  21099834.226 0  21099834.510 0
   5901609.154 7  60211652.936 6  22497576.917 0  22497579.583 0
  14814854.985 7 131918110.403 7  23827636.951 0  23827638.994 0
 88  3  2 10 51 59.0800000  0  3  3 13 12
 -50652487.788 7 144344704.322 6  21096287.453 0  21096288.896 0
   5944294.395 7  60244914.158 6  22505699.502 0  22505701.352 0
  14920654.803 7 132000551.840 6  23847770.120 0  23847772.865 0
 88  3  2 10 52 29.0800000  0  3  3 13 12
 -50671021.378 7 144330262.561 7  21092761.121 0  21092763.577 0
   5987050.452 6  60278230.555 6  22513835.823 0  22513838.975 0
  15026489.320 7 132083020.334 6  23867909.764 0  23867912.331 0
 88  3  2 10 52 59.0800000  0  3  3 13 12
 -50689451.435 7 144315901.483 7  21089252.811 0  21089254.777 0
   6029878.016 7  60311602.683 6  22521985.480 0  22521987.102 0
  15132355.371 7 132165513.342 6  23888055.404 0  23888058.278 0
 88  3  2 10 53 29.0800000  0  3  3 13 12
 -50707777.825 7 144301621.200 6  21085765.450 0  21085767.115 0
   6072777.816 7  60345031.074 7  22530148.502 0  22530150.181 0
  15238249.639 7 132248028.361 6  23908206.968 0  23908208.297 0
 88  3  2 10 53 59.0800000  0  3  3 13 12
 -50725999.968 7 144287422.126 7  21082298.808 0  21082300.184 0
   6115750.273 7  60378516.099 6  22538326.062 0  22538326.883 0
  15344168.622 7 132330562.639 7  23928361.301 0  23928365.505 0
 88  3  2 10 54 29.0800000  0  3  3 13 12
 -50744117.468 7 144273304.588 6  21078850.676 0  21078853.682 0
   6158795.714 7  60412057.998 6  22546518.790 0  22546520.870 0
  15450109.018 7 132413113.614 7  23948521.736 0  23948523.258 0
 88  3  2 10 54 59.0800000  0  3  3 13 12
 -50762129.706 7 144259269.086 6  21075423.324 0  21075425.240 0
   6201914.924 7  60445657.384 7  22554723.109 0  22554725.818 0
  15556067.305 6 132495678.498 6  23968682.987 0  23968686.848 0
 88  3  2 10 55 29.0800000  0  3  3 13 12
 -50780035.846 7 144245316.248 7  21072015.260 0  21072017.506 0
   6245108.370 7  60479314.596 7  22562942.166 0  22562943.573 0
  15662040.539 7 132578255.053 6  23988850.220 0  23988854.424 0
 88  3  2 10 55 59.0800000  0  3  3 13 12
 -50797835.732 7 144231446.215 6  21068627.165 0  21068630.154 0
   6288376.996 7  60513030.380 7  22571175.232 0  22571177.767 0
  15768025.122 7 132660840.453 6  24009017.986 0  24009021.844 0
 88  3  2 10 56 29.0800000  0  3  3 13 12
 -50815528.695 7 144217659.507 7  21065261.368 0  21065264.015 0
   6331721.007 7  60546804.937 6  22579425.069 0  22579426.581 0
  15874017.505 7 132743431.948 6  24029188.738 0  24029191.341 0
 88  3  2 10 56 59.0800000  0  3  3 13 12
 -50833114.057 7 144203956.646 7  21061915.273 0  21061916.272 0
   6375141.111 8  60580638.772 7  22587686.912 0  22587688.193 0
  15980014.479 7 132826027.026 6  24049359.420 0  24049361.462 0
 88  3  2 10 57 29.0800000  0  3  3 13 12
 -50850591.938 7 144190337.536 7  21058590.281 0  21058590.533 0
   6418637.426 7  60614531.999 6  22595964.921 0  22595964.822 0
  16086012.983 8 132908623.268 6  24069529.836 0  24069532.288 0
 88  3  2 10 57 59.0800000  0  3  3 13 12
 -50867961.608 7 144176802.727 6  21055284.549 0  21055285.014 0
   6462211.537 7  60648485.823 6  22604256.994 0  22604258.626 0
  16192009.566 7 132991218.029 7  24089700.194 0  24089703.327 0
 88  3  2 10 58 29.0800000  0  3  3 13 12
 -50885222.196 7 144163352.899 6  21051999.410 0  21052000.504 0
   6505863.739 7  60682500.513 7  22612563.557 0  22612565.517 0
  16298001.045 7 133073808.783 7  24109870.046 0  24109872.439 0
 88  3  2 10 58 59.0800000  0  3  3 13 12
 -50902373.478 7 144149988.275 6  21048735.529 0  21048736.218 0
   6549593.983 7  60716576.015 7  22620884.353 0  22620886.796 0
  16403983.683 7 133156392.649 7  24130037.737 0  24130041.297 0
 88  3  2 10 59 29.0800000  0  3  3 13 12
 -50919414.654 7 144136709.432 6  21045493.673 0  21045494.295 0
   6593403.313 6  60750713.156 6  22629221.071 0  22629224.659 0
  16509954.543 7 133238967.371 7  24150203.753 0  24150206.358 0
 88  3  2 10 59 59.0800000  0  3  3 13 12
 -50936345.103 8 144123516.884 7  21042271.467 0  21042272.158 0
   6637292.719 7  60784912.673 7  22637572.747 0  22637574.489 0
  16615910.581 8 133321530.550 7  24170366.348 0  24170368.048 0
 88  3  2 11  0 29.0800000  0  3  3 13 12
 -50953163.835 7 144110411.382 6  21039070.089 0  21039071.262 0
   6681262.323 7  60819174.678 7  22645940.830 0  22645942.465 0
  16721848.229 7 133404079.391 7  24190526.281 0  24190527.834 0
 88  3  2 11  0 59.0800000  0  3  3 13 12
 -50969871.049 7 144097392.798 6  21035891.646 0  21035891.174 0
   6725312.984 7  60853499.859 7  22654323.372 0  22654324.708 0
  16827764.084 7 133486611.219 7  24210681.067 0  24210683.655 0
 88  3  2 11  1 29.0800000  0  3  3 13 12
 -50986465.921 7 144084461.727 6  21032733.556 0  21032734.172 0
   6769445.253 7  60887888.631 7  22662720.866 0  22662723.815 0
  16933654.789 7 133569123.462 7  24230830.619 0  24230834.123 0
 88  3  2 11  1 59.0800000  0  3  3 13 12
 -51002947.351 7 144071619.052 6  21029596.523 0  21029597.062 0
   6813659.769 7  60922341.484 6  22671135.223 0  22671136.594 0
  17039517.874 7 133651614.187 6  24250976.430 0  24250977.904 0
 88  3  2 11  2 29.0800000  0  3  3 13 12
 -51019315.218 6 144058864.850 5  21026481.201 0  21026484.240 0
   6857957.616 7  60956859.272 7  22679564.457 0  22679566.342 0
  17145349.241 7 133734080.192 6  24271114.868 0  24271117.070 0
 88  3  2 11  2 59.0800000  0  3  3 13 12
 -51035568.902 7 144046199.640 7  21023389.323 0  21023391.255 0
   6902338.433 7  60991441.718 7  22688009.235 0  22688011.279 0
  17251145.902 7 133816519.154 7  24291248.190 0  24291249.311 0
 88  3  2 11  3 29.0800000  0  3  3 13 12
 -51051707.440 7 144033624.167 6  21020318.735 0  21020318.717 0
   6946802.873 7  61026089.326 7  22696472.476 0  22696472.420 0
  17356904.636 7 133898928.563 6  24311372.322 0  24311375.470 0
 88  3  2 11  3 59.0800000  0  3  3 13 12
 -51067730.361 7 144021138.761 6  21017270.123 0  21017271.152 0
   6991352.414 8  61060803.225 7  22704948.671 0  22704950.768 0
  17462622.251 7 133981305.923 7  24331489.762 0  24331493.334 0
 88  3  2 11  4 29.0800000  0  3  3 13 12
 -51083636.908 6 144008744.051 5  21014241.641 0  21014243.120 0
   7035987.862 8  61095584.093 7  22713442.295 0  22713444.042 0
  17568295.370 7 134063648.634 6  24351599.024 0  24351601.735 0
 88  3  2 11  4 59.0800000  0  3  3 13 12
 -51099426.385 6 143996440.573 5  21011237.263 0  21011239.437 0
   7080709.542 8  61130432.142 7  22721952.771 0  22721955.348 0
  17673921.114 7 134145954.445 6  24371698.822 0  24371701.845 0
 88  3  2 11  5 29.0800000  0  3  3 13 12
 -51115098.129 3 143984228.821 3  21008255.782 0  21008255.362 0
   7125517.536 7  61165347.439 7  22730479.016 0  22730481.094 0
  17779496.022 7 134228220.635 6  24391789.865 0  24391791.363 0
 88  3  2 11  5 59.0800000  0  3  3 13 12
 -51130651.640 4 143972109.199 3  21005297.238 0  21005296.455 0
   7170413.098 7  61200330.991 7  22739022.750 0  22739025.400 0
  17885017.004 7 134310444.797 6  24411869.191 0  24411871.900 0
 88  3  2 11  6 29.0800000  0  3  3 13 12
 -51146086.048 7 143960082.393 6  21002358.338 0  21002360.734 0
   7215396.865 7  61235383.271 7  22747583.433 0  22747584.503 0
  17990480.542 7 134392624.190 6  24431938.559 0  24431941.680 0
 88  3  2 11  6 59.0800000  0  3  3 13 12
 -51161400.788 6 143948148.838 6  20999443.156 0  20999446.095 0
   7260469.132 8  61270504.498 6  22756159.902 0  22756162.969 0
  18095883.467 8 134474756.351 7  24451995.543 0  24451998.807 0
 88  3  2 11  7 29.0800000  0  3  3 13 12
 -51176594.934 7 143936309.224 6  20996552.272 0  20996555.193 0
   7305630.949 7  61305695.503 7  22764754.461 0  22764755.946 0
  18201222.767 7 134556838.930 6  24472040.799 0  24472043.505 0
 88  3  2 11  7 59.0800000  0  3  3 13 12
 -51191667.614 7 143924564.268 6  20993685.703 0  20993686.675 0
   7350882.675 7  61340956.570 7  22773365.301 0  22773367.558 0
  18306495.622 7 134638869.747 7  24492073.087 0  24492076.813 0
 88  3  2 11  8 29.0800000  0  2  3 13
 -51206618.408 7 143912914.314 6  20990840.699 0  20990841.340 0
   7396225.149 7  61376288.357 7  22781994.025 0  22781996.550 0
 88  3  2 11  8 59.0800000  0  2  3 13
 -51221446.311 7 143901360.104 7  20988018.413 0  20988019.903 0
   7441659.373 7  61411691.648 6  22790640.528 0  22790640.825 0
 88  3  2 11  9 29.0800000  0  2  3 13
 -51236150.651 7 143889902.185 7  20985219.716 0  20985221.994 0
   7487185.278 7  61447166.368 6  22799303.346 0  22799303.935 0
 88  3  2 11  9 59.0800000  0  2  3 13
 -51250730.544 7 143878541.243 7  20982445.237 0  20982446.175 0
   7532804.228 7  61482713.580 7  22807983.471 0  22807986.154 0
 88  3  2 11 10 29.0800000  0  2  3 13
 -51265185.321 7 143867277.764 7  20979695.578 0  20979696.510 0
   7578516.936 7  61518333.851 7  22816682.227 0  22816683.955 0
 88  3  2 11 10 59.0800000  0  2  3 13
 -51279514.234 7 143856112.375 7  20976968.162 0  20976970.151 0
   7624323.728 7  61554027.416 6  22825399.441 0  22825402.150 0
 88  3  2 11 11 29.0800000  0  2  3 13
 -51293716.215 7 143845045.893 7  20974264.979 0  20974266.249 0
   7670225.878 6  61589795.310 7  22834133.265 0  22834136.492 0
 88  3  2 11 11 59.0800000  0  2  3 13
 -51307790.627 6 143834078.821 6  20971587.477 0  20971589.874 0
   7716223.650 7  61625637.709 7  22842886.904 0  22842889.562 0
 88  3  2 11 12 29.0800000  0  2  3 13
 -51321736.537 7 143823211.884 6  20968932.199 0  20968935.430 0
   7762317.599 7  61661555.065 6  22851657.753 0  22851660.210 0
 88  3  2 11 12 59.0800000  0  2  3 13
 -51335553.500 7 143812445.403 7  20966303.132 0  20966305.833 0
   7808509.151 7  61697548.459 6  22860448.140 0  22860449.413 0
 88  3  2 11 13 29.0800000  0  2  3 13
 -51349240.296 7 143801780.379 7  20963700.686 0  20963700.693 0
   7854798.611 7  61733618.130 7  22869257.272 0  22869258.367 0
 88  3  2 11 13 59.0800000  0  2  3 13
 -51362795.812 7 143791217.630 6  20961119.999 0  20961121.266 0
   7901186.618 7  61769764.608 6  22878084.759 0  22878087.194 0
 88  3  2 11 14 29.0800000  0  2  3 13
 -51376219.549 7 143780757.587 6  20958566.231 0  20958566.331 0
   7947673.694 7  61805988.284 6  22886931.499 0  22886932.353 0
 88  3  2 11 14 59.0800000  0  2  3 13
 -51389510.488 7 143770401.002 7  20956036.496 0  20956037.128 0
   7994260.530 7  61842289.693 6  22895795.674 0  22895797.949 0
 88  3  2 11 15 29.0800000  0  2  3 13
 -51402667.757 7 143760148.592 6  20953532.537 0  20953533.325 0
   8040947.886 7  61878669.443 6  22904680.799 0  22904682.318 0
 88  3  2 11 15 59.0800000  0  2  3 13
 -51415691.182 7 143750000.482 6  20951054.962 0  20951055.852 0
   8087736.601 8  61915128.186 6  22913583.887 0  22913585.703 0
 88  3  2 11 16 29.0800000  0  2  3 13
 -51428579.525 7 143739957.622 6  20948601.678 0  20948602.773 0
   8134627.887 7  61951666.838 6  22922507.219 0  22922508.488 0
 88  3  2 11 16 59.0800000  0  2  3 13
 -51441331.481 7 143730021.042 6  20946176.122 0  20946177.057 0
   8181621.546 7  61988285.258 6  22931450.286 0  22931450.753 0
 88  3  2 11 17 29.0800000  0  2  3 13
 -51453946.487 7 143720191.158 7  20943775.249 0  20943775.243 0
   8228718.979 8  62024984.539 7  22940412.791 0  22940414.876 0
 88  3  2 11 17 59.0800000  0  2  3 13
 -51466423.207 7 143710469.025 7  20941400.522 0  20941403.467 0
   8275920.856 7  62061765.195 7  22949393.436 0  22949395.138 0
 88  3  2 11 18 29.0800000  0  2  3 13
 -51478760.745 7 143700855.356 6  20939051.093 0  20939053.545 0
   8323227.407 7  62098627.434 6  22958397.326 0  22958398.014 0
 88  3  2 11 18 59.0800000  0  2  3 13
 -51490958.214 7 143691350.858 6  20936732.610 0  20936733.442 0
   8370639.587 7  62135571.970 6  22967418.924 0  22967418.924 0
 88  3  2 11 19 29.0800000  0  2  3 13
 -51503015.145 7 143681955.838 6  20934436.900 0  20934439.052 0
   8418157.836 7  62172599.183 7  22976462.133 0  22976462.674 0
 88  3  2 11 19 59.0800000  0  2  3 13
 -51514930.690 7 143672671.014 7  20932169.270 0  20932171.426 0
   8465782.996 7  62209709.677 7  22985524.120 0  22985526.376 0
 88  3  2 11 20 29.0800000  0  2  3 13
 -51526703.606 7 143663497.295 6  20929928.713 0  20929930.251 0
   8513516.413 7  62246904.536 7  22994607.447 0  22994609.110 0
 88  3  2 11 20 59.0800000  0  2  3 13
 -51538332.819 7 143654435.578 7  20927716.221 0  20927718.140 0
   8561358.412 7  62284183.983 7  23003712.041 0  23003713.204 0
 88  3  2 11 21 29.0800000  0  2  3 13
 -51549817.256 7 143645486.664 7  20925530.100 0  20925533.770 0
   8609309.768 7  62321548.669 7  23012836.128 0  23012837.960 0
 88  3  2 11 21 59.0800000  0  2  3 13
 -51561156.049 7 143636651.236 6  20923373.018 0  20923374.847 0
   8657371.286 7  62358999.200 6  23021982.987 0  23021984.538 0
 88  3  2 11 22 29.0800000  0  2  3 13
 -51572348.102 7 143627930.167 6  20921244.022 0  20921245.117 0
   8705543.892 7  62396536.273 7  23031149.739 0  23031151.374 0
 88  3  2 11 22 59.0800000  0  2  3 13
 -51583392.536 8 143619324.111 6  20919142.149 0  20919143.845 0
   8753827.988 7  62434160.221 8  23040337.125 0  23040340.620 0
 88  3  2 11 23 29.0800000  0  2  3 13
 -51594288.320 7 143610833.889 7  20917068.936 0  20917069.376 0
   8802223.987 7  62471871.375 7  23049544.779 0  23049549.010 0
 88  3  2 11 23 59.0800000  0  2  3 13
 -51605034.330 7 143602460.379 7  20915023.800 0  20915025.204 0
   8850733.185 7  62509670.728 7  23058778.617 0  23058779.685 0
 88  3  2 11 24 29.0800000  0  2  3 13
 -51615629.656 7 143594204.265 7  20913008.147 0  20913008.963 0
   8899355.775 6  62547558.446 7  23068030.192 0  23068032.042 0
 88  3  2 11 24 59.0800000  0  2  3 13
 -51626073.251 7 143586066.409 6  20911020.607 0  20911020.475 0
   8948092.933 7  62585535.424 7  23077305.191 0  23077306.275 0
 88  3  2 11 25 29.0800000  0  2  3 13
 -51636364.197 7 143578047.501 7  20909062.416 0  20909062.511 0
   8996945.294 6  62623602.168 7  23086598.863 0  23086603.224 0
 88  3  2 11 25 59.0800000  0  2  3 13
 -51646501.133 7 143570148.587 6  20907133.564 0  20907135.110 0
   9045913.594 6  62661759.264 7  23095918.500 0  23095921.014 0
 88  3  2 11 26 29.0800000  0  2  3 13
 -51656483.269 7 143562370.287 7  20905232.442 0  20905233.905 0
   9094998.358 6  62700007.111 7  23105260.291 0  23105261.201 0
 88  3  2 11 26 59.0800000  0  2  3 13
 -51666309.507 7 143554713.501 6  20903363.372 0  20903364.971 0
   9144200.499 6  62738346.416 7  23114622.014 0  23114624.921 0
 88  3  2 11 27 29.0800000  0  2  3 13
 -51675978.562 6 143547179.162 6  20901523.612 0  20901524.023 0
   9193520.765 7  62776777.763 7  23124005.694 0  23124009.947 0
 88  3  2 11 27 59.0800000  0  2  3 13
 -51685489.512 7 143539768.016 6  20899713.352 0  20899716.171 0
   9242959.764 6  62815301.631 7  23133416.527 0  23133418.094 0
 88  3  2 11 28 29.0800000  0  2  3 13
 -51694841.606 7 143532480.685 7  20897934.749 0  20897935.845 0
   9292518.273 7  62853918.641 7  23142845.146 0  23142848.715 0
 88  3  2 11 28 59.0800000  0  2  3 13
 -51704033.757 8 143525317.951 6  20896184.129 0  20896186.551 0
   9342197.278 7  62892629.531 7  23152299.538 0  23152301.670 0
 88  3  2 11 29 29.0800000  0  2  3 13
 -51713064.400 7 143518281.095 7  20894465.795 0  20894467.380 0
   9391997.341 7  62931434.742 7  23161776.799 0  23161779.326 0
 88  3  2 11 29 59.0800000  0  2  3 13
 -51721932.677 7 143511370.766 6  20892779.283 0  20892780.136 0
   9441919.474 7  62970335.105 6  23171276.250 0  23171279.765 0
 88  3  2 11 30 29.0800000  0  2  3 13
 -51730637.265 7 143504587.966 7  20891122.363 0  20891123.663 0
   9491964.161 7  63009330.951 6  23180800.023 0  23180801.660 0
 88  3  2 11 30 59.0800000  0  2  3 13
 -51739177.260 7 143497933.428 7  20889498.154 0  20889498.383 0
   9542132.102 7  63048422.824 7  23190347.145 0  23190348.276 0
 88  3  2 11 31 29.0800000  0  2  3 13
 -51747551.256 7 143491408.225 7  20887903.420 0  20887904.152 0
   9592424.095 8  63087611.380 7  23199915.809 0  23199918.976 0
 88  3  2 11 31 59.0800000  0  2  3 13
 -51755758.294 7 143485013.135 6  20886342.195 0  20886342.004 0
   9642840.801 7  63126897.124 7  23209511.030 0  23209513.280 0
 88  3  2 11 32 29.0800000  0  2  3 13
 -51763797.677 6 143478748.663 7  20884812.571 0  20884813.790 0
   9693383.139 7  63166280.751 6  23219129.471 0  23219131.638 0
 88  3  2 11 32 59.0800000  0  2  3 13
 -51771667.975 7 143472615.980 7  20883314.167 0  20883315.100 0
   9744051.606 7  63205762.682 7  23228771.346 0  23228772.344 0
 88  3  2 11 33 29.0800000  0  2  3 13
 -51779367.537 6 143466616.303 7  20881849.419 0  20881851.048 0
   9794847.181 7  63245343.636 7  23238437.322 0  23238437.738 0
 88  3  2 11 33 59.0800000  0  2  3 13
 -51786895.531 7 143460750.345 7  20880416.870 0  20880417.824 0
   9845770.388 7  63285024.030 7  23248127.395 0  23248128.627 0
 88  3  2 11 34 29.0800000  0  2  3 13
 -51794250.601 7 143455019.134 7  20879017.313 0  20879018.234 0
   9896821.754 7  63324804.306 7  23257842.196 0  23257842.708 0
 88  3  2 11 34 59.0800000  0  2  3 13
 -51801432.024 6 143449423.214 7  20877651.729 0  20877651.069 0
   9948002.479 7  63364685.374 6  23267581.323 0  23267582.245 0
 88  3  2 11 35 29.0800000  0  2  3 13
 -51808438.587 7 143443963.554 7  20876317.625 0  20876319.463 0
   9999312.558 8  63404667.240 6  23277346.145 0  23277347.246 0
 88  3  2 11 35 59.0800000  0  2  3 13
 -51815268.968 7 143438641.187 7  20875018.455 0  20875018.318 0
  10050753.077 7  63444750.740 7  23287134.715 0  23287135.122 0
 88  3  2 11 36 29.0800000  0  2  3 13
 -51821921.773 6 143433457.180 7  20873750.237 0  20873753.211 0
  10102324.718 7  63484936.417 6  23296949.566 0  23296950.001 0
 88  3  2 11 36 59.0800000  0  2  3 13
 -51828396.051 7 143428412.280 7  20872520.437 0  20872521.187 0
  10154028.394 7  63525224.988 6  23306786.445 0  23306787.584 0
 88  3  2 11 37 29.0800000  0  2  3 13
 -51834690.402 7 143423507.605 7  20871321.077 0  20871322.352 0
  10205864.710 7  63565616.892 7  23316651.242 0  23316653.200 0
 88  3  2 11 37 59.0800000  0  2  3 13
 -51840803.823 7 143418743.902 6  20870159.111 0  20870159.491 0
  10257834.383 7  63606112.724 7  23326539.833 0  23326542.729 0
 88  3  2 11 38 29.0800000  0  2  3 13
 -51846735.012 7 143414122.192 7  20869030.311 0  20869031.682 0
  10309938.366 7  63646713.209 6  23336455.452 0  23336458.128 0
 88  3  2 11 38 59.0800000  0  2  3 13
 -51852482.658 7 143409643.521 7  20867936.571 0  20867937.001 0
  10362177.635 7  63687419.103 7  23346397.558 0  23346398.051 0
 88  3  2 11 39 29.0800000  0  2  3 13
 -51858045.588 7 143405308.758 7  20866877.891 0  20866878.805 0
  10414552.397 6  63728230.572 7  23356363.265 0  23356365.384 0
 88  3  2 11 39 59.0800000  0  2  3 13
 -51863422.340 7 143401119.085 6  20865853.867 0  20865856.140 0
  10467062.983 6  63769147.891 6  23366354.826 0  23366357.853 0
 88  3  2 11 40 29.0800000  0  2  3 13
 -51868611.885 8 143397075.285 6  20864866.873 0  20864867.387 0
  10519710.784 6  63810172.134 7  23376372.839 0  23376376.000 0
 88  3  2 11 40 59.0800000  0  2  3 13
 -51873613.176 7 143393178.172 7  20863915.043 0  20863916.539 0
  10572496.551 7  63851303.861 7  23386418.271 0  23386419.999 0
 88  3  2 11 41 29.0800000  0  2  3 13
 -51878424.796 7 143389428.859 7  20863000.228 0  20863000.844 0
  10625420.218 6  63892543.042 7  23396489.609 0  23396491.800 0
 88  3  2 11 41 59.0800000  0  2  3 13
 -51883045.640 7 143385828.203 7  20862120.098 0  20862120.925 0
  10678482.751 7  63933890.432 7  23406586.803 0  23406590.817 0
 88  3  2 11 42 29.0800000  0  2  3 13
 -51887474.353 7 143382377.289 7  20861279.231 0  20861277.958 0
  10731684.825 7  63975346.569 8  23416711.844 0  23416713.378 0
 88  3  2 11 42 59.0800000  0  2  3 13
 -51891709.559 7 143379077.120 7  20860472.132 0  20860473.281 0
  10785027.639 7  64016912.361 7  23426861.411 0  23426863.047 0
 88  3  2 11 43 29.0800000  0  2  3 13
 -51895749.757 7 143375928.902 7  20859701.837 0  20859703.694 0
  10838511.623 7  64058588.186 7  23437040.467 0  23437042.473 0
 88  3  2 11 43 59.0800000  0  2  3 13
 -51899594.352 8 143372933.117 6  20858971.266 0  20858971.940 0
  10892137.435 7  64100374.497 7  23447244.123 0  23447247.371 0
 88  3  2 11 44 29.0800000  0  2  3 13
 -51903241.886 7 143370090.860 7  20858276.785 0  20858279.529 0
  10945905.756 7  64142271.876 7  23457475.937 0  23457478.701 0
 88  3  2 11 44 59.0800000  0  2  3 13
 -51906690.666 7 143367403.519 7  20857620.384 0  20857622.162 0
  10999817.292 7  64184280.839 7  23467735.837 0  23467737.345 0
 88  3  2 11 45 29.0800000  0  2  3 13
 -51909939.899 7 143364871.650 7  20857003.233 0  20857003.169 0
  11053872.562 7  64226401.802 7  23478021.392 0  23478023.110 0
 88  3  2 11 45 59.0800000  0  2  3 13
 -51912988.136 8 143362496.394 7  20856422.904 0  20856423.449 0
  11108072.354 7  64268635.384 6  23488334.740 0  23488337.614 0
 88  3  2 11 46 29.0800000  0  2  3 13
 -51915833.813 7 143360278.989 6  20855880.159 0  20855882.455 0
  11162417.225 7  64310982.022 7  23498676.846 0  23498678.929 0
 88  3  2 11 46 59.0800000  0  2  3 13
 -51918475.532 7 143358220.484 6  20855378.040 0  20855380.046 0
  11216907.626 7  64353442.075 7  23509046.253 0  23509048.934 0
 88  3  2 11 47 29.0800000  0  2  3 13
 -51920912.389 7 143356321.635 7  20854913.105 0  20854915.011 0
  11271544.835 7  64396016.498 7  23519444.351 0  23519445.395 0
